<?xml version='1.0' encoding='UTF-8'?>
<gpx version="1.1" creator="https://www.komoot.de" xmlns="http://www.topografix.com/GPX/1/1" xmlns:xsi="http://www.w3.org/2001/XMLSchema-instance" xsi:schemaLocation="http://www.topografix.com/GPX/1/1 http://www.topografix.com/GPX/1/1/gpx.xsd">
  <metadata>
    <name>RTF 82km_V160824</name>
    <author>
      <link href="https://www.komoot.de">
        <text>komoot</text>
        <type>text/html</type>
      </link>
    </author>
  </metadata>
  <trk>
    <name>RTF 82km_V160824</name>
    <type>racebike</type>
    <trkseg>
      <trkpt lat="48.071499" lon="7.804477">
        <ele>199.825451</ele>
        <time>2026-08-24T18:17:00.248Z</time>
      </trkpt>
      <trkpt lat="48.071787" lon="7.804308">
        <ele>199.825451</ele>
        <time>2026-08-24T18:17:04.711Z</time>
      </trkpt>
      <trkpt lat="48.071838" lon="7.804604">
        <ele>199.825451</ele>
        <time>2026-08-24T18:17:07.757Z</time>
      </trkpt>
      <trkpt lat="48.071910" lon="7.805078">
        <ele>199.825451</ele>
        <time>2026-08-24T18:17:12.715Z</time>
      </trkpt>
      <trkpt lat="48.072018" lon="7.805596">
        <ele>200.021739</ele>
        <time>2026-08-24T18:17:18.368Z</time>
      </trkpt>
      <trkpt lat="48.072161" lon="7.806163">
        <ele>200.285229</ele>
        <time>2026-08-24T18:17:25.060Z</time>
      </trkpt>
      <trkpt lat="48.072490" lon="7.807233">
        <ele>200.797321</ele>
        <time>2026-08-24T18:17:39.839Z</time>
      </trkpt>
      <trkpt lat="48.072802" lon="7.808076">
        <ele>201.137515</ele>
        <time>2026-08-24T18:17:51.396Z</time>
      </trkpt>
      <trkpt lat="48.072927" lon="7.808342">
        <ele>201.228392</ele>
        <time>2026-08-24T18:17:55.198Z</time>
      </trkpt>
      <trkpt lat="48.073330" lon="7.809105">
        <ele>201.500185</ele>
        <time>2026-08-24T18:18:06.657Z</time>
      </trkpt>
      <trkpt lat="48.073459" lon="7.809300">
        <ele>201.576867</ele>
        <time>2026-08-24T18:18:09.622Z</time>
      </trkpt>
      <trkpt lat="48.073535" lon="7.809420">
        <ele>201.623072</ele>
        <time>2026-08-24T18:18:11.351Z</time>
      </trkpt>
      <trkpt lat="48.073993" lon="7.810062">
        <ele>201.356727</ele>
        <time>2026-08-24T18:18:20.025Z</time>
      </trkpt>
      <trkpt lat="48.074461" lon="7.810656">
        <ele>200.626477</ele>
        <time>2026-08-24T18:18:27.485Z</time>
      </trkpt>
      <trkpt lat="48.074775" lon="7.810968">
        <ele>200.177950</ele>
        <time>2026-08-24T18:18:31.689Z</time>
      </trkpt>
      <trkpt lat="48.075488" lon="7.811590">
        <ele>199.400818</ele>
        <time>2026-08-24T18:18:40.845Z</time>
      </trkpt>
      <trkpt lat="48.075890" lon="7.811889">
        <ele>199.132581</ele>
        <time>2026-08-24T18:18:46.115Z</time>
      </trkpt>
      <trkpt lat="48.076326" lon="7.812192">
        <ele>198.845338</ele>
        <time>2026-08-24T18:18:52.675Z</time>
      </trkpt>
      <trkpt lat="48.076592" lon="7.812291">
        <ele>198.681553</ele>
        <time>2026-08-24T18:18:57.202Z</time>
      </trkpt>
      <trkpt lat="48.076565" lon="7.813490">
        <ele>198.879090</ele>
        <time>2026-08-24T18:19:11.659Z</time>
      </trkpt>
      <trkpt lat="48.076540" lon="7.813901">
        <ele>199.051894</ele>
        <time>2026-08-24T18:19:16.462Z</time>
      </trkpt>
      <trkpt lat="48.076491" lon="7.814359">
        <ele>199.246110</ele>
        <time>2026-08-24T18:19:21.981Z</time>
      </trkpt>
      <trkpt lat="48.076297" lon="7.816268">
        <ele>200.094887</ele>
        <time>2026-08-24T18:19:43.871Z</time>
      </trkpt>
      <trkpt lat="48.076212" lon="7.817321">
        <ele>200.584300</ele>
        <time>2026-08-24T18:19:56.394Z</time>
      </trkpt>
      <trkpt lat="48.076129" lon="7.817650">
        <ele>200.746570</ele>
        <time>2026-08-24T18:20:00.690Z</time>
      </trkpt>
      <trkpt lat="48.075786" lon="7.818526">
        <ele>201.238766</ele>
        <time>2026-08-24T18:20:13.207Z</time>
      </trkpt>
      <trkpt lat="48.075618" lon="7.819097">
        <ele>201.548451</ele>
        <time>2026-08-24T18:20:20.532Z</time>
      </trkpt>
      <trkpt lat="48.075499" lon="7.819639">
        <ele>201.831633</ele>
        <time>2026-08-24T18:20:27.258Z</time>
      </trkpt>
      <trkpt lat="48.075378" lon="7.820185">
        <ele>202.117166</ele>
        <time>2026-08-24T18:20:33.991Z</time>
      </trkpt>
      <trkpt lat="48.075346" lon="7.820333">
        <ele>202.194379</ele>
        <time>2026-08-24T18:20:35.797Z</time>
      </trkpt>
      <trkpt lat="48.075210" lon="7.821074">
        <ele>202.531618</ele>
        <time>2026-08-24T18:20:44.656Z</time>
      </trkpt>
      <trkpt lat="48.075190" lon="7.821192">
        <ele>202.584131</ele>
        <time>2026-08-24T18:20:46.091Z</time>
      </trkpt>
      <trkpt lat="48.075007" lon="7.822061">
        <ele>202.977166</ele>
        <time>2026-08-24T18:20:57.118Z</time>
      </trkpt>
      <trkpt lat="48.074965" lon="7.822302">
        <ele>203.084603</ele>
        <time>2026-08-24T18:21:00.213Z</time>
      </trkpt>
      <trkpt lat="48.074953" lon="7.822379">
        <ele>203.118710</ele>
        <time>2026-08-24T18:21:01.179Z</time>
      </trkpt>
      <trkpt lat="48.074913" lon="7.822684">
        <ele>203.252787</ele>
        <time>2026-08-24T18:21:04.750Z</time>
      </trkpt>
      <trkpt lat="48.074897" lon="7.822822">
        <ele>203.313206</ele>
        <time>2026-08-24T18:21:06.296Z</time>
      </trkpt>
      <trkpt lat="48.074859" lon="7.823144">
        <ele>203.421832</ele>
        <time>2026-08-24T18:21:09.704Z</time>
      </trkpt>
      <trkpt lat="48.074832" lon="7.823356">
        <ele>203.459740</ele>
        <time>2026-08-24T18:21:11.883Z</time>
      </trkpt>
      <trkpt lat="48.074816" lon="7.823493">
        <ele>203.484169</ele>
        <time>2026-08-24T18:21:13.321Z</time>
      </trkpt>
      <trkpt lat="48.074795" lon="7.823639">
        <ele>203.510401</ele>
        <time>2026-08-24T18:21:14.914Z</time>
      </trkpt>
      <trkpt lat="48.074765" lon="7.823847">
        <ele>203.547778</ele>
        <time>2026-08-24T18:21:17.218Z</time>
      </trkpt>
      <trkpt lat="48.074556" lon="7.824841">
        <ele>203.730816</ele>
        <time>2026-08-24T18:21:28.875Z</time>
      </trkpt>
      <trkpt lat="48.074452" lon="7.825393">
        <ele>203.831556</ele>
        <time>2026-08-24T18:21:34.778Z</time>
      </trkpt>
      <trkpt lat="48.074416" lon="7.825719">
        <ele>203.857039</ele>
        <time>2026-08-24T18:21:37.911Z</time>
      </trkpt>
      <trkpt lat="48.074401" lon="7.826184">
        <ele>203.784003</ele>
        <time>2026-08-24T18:21:42.411Z</time>
      </trkpt>
      <trkpt lat="48.074486" lon="7.828154">
        <ele>203.474299</ele>
        <time>2026-08-24T18:22:00.177Z</time>
      </trkpt>
      <trkpt lat="48.074497" lon="7.828472">
        <ele>203.534848</ele>
        <time>2026-08-24T18:22:03.009Z</time>
      </trkpt>
      <trkpt lat="48.074493" lon="7.828812">
        <ele>203.710553</ele>
        <time>2026-08-24T18:22:06.309Z</time>
      </trkpt>
      <trkpt lat="48.074459" lon="7.829373">
        <ele>204.001611</ele>
        <time>2026-08-24T18:22:12.858Z</time>
      </trkpt>
      <trkpt lat="48.074451" lon="7.829434">
        <ele>204.033731</ele>
        <time>2026-08-24T18:22:13.653Z</time>
      </trkpt>
      <trkpt lat="48.074399" lon="7.829848">
        <ele>204.251391</ele>
        <time>2026-08-24T18:22:19.451Z</time>
      </trkpt>
      <trkpt lat="48.074329" lon="7.830219">
        <ele>204.450583</ele>
        <time>2026-08-24T18:22:24.842Z</time>
      </trkpt>
      <trkpt lat="48.074126" lon="7.830843">
        <ele>204.809190</ele>
        <time>2026-08-24T18:22:34.304Z</time>
      </trkpt>
      <trkpt lat="48.074009" lon="7.831149">
        <ele>204.870673</ele>
        <time>2026-08-24T18:22:38.638Z</time>
      </trkpt>
      <trkpt lat="48.073640" lon="7.832027">
        <ele>204.976467</ele>
        <time>2026-08-24T18:22:50.224Z</time>
      </trkpt>
      <trkpt lat="48.073478" lon="7.832415">
        <ele>205.023132</ele>
        <time>2026-08-24T18:22:54.488Z</time>
      </trkpt>
      <trkpt lat="48.073239" lon="7.832987">
        <ele>205.091942</ele>
        <time>2026-08-24T18:23:00.299Z</time>
      </trkpt>
      <trkpt lat="48.073039" lon="7.833609">
        <ele>205.178912</ele>
        <time>2026-08-24T18:23:06.475Z</time>
      </trkpt>
      <trkpt lat="48.072962" lon="7.833900">
        <ele>205.222135</ele>
        <time>2026-08-24T18:23:09.497Z</time>
      </trkpt>
      <trkpt lat="48.072785" lon="7.834832">
        <ele>205.355944</ele>
        <time>2026-08-24T18:23:19.672Z</time>
      </trkpt>
      <trkpt lat="48.072750" lon="7.835027">
        <ele>205.383828</ele>
        <time>2026-08-24T18:23:21.928Z</time>
      </trkpt>
      <trkpt lat="48.072578" lon="7.835606">
        <ele>205.471335</ele>
        <time>2026-08-24T18:23:29.268Z</time>
      </trkpt>
      <trkpt lat="48.072371" lon="7.836215">
        <ele>205.822250</ele>
        <time>2026-08-24T18:23:37.448Z</time>
      </trkpt>
      <trkpt lat="48.072289" lon="7.836529">
        <ele>206.021167</ele>
        <time>2026-08-24T18:23:41.527Z</time>
      </trkpt>
      <trkpt lat="48.072052" lon="7.837782">
        <ele>206.789527</ele>
        <time>2026-08-24T18:23:57.870Z</time>
      </trkpt>
      <trkpt lat="48.071304" lon="7.839849">
        <ele>208.194252</ele>
        <time>2026-08-24T18:24:26.810Z</time>
      </trkpt>
      <trkpt lat="48.070990" lon="7.841325">
        <ele>209.201600</ele>
        <time>2026-08-24T18:24:45.920Z</time>
      </trkpt>
      <trkpt lat="48.070966" lon="7.841437">
        <ele>209.284909</ele>
        <time>2026-08-24T18:24:47.386Z</time>
      </trkpt>
      <trkpt lat="48.070888" lon="7.841724">
        <ele>209.504362</ele>
        <time>2026-08-24T18:24:51.251Z</time>
      </trkpt>
      <trkpt lat="48.070668" lon="7.842162">
        <ele>209.892471</ele>
        <time>2026-08-24T18:24:58.148Z</time>
      </trkpt>
      <trkpt lat="48.069566" lon="7.843694">
        <ele>211.651565</ele>
        <time>2026-08-24T18:25:27.773Z</time>
      </trkpt>
      <trkpt lat="48.069240" lon="7.844160">
        <ele>212.217797</ele>
        <time>2026-08-24T18:25:36.939Z</time>
      </trkpt>
      <trkpt lat="48.069012" lon="7.844460">
        <ele>212.599114</ele>
        <time>2026-08-24T18:25:43.244Z</time>
      </trkpt>
      <trkpt lat="48.068980" lon="7.844499">
        <ele>212.650948</ele>
        <time>2026-08-24T18:25:44.056Z</time>
      </trkpt>
      <trkpt lat="48.068910" lon="7.844540">
        <ele>212.745362</ele>
        <time>2026-08-24T18:25:45.546Z</time>
      </trkpt>
      <trkpt lat="48.068712" lon="7.844759">
        <ele>212.949968</ele>
        <time>2026-08-24T18:25:50.219Z</time>
      </trkpt>
      <trkpt lat="48.068609" lon="7.844866">
        <ele>213.024885</ele>
        <time>2026-08-24T18:25:52.703Z</time>
      </trkpt>
      <trkpt lat="48.068488" lon="7.845095">
        <ele>213.141446</ele>
        <time>2026-08-24T18:25:56.489Z</time>
      </trkpt>
      <trkpt lat="48.068379" lon="7.845239">
        <ele>213.228320</ele>
        <time>2026-08-24T18:25:59.221Z</time>
      </trkpt>
      <trkpt lat="48.068312" lon="7.845320">
        <ele>213.279783</ele>
        <time>2026-08-24T18:26:00.837Z</time>
      </trkpt>
      <trkpt lat="48.068160" lon="7.845428">
        <ele>213.380318</ele>
        <time>2026-08-24T18:26:03.782Z</time>
      </trkpt>
      <trkpt lat="48.068030" lon="7.845482">
        <ele>213.460928</ele>
        <time>2026-08-24T18:26:05.969Z</time>
      </trkpt>
      <trkpt lat="48.067954" lon="7.845504">
        <ele>213.507179</ele>
        <time>2026-08-24T18:26:07.135Z</time>
      </trkpt>
      <trkpt lat="48.067922" lon="7.845627">
        <ele>213.559880</ele>
        <time>2026-08-24T18:26:08.547Z</time>
      </trkpt>
      <trkpt lat="48.067879" lon="7.845786">
        <ele>213.628366</ele>
        <time>2026-08-24T18:26:10.262Z</time>
      </trkpt>
      <trkpt lat="48.067775" lon="7.846081">
        <ele>213.761537</ele>
        <time>2026-08-24T18:26:13.605Z</time>
      </trkpt>
      <trkpt lat="48.067493" lon="7.846543">
        <ele>213.926445</ele>
        <time>2026-08-24T18:26:19.959Z</time>
      </trkpt>
      <trkpt lat="48.067234" lon="7.846916">
        <ele>213.917892</ele>
        <time>2026-08-24T18:26:25.397Z</time>
      </trkpt>
      <trkpt lat="48.066782" lon="7.847539">
        <ele>213.903271</ele>
        <time>2026-08-24T18:26:34.596Z</time>
      </trkpt>
      <trkpt lat="48.066402" lon="7.848092">
        <ele>213.890660</ele>
        <time>2026-08-24T18:26:42.155Z</time>
      </trkpt>
      <trkpt lat="48.066158" lon="7.848368">
        <ele>213.971348</ele>
        <time>2026-08-24T18:26:46.253Z</time>
      </trkpt>
      <trkpt lat="48.065857" lon="7.848686">
        <ele>214.181641</ele>
        <time>2026-08-24T18:26:51.649Z</time>
      </trkpt>
      <trkpt lat="48.065722" lon="7.848801">
        <ele>214.270300</ele>
        <time>2026-08-24T18:26:54.273Z</time>
      </trkpt>
      <trkpt lat="48.065608" lon="7.848896">
        <ele>214.344773</ele>
        <time>2026-08-24T18:26:56.481Z</time>
      </trkpt>
      <trkpt lat="48.065469" lon="7.849006">
        <ele>214.434516</ele>
        <time>2026-08-24T18:26:59.171Z</time>
      </trkpt>
      <trkpt lat="48.065209" lon="7.849203">
        <ele>214.600847</ele>
        <time>2026-08-24T18:27:04.198Z</time>
      </trkpt>
      <trkpt lat="48.065017" lon="7.849394">
        <ele>214.732434</ele>
        <time>2026-08-24T18:27:08.355Z</time>
      </trkpt>
      <trkpt lat="48.064931" lon="7.849532">
        <ele>214.804404</ele>
        <time>2026-08-24T18:27:10.707Z</time>
      </trkpt>
      <trkpt lat="48.064857" lon="7.849662">
        <ele>214.869537</ele>
        <time>2026-08-24T18:27:12.869Z</time>
      </trkpt>
      <trkpt lat="48.064309" lon="7.850627">
        <ele>215.883406</ele>
        <time>2026-08-24T18:27:31.347Z</time>
      </trkpt>
      <trkpt lat="48.063961" lon="7.851093">
        <ele>216.472181</ele>
        <time>2026-08-24T18:27:40.655Z</time>
      </trkpt>
      <trkpt lat="48.063644" lon="7.851421">
        <ele>216.958087</ele>
        <time>2026-08-24T18:27:47.853Z</time>
      </trkpt>
      <trkpt lat="48.063156" lon="7.851729">
        <ele>217.454257</ele>
        <time>2026-08-24T18:27:57.645Z</time>
      </trkpt>
      <trkpt lat="48.063080" lon="7.851776">
        <ele>217.517937</ele>
        <time>2026-08-24T18:27:59.152Z</time>
      </trkpt>
      <trkpt lat="48.062989" lon="7.851835">
        <ele>217.594735</ele>
        <time>2026-08-24T18:28:00.961Z</time>
      </trkpt>
      <trkpt lat="48.062890" lon="7.851897">
        <ele>217.677841</ele>
        <time>2026-08-24T18:28:02.929Z</time>
      </trkpt>
      <trkpt lat="48.062465" lon="7.852170">
        <ele>218.035991</ele>
        <time>2026-08-24T18:28:11.289Z</time>
      </trkpt>
      <trkpt lat="48.062433" lon="7.852190">
        <ele>218.062845</ele>
        <time>2026-08-24T18:28:11.915Z</time>
      </trkpt>
      <trkpt lat="48.061146" lon="7.852983">
        <ele>218.645291</ele>
        <time>2026-08-24T18:28:35.668Z</time>
      </trkpt>
      <trkpt lat="48.061001" lon="7.853074">
        <ele>218.660627</ele>
        <time>2026-08-24T18:28:37.989Z</time>
      </trkpt>
      <trkpt lat="48.060914" lon="7.853075">
        <ele>218.669112</ele>
        <time>2026-08-24T18:28:39.255Z</time>
      </trkpt>
      <trkpt lat="48.060777" lon="7.853146">
        <ele>218.683253</ele>
        <time>2026-08-24T18:28:41.366Z</time>
      </trkpt>
      <trkpt lat="48.060586" lon="7.853316">
        <ele>218.704928</ele>
        <time>2026-08-24T18:28:44.534Z</time>
      </trkpt>
      <trkpt lat="48.060512" lon="7.853360">
        <ele>218.712694</ele>
        <time>2026-08-24T18:28:45.636Z</time>
      </trkpt>
      <trkpt lat="48.060187" lon="7.853564">
        <ele>218.747068</ele>
        <time>2026-08-24T18:28:50.469Z</time>
      </trkpt>
      <trkpt lat="48.059961" lon="7.853710">
        <ele>218.671306</ele>
        <time>2026-08-24T18:28:53.762Z</time>
      </trkpt>
      <trkpt lat="48.058949" lon="7.854283">
        <ele>218.292582</ele>
        <time>2026-08-24T18:29:08.544Z</time>
      </trkpt>
      <trkpt lat="48.057970" lon="7.854747">
        <ele>218.031884</ele>
        <time>2026-08-24T18:29:22.642Z</time>
      </trkpt>
      <trkpt lat="48.057839" lon="7.854808">
        <ele>218.009268</ele>
        <time>2026-08-24T18:29:24.542Z</time>
      </trkpt>
      <trkpt lat="48.056913" lon="7.855157">
        <ele>217.851852</ele>
        <time>2026-08-24T18:29:38.325Z</time>
      </trkpt>
      <trkpt lat="48.056528" lon="7.855287">
        <ele>217.877357</ele>
        <time>2026-08-24T18:29:44.050Z</time>
      </trkpt>
      <trkpt lat="48.056495" lon="7.855294">
        <ele>217.885495</ele>
        <time>2026-08-24T18:29:44.535Z</time>
      </trkpt>
      <trkpt lat="48.056356" lon="7.855307">
        <ele>217.919497</ele>
        <time>2026-08-24T18:29:46.601Z</time>
      </trkpt>
      <trkpt lat="48.055463" lon="7.855349">
        <ele>218.137627</ele>
        <time>2026-08-24T18:30:00.536Z</time>
      </trkpt>
      <trkpt lat="48.054723" lon="7.855346">
        <ele>218.477086</ele>
        <time>2026-08-24T18:30:12.958Z</time>
      </trkpt>
      <trkpt lat="48.054171" lon="7.855353">
        <ele>218.994900</ele>
        <time>2026-08-24T18:30:23.477Z</time>
      </trkpt>
      <trkpt lat="48.053890" lon="7.855409">
        <ele>219.260816</ele>
        <time>2026-08-24T18:30:28.876Z</time>
      </trkpt>
      <trkpt lat="48.053504" lon="7.855575">
        <ele>219.637561</ele>
        <time>2026-08-24T18:30:36.419Z</time>
      </trkpt>
      <trkpt lat="48.053218" lon="7.855777">
        <ele>219.934235</ele>
        <time>2026-08-24T18:30:42.402Z</time>
      </trkpt>
      <trkpt lat="48.053011" lon="7.855972">
        <ele>220.175093</ele>
        <time>2026-08-24T18:30:47.093Z</time>
      </trkpt>
      <trkpt lat="48.052549" lon="7.856514">
        <ele>220.755145</ele>
        <time>2026-08-24T18:30:58.206Z</time>
      </trkpt>
      <trkpt lat="48.052658" lon="7.856599">
        <ele>220.876586</ele>
        <time>2026-08-24T18:31:00.470Z</time>
      </trkpt>
      <trkpt lat="48.052338" lon="7.856929">
        <ele>221.260574</ele>
        <time>2026-08-24T18:31:07.791Z</time>
      </trkpt>
      <trkpt lat="48.051595" lon="7.858105">
        <ele>222.119274</ele>
        <time>2026-08-24T18:31:27.944Z</time>
      </trkpt>
      <trkpt lat="48.051544" lon="7.858242">
        <ele>222.186754</ele>
        <time>2026-08-24T18:31:29.792Z</time>
      </trkpt>
      <trkpt lat="48.051573" lon="7.858336">
        <ele>222.231304</ele>
        <time>2026-08-24T18:31:31.009Z</time>
      </trkpt>
      <trkpt lat="48.051648" lon="7.858402">
        <ele>222.287319</ele>
        <time>2026-08-24T18:31:32.525Z</time>
      </trkpt>
      <trkpt lat="48.052302" lon="7.858839">
        <ele>222.748420</ele>
        <time>2026-08-24T18:31:44.506Z</time>
      </trkpt>
      <trkpt lat="48.052343" lon="7.858968">
        <ele>222.809886</ele>
        <time>2026-08-24T18:31:46.052Z</time>
      </trkpt>
      <trkpt lat="48.052416" lon="7.859561">
        <ele>223.002468</ele>
        <time>2026-08-24T18:31:52.479Z</time>
      </trkpt>
      <trkpt lat="48.052447" lon="7.860444">
        <ele>223.245289</ele>
        <time>2026-08-24T18:32:02.080Z</time>
      </trkpt>
      <trkpt lat="48.052430" lon="7.861566">
        <ele>223.553489</ele>
        <time>2026-08-24T18:32:14.403Z</time>
      </trkpt>
      <trkpt lat="48.053358" lon="7.863457">
        <ele>224.346678</ele>
        <time>2026-08-24T18:32:41.127Z</time>
      </trkpt>
      <trkpt lat="48.053757" lon="7.864369">
        <ele>224.692374</ele>
        <time>2026-08-24T18:32:53.487Z</time>
      </trkpt>
      <trkpt lat="48.054832" lon="7.866770">
        <ele>225.575571</ele>
        <time>2026-08-24T18:33:25.071Z</time>
      </trkpt>
      <trkpt lat="48.055365" lon="7.867703">
        <ele>226.042869</ele>
        <time>2026-08-24T18:33:39.053Z</time>
      </trkpt>
      <trkpt lat="48.056030" lon="7.868711">
        <ele>226.650770</ele>
        <time>2026-08-24T18:33:55.980Z</time>
      </trkpt>
      <trkpt lat="48.056441" lon="7.869105">
        <ele>227.006910</ele>
        <time>2026-08-24T18:34:04.745Z</time>
      </trkpt>
      <trkpt lat="48.057052" lon="7.869679">
        <ele>227.533290</ele>
        <time>2026-08-24T18:34:17.603Z</time>
      </trkpt>
      <trkpt lat="48.057648" lon="7.870217">
        <ele>227.842580</ele>
        <time>2026-08-24T18:34:29.707Z</time>
      </trkpt>
      <trkpt lat="48.057823" lon="7.870374">
        <ele>227.915896</ele>
        <time>2026-08-24T18:34:33.049Z</time>
      </trkpt>
      <trkpt lat="48.057904" lon="7.870636">
        <ele>227.985221</ele>
        <time>2026-08-24T18:34:36.145Z</time>
      </trkpt>
      <trkpt lat="48.057964" lon="7.870765">
        <ele>228.022964</ele>
        <time>2026-08-24T18:34:37.818Z</time>
      </trkpt>
      <trkpt lat="48.058163" lon="7.871006">
        <ele>228.114955</ele>
        <time>2026-08-24T18:34:41.889Z</time>
      </trkpt>
      <trkpt lat="48.058537" lon="7.871102">
        <ele>228.251299</ele>
        <time>2026-08-24T18:34:47.900Z</time>
      </trkpt>
      <trkpt lat="48.058838" lon="7.871130">
        <ele>228.201726</ele>
        <time>2026-08-24T18:34:52.478Z</time>
      </trkpt>
      <trkpt lat="48.059189" lon="7.871114">
        <ele>228.014037</ele>
        <time>2026-08-24T18:34:57.277Z</time>
      </trkpt>
      <trkpt lat="48.059620" lon="7.870953">
        <ele>227.776606</ele>
        <time>2026-08-24T18:35:02.980Z</time>
      </trkpt>
      <trkpt lat="48.059620" lon="7.870953">
        <ele>227.776606</ele>
        <time>2026-08-24T18:35:02.986Z</time>
      </trkpt>
      <trkpt lat="48.059893" lon="7.870851">
        <ele>227.626213</ele>
        <time>2026-08-24T18:35:08.201Z</time>
      </trkpt>
      <trkpt lat="48.059907" lon="7.870932">
        <ele>227.596326</ele>
        <time>2026-08-24T18:35:09.237Z</time>
      </trkpt>
      <trkpt lat="48.059971" lon="7.871296">
        <ele>227.461874</ele>
        <time>2026-08-24T18:35:13.899Z</time>
      </trkpt>
      <trkpt lat="48.060315" lon="7.871232">
        <ele>227.315212</ele>
        <time>2026-08-24T18:35:20.324Z</time>
      </trkpt>
      <trkpt lat="48.060334" lon="7.871301">
        <ele>227.306230</ele>
        <time>2026-08-24T18:35:21.248Z</time>
      </trkpt>
      <trkpt lat="48.060712" lon="7.871069">
        <ele>227.232654</ele>
        <time>2026-08-24T18:35:26.508Z</time>
      </trkpt>
      <trkpt lat="48.060951" lon="7.870966">
        <ele>227.187864</ele>
        <time>2026-08-24T18:35:29.976Z</time>
      </trkpt>
      <trkpt lat="48.061479" lon="7.870821">
        <ele>227.091191</ele>
        <time>2026-08-24T18:35:38.291Z</time>
      </trkpt>
      <trkpt lat="48.063107" lon="7.871263">
        <ele>227.007525</ele>
        <time>2026-08-24T18:36:04.396Z</time>
      </trkpt>
      <trkpt lat="48.063189" lon="7.871278">
        <ele>227.007292</ele>
        <time>2026-08-24T18:36:05.480Z</time>
      </trkpt>
      <trkpt lat="48.064510" lon="7.871542">
        <ele>226.903384</ele>
        <time>2026-08-24T18:36:23.246Z</time>
      </trkpt>
      <trkpt lat="48.063189" lon="7.871278">
        <ele>226.766606</ele>
        <time>2026-08-24T18:36:44.109Z</time>
      </trkpt>
      <trkpt lat="48.064510" lon="7.871542">
        <ele>226.707359</ele>
        <time>2026-08-24T18:37:02.896Z</time>
      </trkpt>
      <trkpt lat="48.063189" lon="7.871278">
        <ele>226.431282</ele>
        <time>2026-08-24T18:37:23.760Z</time>
      </trkpt>
      <trkpt lat="48.064510" lon="7.871542">
        <ele>225.573401</ele>
        <time>2026-08-24T18:37:40.147Z</time>
      </trkpt>
      <trkpt lat="48.064987" lon="7.871616">
        <ele>225.112301</ele>
        <time>2026-08-24T18:37:45.737Z</time>
      </trkpt>
      <trkpt lat="48.065185" lon="7.871638">
        <ele>224.921398</ele>
        <time>2026-08-24T18:37:48.126Z</time>
      </trkpt>
      <trkpt lat="48.065185" lon="7.871638">
        <ele>224.921398</ele>
        <time>2026-08-24T18:37:48.129Z</time>
      </trkpt>
      <trkpt lat="48.065185" lon="7.871652">
        <ele>224.912402</ele>
        <time>2026-08-24T18:37:48.302Z</time>
      </trkpt>
      <trkpt lat="48.064992" lon="7.871640">
        <ele>224.726670</ele>
        <time>2026-08-24T18:37:51.882Z</time>
      </trkpt>
      <trkpt lat="48.065314" lon="7.871661">
        <ele>224.621621</ele>
        <time>2026-08-24T18:37:57.855Z</time>
      </trkpt>
      <trkpt lat="48.065722" lon="7.871768">
        <ele>224.738073</ele>
        <time>2026-08-24T18:38:05.532Z</time>
      </trkpt>
      <trkpt lat="48.065727" lon="7.871741">
        <ele>224.743337</ele>
        <time>2026-08-24T18:38:05.877Z</time>
      </trkpt>
      <trkpt lat="48.065905" lon="7.871810">
        <ele>224.795031</ele>
        <time>2026-08-24T18:38:08.830Z</time>
      </trkpt>
      <trkpt lat="48.066179" lon="7.871930">
        <ele>224.875294</ele>
        <time>2026-08-24T18:38:13.546Z</time>
      </trkpt>
      <trkpt lat="48.067180" lon="7.872500">
        <ele>225.271469</ele>
        <time>2026-08-24T18:38:33.399Z</time>
      </trkpt>
      <trkpt lat="48.067515" lon="7.872706">
        <ele>225.474701</ele>
        <time>2026-08-24T18:38:40.065Z</time>
      </trkpt>
      <trkpt lat="48.067581" lon="7.872751">
        <ele>225.515399</ele>
        <time>2026-08-24T18:38:41.376Z</time>
      </trkpt>
      <trkpt lat="48.068040" lon="7.873058">
        <ele>225.797514</ele>
        <time>2026-08-24T18:38:49.985Z</time>
      </trkpt>
      <trkpt lat="48.068085" lon="7.873101">
        <ele>225.827474</ele>
        <time>2026-08-24T18:38:50.843Z</time>
      </trkpt>
      <trkpt lat="48.068273" lon="7.873217">
        <ele>225.941582</ele>
        <time>2026-08-24T18:38:54.000Z</time>
      </trkpt>
      <trkpt lat="48.068581" lon="7.873404">
        <ele>226.113808</ele>
        <time>2026-08-24T18:38:58.846Z</time>
      </trkpt>
      <trkpt lat="48.068689" lon="7.873480">
        <ele>226.155517</ele>
        <time>2026-08-24T18:39:00.560Z</time>
      </trkpt>
      <trkpt lat="48.068867" lon="7.873598">
        <ele>226.223557</ele>
        <time>2026-08-24T18:39:03.401Z</time>
      </trkpt>
      <trkpt lat="48.069354" lon="7.873937">
        <ele>226.411269</ele>
        <time>2026-08-24T18:39:11.736Z</time>
      </trkpt>
      <trkpt lat="48.069443" lon="7.873993">
        <ele>226.445011</ele>
        <time>2026-08-24T18:39:13.311Z</time>
      </trkpt>
      <trkpt lat="48.069510" lon="7.874028">
        <ele>226.469812</ele>
        <time>2026-08-24T18:39:14.435Z</time>
      </trkpt>
      <trkpt lat="48.069535" lon="7.874037">
        <ele>226.478799</ele>
        <time>2026-08-24T18:39:14.983Z</time>
      </trkpt>
      <trkpt lat="48.069377" lon="7.874559">
        <ele>226.612628</ele>
        <time>2026-08-24T18:39:23.410Z</time>
      </trkpt>
      <trkpt lat="48.069345" lon="7.874929">
        <ele>226.699758</ele>
        <time>2026-08-24T18:39:29.154Z</time>
      </trkpt>
      <trkpt lat="48.069337" lon="7.874996">
        <ele>226.715653</ele>
        <time>2026-08-24T18:39:30.217Z</time>
      </trkpt>
      <trkpt lat="48.069379" lon="7.875133">
        <ele>226.781391</ele>
        <time>2026-08-24T18:39:32.641Z</time>
      </trkpt>
      <trkpt lat="48.069714" lon="7.875284">
        <ele>227.020221</ele>
        <time>2026-08-24T18:39:39.468Z</time>
      </trkpt>
      <trkpt lat="48.071074" lon="7.876056">
        <ele>227.930889</ele>
        <time>2026-08-24T18:40:05.258Z</time>
      </trkpt>
      <trkpt lat="48.071125" lon="7.876156">
        <ele>227.917305</ele>
        <time>2026-08-24T18:40:06.539Z</time>
      </trkpt>
      <trkpt lat="48.072014" lon="7.876720">
        <ele>227.761272</ele>
        <time>2026-08-24T18:40:19.783Z</time>
      </trkpt>
      <trkpt lat="48.072165" lon="7.876816">
        <ele>227.734760</ele>
        <time>2026-08-24T18:40:21.881Z</time>
      </trkpt>
      <trkpt lat="48.072825" lon="7.877264">
        <ele>227.607546</ele>
        <time>2026-08-24T18:40:31.904Z</time>
      </trkpt>
      <trkpt lat="48.072864" lon="7.877323">
        <ele>227.596223</ele>
        <time>2026-08-24T18:40:32.644Z</time>
      </trkpt>
      <trkpt lat="48.072889" lon="7.877528">
        <ele>227.567791</ele>
        <time>2026-08-24T18:40:34.536Z</time>
      </trkpt>
      <trkpt lat="48.072930" lon="7.877570">
        <ele>227.557646</ele>
        <time>2026-08-24T18:40:35.234Z</time>
      </trkpt>
      <trkpt lat="48.072993" lon="7.877620">
        <ele>227.543085</ele>
        <time>2026-08-24T18:40:36.216Z</time>
      </trkpt>
      <trkpt lat="48.073019" lon="7.877637">
        <ele>227.537291</ele>
        <time>2026-08-24T18:40:36.595Z</time>
      </trkpt>
      <trkpt lat="48.073136" lon="7.877576">
        <ele>227.511992</ele>
        <time>2026-08-24T18:40:38.311Z</time>
      </trkpt>
      <trkpt lat="48.073207" lon="7.877575">
        <ele>227.497494</ele>
        <time>2026-08-24T18:40:39.300Z</time>
      </trkpt>
      <trkpt lat="48.073241" lon="7.877476">
        <ele>227.482307</ele>
        <time>2026-08-24T18:40:40.340Z</time>
      </trkpt>
      <trkpt lat="48.073357" lon="7.877521">
        <ele>227.457838</ele>
        <time>2026-08-24T18:40:42.021Z</time>
      </trkpt>
      <trkpt lat="48.073719" lon="7.877840">
        <ele>227.372059</ele>
        <time>2026-08-24T18:40:48.156Z</time>
      </trkpt>
      <trkpt lat="48.074131" lon="7.878305">
        <ele>227.230502</ele>
        <time>2026-08-24T18:40:56.042Z</time>
      </trkpt>
      <trkpt lat="48.074602" lon="7.878915">
        <ele>226.894308</ele>
        <time>2026-08-24T18:41:04.347Z</time>
      </trkpt>
      <trkpt lat="48.074816" lon="7.879238">
        <ele>226.730262</ele>
        <time>2026-08-24T18:41:08.330Z</time>
      </trkpt>
      <trkpt lat="48.075450" lon="7.880362">
        <ele>226.289021</ele>
        <time>2026-08-24T18:41:20.580Z</time>
      </trkpt>
      <trkpt lat="48.075847" lon="7.881017">
        <ele>226.211070</ele>
        <time>2026-08-24T18:41:28.357Z</time>
      </trkpt>
      <trkpt lat="48.076074" lon="7.881340">
        <ele>226.169749</ele>
        <time>2026-08-24T18:41:32.985Z</time>
      </trkpt>
      <trkpt lat="48.076594" lon="7.881889">
        <ele>226.085797</ele>
        <time>2026-08-24T18:41:43.182Z</time>
      </trkpt>
      <trkpt lat="48.076788" lon="7.882172">
        <ele>226.147072</ele>
        <time>2026-08-24T18:41:48.032Z</time>
      </trkpt>
      <trkpt lat="48.076943" lon="7.882552">
        <ele>226.232463</ele>
        <time>2026-08-24T18:41:53.509Z</time>
      </trkpt>
      <trkpt lat="48.077004" lon="7.882801">
        <ele>226.283329</ele>
        <time>2026-08-24T18:41:56.628Z</time>
      </trkpt>
      <trkpt lat="48.077118" lon="7.883705">
        <ele>226.459773</ele>
        <time>2026-08-24T18:42:06.329Z</time>
      </trkpt>
      <trkpt lat="48.077157" lon="7.884070">
        <ele>226.530668</ele>
        <time>2026-08-24T18:42:09.892Z</time>
      </trkpt>
      <trkpt lat="48.077306" lon="7.884660">
        <ele>226.546063</ele>
        <time>2026-08-24T18:42:15.906Z</time>
      </trkpt>
      <trkpt lat="48.077392" lon="7.884841">
        <ele>226.506463</ele>
        <time>2026-08-24T18:42:17.944Z</time>
      </trkpt>
      <trkpt lat="48.077530" lon="7.885079">
        <ele>226.450275</ele>
        <time>2026-08-24T18:42:20.825Z</time>
      </trkpt>
      <trkpt lat="48.078925" lon="7.887071">
        <ele>226.049543</ele>
        <time>2026-08-24T18:42:47.352Z</time>
      </trkpt>
      <trkpt lat="48.079599" lon="7.888038">
        <ele>225.956873</ele>
        <time>2026-08-24T18:43:01.595Z</time>
      </trkpt>
      <trkpt lat="48.079962" lon="7.888552">
        <ele>225.906732</ele>
        <time>2026-08-24T18:43:08.799Z</time>
      </trkpt>
      <trkpt lat="48.079996" lon="7.888594">
        <ele>225.902280</ele>
        <time>2026-08-24T18:43:09.444Z</time>
      </trkpt>
      <trkpt lat="48.080355" lon="7.889071">
        <ele>225.853802</ele>
        <time>2026-08-24T18:43:16.591Z</time>
      </trkpt>
      <trkpt lat="48.080659" lon="7.889388">
        <ele>225.816386</ele>
        <time>2026-08-24T18:43:21.948Z</time>
      </trkpt>
      <trkpt lat="48.081042" lon="7.889723">
        <ele>225.771588</ele>
        <time>2026-08-24T18:43:27.971Z</time>
      </trkpt>
      <trkpt lat="48.081290" lon="7.889888">
        <ele>225.727935</ele>
        <time>2026-08-24T18:43:31.887Z</time>
      </trkpt>
      <trkpt lat="48.081373" lon="7.889930">
        <ele>225.707660</ele>
        <time>2026-08-24T18:43:33.189Z</time>
      </trkpt>
      <trkpt lat="48.081413" lon="7.889944">
        <ele>225.698154</ele>
        <time>2026-08-24T18:43:33.816Z</time>
      </trkpt>
      <trkpt lat="48.081617" lon="7.890021">
        <ele>225.649468</ele>
        <time>2026-08-24T18:43:36.938Z</time>
      </trkpt>
      <trkpt lat="48.081913" lon="7.890075">
        <ele>225.580464</ele>
        <time>2026-08-24T18:43:41.361Z</time>
      </trkpt>
      <trkpt lat="48.082609" lon="7.889968">
        <ele>225.418555</ele>
        <time>2026-08-24T18:43:50.669Z</time>
      </trkpt>
      <trkpt lat="48.082848" lon="7.889931">
        <ele>225.362953</ele>
        <time>2026-08-24T18:43:53.932Z</time>
      </trkpt>
      <trkpt lat="48.082910" lon="7.889922">
        <ele>225.348539</ele>
        <time>2026-08-24T18:43:54.788Z</time>
      </trkpt>
      <trkpt lat="48.083515" lon="7.889866">
        <ele>225.300923</ele>
        <time>2026-08-24T18:44:03.548Z</time>
      </trkpt>
      <trkpt lat="48.083553" lon="7.889867">
        <ele>225.298289</ele>
        <time>2026-08-24T18:44:04.114Z</time>
      </trkpt>
      <trkpt lat="48.084276" lon="7.889890">
        <ele>225.248170</ele>
        <time>2026-08-24T18:44:14.924Z</time>
      </trkpt>
      <trkpt lat="48.084382" lon="7.889903">
        <ele>225.240799</ele>
        <time>2026-08-24T18:44:16.565Z</time>
      </trkpt>
      <trkpt lat="48.084884" lon="7.890000">
        <ele>225.185034</ele>
        <time>2026-08-24T18:44:24.409Z</time>
      </trkpt>
      <trkpt lat="48.085652" lon="7.890255">
        <ele>225.019531</ele>
        <time>2026-08-24T18:44:35.223Z</time>
      </trkpt>
      <trkpt lat="48.086178" lon="7.890502">
        <ele>224.903551</ele>
        <time>2026-08-24T18:44:42.630Z</time>
      </trkpt>
      <trkpt lat="48.086425" lon="7.890654">
        <ele>224.847367</ele>
        <time>2026-08-24T18:44:46.462Z</time>
      </trkpt>
      <trkpt lat="48.086581" lon="7.890790">
        <ele>224.907350</ele>
        <time>2026-08-24T18:44:48.989Z</time>
      </trkpt>
      <trkpt lat="48.086880" lon="7.891142">
        <ele>225.106463</ele>
        <time>2026-08-24T18:44:54.431Z</time>
      </trkpt>
      <trkpt lat="48.087194" lon="7.891656">
        <ele>225.350017</ele>
        <time>2026-08-24T18:45:02.025Z</time>
      </trkpt>
      <trkpt lat="48.087396" lon="7.892148">
        <ele>225.551950</ele>
        <time>2026-08-24T18:45:09.118Z</time>
      </trkpt>
      <trkpt lat="48.087610" lon="7.892637">
        <ele>225.756363</ele>
        <time>2026-08-24T18:45:17.004Z</time>
      </trkpt>
      <trkpt lat="48.087720" lon="7.892882">
        <ele>225.925918</ele>
        <time>2026-08-24T18:45:20.978Z</time>
      </trkpt>
      <trkpt lat="48.087839" lon="7.893141">
        <ele>226.126295</ele>
        <time>2026-08-24T18:45:24.916Z</time>
      </trkpt>
      <trkpt lat="48.087924" lon="7.893284">
        <ele>226.248310</ele>
        <time>2026-08-24T18:45:27.300Z</time>
      </trkpt>
      <trkpt lat="48.088052" lon="7.893478">
        <ele>226.422123</ele>
        <time>2026-08-24T18:45:30.721Z</time>
      </trkpt>
      <trkpt lat="48.088099" lon="7.893550">
        <ele>226.486293</ele>
        <time>2026-08-24T18:45:32.017Z</time>
      </trkpt>
      <trkpt lat="48.088286" lon="7.893782">
        <ele>226.718050</ele>
        <time>2026-08-24T18:45:36.713Z</time>
      </trkpt>
      <trkpt lat="48.088358" lon="7.893860">
        <ele>226.802859</ele>
        <time>2026-08-24T18:45:38.468Z</time>
      </trkpt>
      <trkpt lat="48.088501" lon="7.894009">
        <ele>226.969115</ele>
        <time>2026-08-24T18:45:41.777Z</time>
      </trkpt>
      <trkpt lat="48.088609" lon="7.894116">
        <ele>227.092698</ele>
        <time>2026-08-24T18:45:44.189Z</time>
      </trkpt>
      <trkpt lat="48.088691" lon="7.894193">
        <ele>227.185065</ele>
        <time>2026-08-24T18:45:45.944Z</time>
      </trkpt>
      <trkpt lat="48.088889" lon="7.894385">
        <ele>227.410180</ele>
        <time>2026-08-24T18:45:50.236Z</time>
      </trkpt>
      <trkpt lat="48.089130" lon="7.894628">
        <ele>227.555870</ele>
        <time>2026-08-24T18:45:55.170Z</time>
      </trkpt>
      <trkpt lat="48.089825" lon="7.895320">
        <ele>227.806853</ele>
        <time>2026-08-24T18:46:07.800Z</time>
      </trkpt>
      <trkpt lat="48.090205" lon="7.895687">
        <ele>227.942830</ele>
        <time>2026-08-24T18:46:15.060Z</time>
      </trkpt>
      <trkpt lat="48.090549" lon="7.895966">
        <ele>228.087882</ele>
        <time>2026-08-24T18:46:21.336Z</time>
      </trkpt>
      <trkpt lat="48.090773" lon="7.896103">
        <ele>228.242710</ele>
        <time>2026-08-24T18:46:25.215Z</time>
      </trkpt>
      <trkpt lat="48.091482" lon="7.896458">
        <ele>228.721071</ele>
        <time>2026-08-24T18:46:38.069Z</time>
      </trkpt>
      <trkpt lat="48.091781" lon="7.896616">
        <ele>228.923957</ele>
        <time>2026-08-24T18:46:44.182Z</time>
      </trkpt>
      <trkpt lat="48.092067" lon="7.896811">
        <ele>229.125041</ele>
        <time>2026-08-24T18:46:50.015Z</time>
      </trkpt>
      <trkpt lat="48.092361" lon="7.896999">
        <ele>229.230196</ele>
        <time>2026-08-24T18:46:55.654Z</time>
      </trkpt>
      <trkpt lat="48.092637" lon="7.897232">
        <ele>229.291556</ele>
        <time>2026-08-24T18:47:00.987Z</time>
      </trkpt>
      <trkpt lat="48.092768" lon="7.897348">
        <ele>229.321029</ele>
        <time>2026-08-24T18:47:03.477Z</time>
      </trkpt>
      <trkpt lat="48.092992" lon="7.897566">
        <ele>229.372766</ele>
        <time>2026-08-24T18:47:07.717Z</time>
      </trkpt>
      <trkpt lat="48.093308" lon="7.897891">
        <ele>229.447008</ele>
        <time>2026-08-24T18:47:13.440Z</time>
      </trkpt>
      <trkpt lat="48.093294" lon="7.897994">
        <ele>229.460603</ele>
        <time>2026-08-24T18:47:14.434Z</time>
      </trkpt>
      <trkpt lat="48.093329" lon="7.898056">
        <ele>229.471103</ele>
        <time>2026-08-24T18:47:15.182Z</time>
      </trkpt>
      <trkpt lat="48.093387" lon="7.898064">
        <ele>229.482383</ele>
        <time>2026-08-24T18:47:15.984Z</time>
      </trkpt>
      <trkpt lat="48.093430" lon="7.898004">
        <ele>229.493765</ele>
        <time>2026-08-24T18:47:16.786Z</time>
      </trkpt>
      <trkpt lat="48.093817" lon="7.898326">
        <ele>229.415418</ele>
        <time>2026-08-24T18:47:22.847Z</time>
      </trkpt>
      <trkpt lat="48.094861" lon="7.899072">
        <ele>228.806627</ele>
        <time>2026-08-24T18:47:38.171Z</time>
      </trkpt>
      <trkpt lat="48.095444" lon="7.899551">
        <ele>228.504723</ele>
        <time>2026-08-24T18:47:46.561Z</time>
      </trkpt>
      <trkpt lat="48.095973" lon="7.900101">
        <ele>228.289085</ele>
        <time>2026-08-24T18:47:54.851Z</time>
      </trkpt>
      <trkpt lat="48.096234" lon="7.900457">
        <ele>228.170870</ele>
        <time>2026-08-24T18:47:59.528Z</time>
      </trkpt>
      <trkpt lat="48.096272" lon="7.900509">
        <ele>228.153634</ele>
        <time>2026-08-24T18:48:00.231Z</time>
      </trkpt>
      <trkpt lat="48.096570" lon="7.900949">
        <ele>228.013502</ele>
        <time>2026-08-24T18:48:06.353Z</time>
      </trkpt>
      <trkpt lat="48.097009" lon="7.901640">
        <ele>228.433050</ele>
        <time>2026-08-24T18:48:17.400Z</time>
      </trkpt>
      <trkpt lat="48.097205" lon="7.902023">
        <ele>228.691596</ele>
        <time>2026-08-24T18:48:23.283Z</time>
      </trkpt>
      <trkpt lat="48.097265" lon="7.902128">
        <ele>228.765642</ele>
        <time>2026-08-24T18:48:25.013Z</time>
      </trkpt>
      <trkpt lat="48.097429" lon="7.902460">
        <ele>228.986912</ele>
        <time>2026-08-24T18:48:30.288Z</time>
      </trkpt>
      <trkpt lat="48.097622" lon="7.902788">
        <ele>229.221147</ele>
        <time>2026-08-24T18:48:36.060Z</time>
      </trkpt>
      <trkpt lat="48.097663" lon="7.902852">
        <ele>229.268667</ele>
        <time>2026-08-24T18:48:37.226Z</time>
      </trkpt>
      <trkpt lat="48.098585" lon="7.904201">
        <ele>230.343367</ele>
        <time>2026-08-24T18:49:01.392Z</time>
      </trkpt>
      <trkpt lat="48.098599" lon="7.904221">
        <ele>230.359611</ele>
        <time>2026-08-24T18:49:01.726Z</time>
      </trkpt>
      <trkpt lat="48.098716" lon="7.904388">
        <ele>230.495304</ele>
        <time>2026-08-24T18:49:04.568Z</time>
      </trkpt>
      <trkpt lat="48.098911" lon="7.904668">
        <ele>230.722105</ele>
        <time>2026-08-24T18:49:09.212Z</time>
      </trkpt>
      <trkpt lat="48.099014" lon="7.904814">
        <ele>230.841168</ele>
        <time>2026-08-24T18:49:11.621Z</time>
      </trkpt>
      <trkpt lat="48.100014" lon="7.905942">
        <ele>231.547496</ele>
        <time>2026-08-24T18:49:33.107Z</time>
      </trkpt>
      <trkpt lat="48.100331" lon="7.906270">
        <ele>231.753925</ele>
        <time>2026-08-24T18:49:39.459Z</time>
      </trkpt>
      <trkpt lat="48.100418" lon="7.906358">
        <ele>231.810171</ele>
        <time>2026-08-24T18:49:41.184Z</time>
      </trkpt>
      <trkpt lat="48.100825" lon="7.906754">
        <ele>231.972509</ele>
        <time>2026-08-24T18:49:49.319Z</time>
      </trkpt>
      <trkpt lat="48.100969" lon="7.906885">
        <ele>232.009994</ele>
        <time>2026-08-24T18:49:52.137Z</time>
      </trkpt>
      <trkpt lat="48.101018" lon="7.906930">
        <ele>232.022783</ele>
        <time>2026-08-24T18:49:53.068Z</time>
      </trkpt>
      <trkpt lat="48.101162" lon="7.907053">
        <ele>232.059664</ele>
        <time>2026-08-24T18:49:55.662Z</time>
      </trkpt>
      <trkpt lat="48.101174" lon="7.907063">
        <ele>232.062720</ele>
        <time>2026-08-24T18:49:55.883Z</time>
      </trkpt>
      <trkpt lat="48.101243" lon="7.907123">
        <ele>232.080471</ele>
        <time>2026-08-24T18:49:57.052Z</time>
      </trkpt>
      <trkpt lat="48.101559" lon="7.907385">
        <ele>232.160830</ele>
        <time>2026-08-24T18:50:02.068Z</time>
      </trkpt>
      <trkpt lat="48.101753" lon="7.907546">
        <ele>232.210175</ele>
        <time>2026-08-24T18:50:05.303Z</time>
      </trkpt>
      <trkpt lat="48.101890" lon="7.907571">
        <ele>232.240879</ele>
        <time>2026-08-24T18:50:07.475Z</time>
      </trkpt>
      <trkpt lat="48.102034" lon="7.907500">
        <ele>232.274607</ele>
        <time>2026-08-24T18:50:09.987Z</time>
      </trkpt>
      <trkpt lat="48.102121" lon="7.907347">
        <ele>232.305636</ele>
        <time>2026-08-24T18:50:12.284Z</time>
      </trkpt>
      <trkpt lat="48.102256" lon="7.906962">
        <ele>232.434347</ele>
        <time>2026-08-24T18:50:17.263Z</time>
      </trkpt>
      <trkpt lat="48.102361" lon="7.906839">
        <ele>232.493435</ele>
        <time>2026-08-24T18:50:19.459Z</time>
      </trkpt>
      <trkpt lat="48.102454" lon="7.906810">
        <ele>232.535540</ele>
        <time>2026-08-24T18:50:20.992Z</time>
      </trkpt>
      <trkpt lat="48.102541" lon="7.906827">
        <ele>232.574428</ele>
        <time>2026-08-24T18:50:22.389Z</time>
      </trkpt>
      <trkpt lat="48.102658" lon="7.906968">
        <ele>232.640993</ele>
        <time>2026-08-24T18:50:24.715Z</time>
      </trkpt>
      <trkpt lat="48.102764" lon="7.907138">
        <ele>232.709836</ele>
        <time>2026-08-24T18:50:27.163Z</time>
      </trkpt>
      <trkpt lat="48.102814" lon="7.907208">
        <ele>232.740174</ele>
        <time>2026-08-24T18:50:28.261Z</time>
      </trkpt>
      <trkpt lat="48.102863" lon="7.907277">
        <ele>232.769987</ele>
        <time>2026-08-24T18:50:29.378Z</time>
      </trkpt>
      <trkpt lat="48.102906" lon="7.907331">
        <ele>232.794861</ele>
        <time>2026-08-24T18:50:30.322Z</time>
      </trkpt>
      <trkpt lat="48.103192" lon="7.907665">
        <ele>232.955616</ele>
        <time>2026-08-24T18:50:36.731Z</time>
      </trkpt>
      <trkpt lat="48.103291" lon="7.907772">
        <ele>233.009731</ele>
        <time>2026-08-24T18:50:38.952Z</time>
      </trkpt>
      <trkpt lat="48.103410" lon="7.907863">
        <ele>233.068955</ele>
        <time>2026-08-24T18:50:41.355Z</time>
      </trkpt>
      <trkpt lat="48.103543" lon="7.907909">
        <ele>233.127491</ele>
        <time>2026-08-24T18:50:43.706Z</time>
      </trkpt>
      <trkpt lat="48.104004" lon="7.907901">
        <ele>233.317966</ele>
        <time>2026-08-24T18:50:51.120Z</time>
      </trkpt>
      <trkpt lat="48.104542" lon="7.907882">
        <ele>233.540303</ele>
        <time>2026-08-24T18:51:00.002Z</time>
      </trkpt>
      <trkpt lat="48.104987" lon="7.907898">
        <ele>233.724207</ele>
        <time>2026-08-24T18:51:07.530Z</time>
      </trkpt>
      <trkpt lat="48.105836" lon="7.908148">
        <ele>233.928041</ele>
        <time>2026-08-24T18:51:21.224Z</time>
      </trkpt>
      <trkpt lat="48.106348" lon="7.908332">
        <ele>234.005191</ele>
        <time>2026-08-24T18:51:29.377Z</time>
      </trkpt>
      <trkpt lat="48.106704" lon="7.908439">
        <ele>234.058394</ele>
        <time>2026-08-24T18:51:34.829Z</time>
      </trkpt>
      <trkpt lat="48.107100" lon="7.908497">
        <ele>234.137018</ele>
        <time>2026-08-24T18:51:40.668Z</time>
      </trkpt>
      <trkpt lat="48.107654" lon="7.908472">
        <ele>234.391134</ele>
        <time>2026-08-24T18:51:48.878Z</time>
      </trkpt>
      <trkpt lat="48.107721" lon="7.908410">
        <ele>234.427243</ele>
        <time>2026-08-24T18:51:50.130Z</time>
      </trkpt>
      <trkpt lat="48.107829" lon="7.908396">
        <ele>234.476945</ele>
        <time>2026-08-24T18:51:51.869Z</time>
      </trkpt>
      <trkpt lat="48.108241" lon="7.908397">
        <ele>234.665840</ele>
        <time>2026-08-24T18:51:58.784Z</time>
      </trkpt>
      <trkpt lat="48.108221" lon="7.908450">
        <ele>234.684477</ele>
        <time>2026-08-24T18:51:59.705Z</time>
      </trkpt>
      <trkpt lat="48.108716" lon="7.908436">
        <ele>234.911467</ele>
        <time>2026-08-24T18:52:08.592Z</time>
      </trkpt>
      <trkpt lat="48.109097" lon="7.908464">
        <ele>235.433576</ele>
        <time>2026-08-24T18:52:15.792Z</time>
      </trkpt>
      <trkpt lat="48.109489" lon="7.908556">
        <ele>236.024166</ele>
        <time>2026-08-24T18:52:23.888Z</time>
      </trkpt>
      <trkpt lat="48.109734" lon="7.908647">
        <ele>236.399882</ele>
        <time>2026-08-24T18:52:29.240Z</time>
      </trkpt>
      <trkpt lat="48.109988" lon="7.908810">
        <ele>236.811192</ele>
        <time>2026-08-24T18:52:35.233Z</time>
      </trkpt>
      <trkpt lat="48.110040" lon="7.908843">
        <ele>236.895252</ele>
        <time>2026-08-24T18:52:36.480Z</time>
      </trkpt>
      <trkpt lat="48.110652" lon="7.909204">
        <ele>237.814430</ele>
        <time>2026-08-24T18:52:51.157Z</time>
      </trkpt>
      <trkpt lat="48.111063" lon="7.909334">
        <ele>238.298615</ele>
        <time>2026-08-24T18:53:00.665Z</time>
      </trkpt>
      <trkpt lat="48.111374" lon="7.909353">
        <ele>238.657385</ele>
        <time>2026-08-24T18:53:07.591Z</time>
      </trkpt>
      <trkpt lat="48.111534" lon="7.909340">
        <ele>238.842078</ele>
        <time>2026-08-24T18:53:11.715Z</time>
      </trkpt>
      <trkpt lat="48.111732" lon="7.909309">
        <ele>239.071545</ele>
        <time>2026-08-24T18:53:16.559Z</time>
      </trkpt>
      <trkpt lat="48.111853" lon="7.909283">
        <ele>239.212443</ele>
        <time>2026-08-24T18:53:19.392Z</time>
      </trkpt>
      <trkpt lat="48.112207" lon="7.909190">
        <ele>239.626707</ele>
        <time>2026-08-24T18:53:27.067Z</time>
      </trkpt>
      <trkpt lat="48.113365" lon="7.908848">
        <ele>239.016799</ele>
        <time>2026-08-24T18:53:41.889Z</time>
      </trkpt>
      <trkpt lat="48.114699" lon="7.908558">
        <ele>238.997355</ele>
        <time>2026-08-24T18:53:59.372Z</time>
      </trkpt>
      <trkpt lat="48.115138" lon="7.908539">
        <ele>239.237222</ele>
        <time>2026-08-24T18:54:07.243Z</time>
      </trkpt>
      <trkpt lat="48.115525" lon="7.908556">
        <ele>239.448680</ele>
        <time>2026-08-24T18:54:15.008Z</time>
      </trkpt>
      <trkpt lat="48.115828" lon="7.908570">
        <ele>239.628942</ele>
        <time>2026-08-24T18:54:21.621Z</time>
      </trkpt>
      <trkpt lat="48.117056" lon="7.908734">
        <ele>241.766891</ele>
        <time>2026-08-24T18:54:49.943Z</time>
      </trkpt>
      <trkpt lat="48.117365" lon="7.908776">
        <ele>242.304936</ele>
        <time>2026-08-24T18:54:56.500Z</time>
      </trkpt>
      <trkpt lat="48.117899" lon="7.908850">
        <ele>242.852040</ele>
        <time>2026-08-24T18:55:10.123Z</time>
      </trkpt>
      <trkpt lat="48.117960" lon="7.908771">
        <ele>242.886557</ele>
        <time>2026-08-24T18:55:11.609Z</time>
      </trkpt>
      <trkpt lat="48.118026" lon="7.908781">
        <ele>242.914953</ele>
        <time>2026-08-24T18:55:12.912Z</time>
      </trkpt>
      <trkpt lat="48.118711" lon="7.908829">
        <ele>243.208487</ele>
        <time>2026-08-24T18:55:24.573Z</time>
      </trkpt>
      <trkpt lat="48.119170" lon="7.908747">
        <ele>243.406354</ele>
        <time>2026-08-24T18:55:31.127Z</time>
      </trkpt>
      <trkpt lat="48.119211" lon="7.908729">
        <ele>243.424643</ele>
        <time>2026-08-24T18:55:31.718Z</time>
      </trkpt>
      <trkpt lat="48.119236" lon="7.908715">
        <ele>243.436067</ele>
        <time>2026-08-24T18:55:32.100Z</time>
      </trkpt>
      <trkpt lat="48.119629" lon="7.908454">
        <ele>243.282440</ele>
        <time>2026-08-24T18:55:37.790Z</time>
      </trkpt>
      <trkpt lat="48.120507" lon="7.907740">
        <ele>242.542032</ele>
        <time>2026-08-24T18:55:50.213Z</time>
      </trkpt>
      <trkpt lat="48.120959" lon="7.907260">
        <ele>242.159239</ele>
        <time>2026-08-24T18:55:57.030Z</time>
      </trkpt>
      <trkpt lat="48.120997" lon="7.907338">
        <ele>242.152954</ele>
        <time>2026-08-24T18:55:57.894Z</time>
      </trkpt>
      <trkpt lat="48.121359" lon="7.906870">
        <ele>242.106330</ele>
        <time>2026-08-24T18:56:04.107Z</time>
      </trkpt>
      <trkpt lat="48.121424" lon="7.906785">
        <ele>242.097917</ele>
        <time>2026-08-24T18:56:05.287Z</time>
      </trkpt>
      <trkpt lat="48.121968" lon="7.905907">
        <ele>242.019947</ele>
        <time>2026-08-24T18:56:17.423Z</time>
      </trkpt>
      <trkpt lat="48.122230" lon="7.905539">
        <ele>242.023485</ele>
        <time>2026-08-24T18:56:23.433Z</time>
      </trkpt>
      <trkpt lat="48.122737" lon="7.904984">
        <ele>242.711192</ele>
        <time>2026-08-24T18:56:34.866Z</time>
      </trkpt>
      <trkpt lat="48.123331" lon="7.904409">
        <ele>243.485727</ele>
        <time>2026-08-24T18:56:48.534Z</time>
      </trkpt>
      <trkpt lat="48.124122" lon="7.903715">
        <ele>244.881894</ele>
        <time>2026-08-24T18:57:07.957Z</time>
      </trkpt>
      <trkpt lat="48.125100" lon="7.902960">
        <ele>246.975670</ele>
        <time>2026-08-24T18:57:33.503Z</time>
      </trkpt>
      <trkpt lat="48.125175" lon="7.902902">
        <ele>247.136294</ele>
        <time>2026-08-24T18:57:35.533Z</time>
      </trkpt>
      <trkpt lat="48.125692" lon="7.902586">
        <ele>248.103692</ele>
        <time>2026-08-24T18:57:47.874Z</time>
      </trkpt>
      <trkpt lat="48.126177" lon="7.902336">
        <ele>248.966168</ele>
        <time>2026-08-24T18:57:59.399Z</time>
      </trkpt>
      <trkpt lat="48.126169" lon="7.902262">
        <ele>249.050310</ele>
        <time>2026-08-24T18:58:00.564Z</time>
      </trkpt>
      <trkpt lat="48.127047" lon="7.901851">
        <ele>250.541394</ele>
        <time>2026-08-24T18:58:19.824Z</time>
      </trkpt>
      <trkpt lat="48.127069" lon="7.901924">
        <ele>250.605175</ele>
        <time>2026-08-24T18:58:21.026Z</time>
      </trkpt>
      <trkpt lat="48.127698" lon="7.901511">
        <ele>251.424479</ele>
        <time>2026-08-24T18:58:34.556Z</time>
      </trkpt>
      <trkpt lat="48.128061" lon="7.901338">
        <ele>251.878924</ele>
        <time>2026-08-24T18:58:42.051Z</time>
      </trkpt>
      <trkpt lat="48.128561" lon="7.901263">
        <ele>252.478409</ele>
        <time>2026-08-24T18:58:51.256Z</time>
      </trkpt>
      <trkpt lat="48.128866" lon="7.901304">
        <ele>252.783832</ele>
        <time>2026-08-24T18:58:56.869Z</time>
      </trkpt>
      <trkpt lat="48.129695" lon="7.901546">
        <ele>253.585136</ele>
        <time>2026-08-24T18:59:12.596Z</time>
      </trkpt>
      <trkpt lat="48.130120" lon="7.901556">
        <ele>253.988404</ele>
        <time>2026-08-24T18:59:20.487Z</time>
      </trkpt>
      <trkpt lat="48.130110" lon="7.901483">
        <ele>254.035594</ele>
        <time>2026-08-24T18:59:21.364Z</time>
      </trkpt>
      <trkpt lat="48.130717" lon="7.901461">
        <ele>254.624998</ele>
        <time>2026-08-24T18:59:32.998Z</time>
      </trkpt>
      <trkpt lat="48.130760" lon="7.901529">
        <ele>254.686550</ele>
        <time>2026-08-24T18:59:34.246Z</time>
      </trkpt>
      <trkpt lat="48.131211" lon="7.901617">
        <ele>255.134313</ele>
        <time>2026-08-24T18:59:45.564Z</time>
      </trkpt>
      <trkpt lat="48.131641" lon="7.901747">
        <ele>255.566184</ele>
        <time>2026-08-24T18:59:56.089Z</time>
      </trkpt>
      <trkpt lat="48.131679" lon="7.901758">
        <ele>255.604287</ele>
        <time>2026-08-24T18:59:57.039Z</time>
      </trkpt>
      <trkpt lat="48.131906" lon="7.901798">
        <ele>255.829311</ele>
        <time>2026-08-24T19:00:02.425Z</time>
      </trkpt>
      <trkpt lat="48.131970" lon="7.901807">
        <ele>255.892596</ele>
        <time>2026-08-24T19:00:03.941Z</time>
      </trkpt>
      <trkpt lat="48.132132" lon="7.901826">
        <ele>256.027450</ele>
        <time>2026-08-24T19:00:07.797Z</time>
      </trkpt>
      <trkpt lat="48.132228" lon="7.901838">
        <ele>256.023763</ele>
        <time>2026-08-24T19:00:09.549Z</time>
      </trkpt>
      <trkpt lat="48.132711" lon="7.901913">
        <ele>256.005181</ele>
        <time>2026-08-24T19:00:18.120Z</time>
      </trkpt>
      <trkpt lat="48.133328" lon="7.902024">
        <ele>255.981400</ele>
        <time>2026-08-24T19:00:27.718Z</time>
      </trkpt>
      <trkpt lat="48.133605" lon="7.902099">
        <ele>255.970628</ele>
        <time>2026-08-24T19:00:31.428Z</time>
      </trkpt>
      <trkpt lat="48.134211" lon="7.902349">
        <ele>255.464973</ele>
        <time>2026-08-24T19:00:38.896Z</time>
      </trkpt>
      <trkpt lat="48.134694" lon="7.902565">
        <ele>254.730254</ele>
        <time>2026-08-24T19:00:44.448Z</time>
      </trkpt>
      <trkpt lat="48.135013" lon="7.902651">
        <ele>254.257806</ele>
        <time>2026-08-24T19:00:48.049Z</time>
      </trkpt>
      <trkpt lat="48.135407" lon="7.902665">
        <ele>253.683342</ele>
        <time>2026-08-24T19:00:52.503Z</time>
      </trkpt>
      <trkpt lat="48.135615" lon="7.902678">
        <ele>253.379893</ele>
        <time>2026-08-24T19:00:54.930Z</time>
      </trkpt>
      <trkpt lat="48.136263" lon="7.902811">
        <ele>253.492104</ele>
        <time>2026-08-24T19:01:03.394Z</time>
      </trkpt>
      <trkpt lat="48.136426" lon="7.902872">
        <ele>253.533566</ele>
        <time>2026-08-24T19:01:05.792Z</time>
      </trkpt>
      <trkpt lat="48.136771" lon="7.903107">
        <ele>253.627092</ele>
        <time>2026-08-24T19:01:12.127Z</time>
      </trkpt>
      <trkpt lat="48.137388" lon="7.903733">
        <ele>254.028195</ele>
        <time>2026-08-24T19:01:26.796Z</time>
      </trkpt>
      <trkpt lat="48.137513" lon="7.903939">
        <ele>254.414216</ele>
        <time>2026-08-24T19:01:30.754Z</time>
      </trkpt>
      <trkpt lat="48.137589" lon="7.904168">
        <ele>254.768805</ele>
        <time>2026-08-24T19:01:34.570Z</time>
      </trkpt>
      <trkpt lat="48.137653" lon="7.905588">
        <ele>256.742032</ele>
        <time>2026-08-24T19:01:57.351Z</time>
      </trkpt>
      <trkpt lat="48.137764" lon="7.906677">
        <ele>258.264465</ele>
        <time>2026-08-24T19:02:15.434Z</time>
      </trkpt>
      <trkpt lat="48.137895" lon="7.907277">
        <ele>259.133996</ele>
        <time>2026-08-24T19:02:25.616Z</time>
      </trkpt>
      <trkpt lat="48.137990" lon="7.907589">
        <ele>259.606355</ele>
        <time>2026-08-24T19:02:31.247Z</time>
      </trkpt>
      <trkpt lat="48.138618" lon="7.909191">
        <ele>261.577880</ele>
        <time>2026-08-24T19:02:58.207Z</time>
      </trkpt>
      <trkpt lat="48.138706" lon="7.909391">
        <ele>261.700407</ele>
        <time>2026-08-24T19:03:01.028Z</time>
      </trkpt>
      <trkpt lat="48.138779" lon="7.909556">
        <ele>261.801661</ele>
        <time>2026-08-24T19:03:03.304Z</time>
      </trkpt>
      <trkpt lat="48.139065" lon="7.910111">
        <ele>262.160307</ele>
        <time>2026-08-24T19:03:10.805Z</time>
      </trkpt>
      <trkpt lat="48.139444" lon="7.910705">
        <ele>262.580638</ele>
        <time>2026-08-24T19:03:19.074Z</time>
      </trkpt>
      <trkpt lat="48.139967" lon="7.911419">
        <ele>263.450137</ele>
        <time>2026-08-24T19:03:31.963Z</time>
      </trkpt>
      <trkpt lat="48.140555" lon="7.912005">
        <ele>264.336270</ele>
        <time>2026-08-24T19:03:46.245Z</time>
      </trkpt>
      <trkpt lat="48.141254" lon="7.912908">
        <ele>266.159550</ele>
        <time>2026-08-24T19:04:07.146Z</time>
      </trkpt>
      <trkpt lat="48.141443" lon="7.913227">
        <ele>266.895182</ele>
        <time>2026-08-24T19:04:13.898Z</time>
      </trkpt>
      <trkpt lat="48.141850" lon="7.914082">
        <ele>268.706269</ele>
        <time>2026-08-24T19:04:31.176Z</time>
      </trkpt>
      <trkpt lat="48.143087" lon="7.916316">
        <ele>274.991835</ele>
        <time>2026-08-24T19:05:29.566Z</time>
      </trkpt>
      <trkpt lat="48.143226" lon="7.916510">
        <ele>275.569608</ele>
        <time>2026-08-24T19:05:35.395Z</time>
      </trkpt>
      <trkpt lat="48.143941" lon="7.917060">
        <ele>275.057824</ele>
        <time>2026-08-24T19:05:49.631Z</time>
      </trkpt>
      <trkpt lat="48.144018" lon="7.917139">
        <ele>274.998401</ele>
        <time>2026-08-24T19:05:50.673Z</time>
      </trkpt>
      <trkpt lat="48.144074" lon="7.917214">
        <ele>274.950576</ele>
        <time>2026-08-24T19:05:51.562Z</time>
      </trkpt>
      <trkpt lat="48.144140" lon="7.917340">
        <ele>274.882511</ele>
        <time>2026-08-24T19:05:52.750Z</time>
      </trkpt>
      <trkpt lat="48.144190" lon="7.917467">
        <ele>274.819855</ele>
        <time>2026-08-24T19:05:53.811Z</time>
      </trkpt>
      <trkpt lat="48.144211" lon="7.917534">
        <ele>274.788402</ele>
        <time>2026-08-24T19:05:54.338Z</time>
      </trkpt>
      <trkpt lat="48.144225" lon="7.917602">
        <ele>274.758164</ele>
        <time>2026-08-24T19:05:54.852Z</time>
      </trkpt>
      <trkpt lat="48.144240" lon="7.917708">
        <ele>274.712122</ele>
        <time>2026-08-24T19:05:55.603Z</time>
      </trkpt>
      <trkpt lat="48.144236" lon="7.917878">
        <ele>274.639843</ele>
        <time>2026-08-24T19:05:56.781Z</time>
      </trkpt>
      <trkpt lat="48.144219" lon="7.918051">
        <ele>274.565541</ele>
        <time>2026-08-24T19:05:57.977Z</time>
      </trkpt>
      <trkpt lat="48.144188" lon="7.918211">
        <ele>274.494748</ele>
        <time>2026-08-24T19:05:59.082Z</time>
      </trkpt>
      <trkpt lat="48.143992" lon="7.918743">
        <ele>274.481644</ele>
        <time>2026-08-24T19:06:03.097Z</time>
      </trkpt>
      <trkpt lat="48.143902" lon="7.919025">
        <ele>274.513523</ele>
        <time>2026-08-24T19:06:05.412Z</time>
      </trkpt>
      <trkpt lat="48.143869" lon="7.919134">
        <ele>274.525730</ele>
        <time>2026-08-24T19:06:06.424Z</time>
      </trkpt>
      <trkpt lat="48.143839" lon="7.919227">
        <ele>274.536264</ele>
        <time>2026-08-24T19:06:07.260Z</time>
      </trkpt>
      <trkpt lat="48.143797" lon="7.919402">
        <ele>274.555230</ele>
        <time>2026-08-24T19:06:08.837Z</time>
      </trkpt>
      <trkpt lat="48.143780" lon="7.919503">
        <ele>274.565853</ele>
        <time>2026-08-24T19:06:09.824Z</time>
      </trkpt>
      <trkpt lat="48.143773" lon="7.919793">
        <ele>274.595447</ele>
        <time>2026-08-24T19:06:13.719Z</time>
      </trkpt>
      <trkpt lat="48.143777" lon="7.919830">
        <ele>274.599270</ele>
        <time>2026-08-24T19:06:14.321Z</time>
      </trkpt>
      <trkpt lat="48.143828" lon="7.920108">
        <ele>274.628672</ele>
        <time>2026-08-24T19:06:18.899Z</time>
      </trkpt>
      <trkpt lat="48.143894" lon="7.920285">
        <ele>274.649350</ele>
        <time>2026-08-24T19:06:22.210Z</time>
      </trkpt>
      <trkpt lat="48.144037" lon="7.920508">
        <ele>274.680892</ele>
        <time>2026-08-24T19:06:27.523Z</time>
      </trkpt>
      <trkpt lat="48.144163" lon="7.920554">
        <ele>274.700712</ele>
        <time>2026-08-24T19:06:30.869Z</time>
      </trkpt>
      <trkpt lat="48.144230" lon="7.920525">
        <ele>274.736368</ele>
        <time>2026-08-24T19:06:32.548Z</time>
      </trkpt>
      <trkpt lat="48.144496" lon="7.920276">
        <ele>275.311486</ele>
        <time>2026-08-24T19:06:40.325Z</time>
      </trkpt>
      <trkpt lat="48.144578" lon="7.920230">
        <ele>275.472045</ele>
        <time>2026-08-24T19:06:42.606Z</time>
      </trkpt>
      <trkpt lat="48.145040" lon="7.920280">
        <ele>276.321455</ele>
        <time>2026-08-24T19:06:53.574Z</time>
      </trkpt>
      <trkpt lat="48.145346" lon="7.920332">
        <ele>276.886186</ele>
        <time>2026-08-24T19:06:59.970Z</time>
      </trkpt>
      <trkpt lat="48.145975" lon="7.920518">
        <ele>278.028706</ele>
        <time>2026-08-24T19:07:13.016Z</time>
      </trkpt>
      <trkpt lat="48.146660" lon="7.920757">
        <ele>278.533125</ele>
        <time>2026-08-24T19:07:25.633Z</time>
      </trkpt>
      <trkpt lat="48.146804" lon="7.920751">
        <ele>278.636442</ele>
        <time>2026-08-24T19:07:28.034Z</time>
      </trkpt>
      <trkpt lat="48.147471" lon="7.920569">
        <ele>279.122678</ele>
        <time>2026-08-24T19:07:39.042Z</time>
      </trkpt>
      <trkpt lat="48.147520" lon="7.920572">
        <ele>279.157850</ele>
        <time>2026-08-24T19:07:39.889Z</time>
      </trkpt>
      <trkpt lat="48.148040" lon="7.920713">
        <ele>279.638720</ele>
        <time>2026-08-24T19:07:49.690Z</time>
      </trkpt>
      <trkpt lat="48.149463" lon="7.921329">
        <ele>281.175005</ele>
        <time>2026-08-24T19:08:18.466Z</time>
      </trkpt>
      <trkpt lat="48.149579" lon="7.921358">
        <ele>281.453502</ele>
        <time>2026-08-24T19:08:20.495Z</time>
      </trkpt>
      <trkpt lat="48.150216" lon="7.921364">
        <ele>282.962026</ele>
        <time>2026-08-24T19:08:32.289Z</time>
      </trkpt>
      <trkpt lat="48.150473" lon="7.921320">
        <ele>283.574590</ele>
        <time>2026-08-24T19:08:38.336Z</time>
      </trkpt>
      <trkpt lat="48.150585" lon="7.921351">
        <ele>283.844304</ele>
        <time>2026-08-24T19:08:41.226Z</time>
      </trkpt>
      <trkpt lat="48.150695" lon="7.921409">
        <ele>284.120446</ele>
        <time>2026-08-24T19:08:44.303Z</time>
      </trkpt>
      <trkpt lat="48.150921" lon="7.921623">
        <ele>284.753495</ele>
        <time>2026-08-24T19:08:51.821Z</time>
      </trkpt>
      <trkpt lat="48.151211" lon="7.921935">
        <ele>285.783823</ele>
        <time>2026-08-24T19:09:02.725Z</time>
      </trkpt>
      <trkpt lat="48.151590" lon="7.922208">
        <ele>287.685764</ele>
        <time>2026-08-24T19:09:17.774Z</time>
      </trkpt>
      <trkpt lat="48.151764" lon="7.922278">
        <ele>288.500641</ele>
        <time>2026-08-24T19:09:24.612Z</time>
      </trkpt>
      <trkpt lat="48.152110" lon="7.922338">
        <ele>290.076080</ele>
        <time>2026-08-24T19:09:37.787Z</time>
      </trkpt>
      <trkpt lat="48.152303" lon="7.922367">
        <ele>290.953417</ele>
        <time>2026-08-24T19:09:44.815Z</time>
      </trkpt>
      <trkpt lat="48.152471" lon="7.922442">
        <ele>291.746288</ele>
        <time>2026-08-24T19:09:50.825Z</time>
      </trkpt>
      <trkpt lat="48.153127" lon="7.922904">
        <ele>294.470271</ele>
        <time>2026-08-24T19:10:10.889Z</time>
      </trkpt>
      <trkpt lat="48.153583" lon="7.923120">
        <ele>295.830475</ele>
        <time>2026-08-24T19:10:22.217Z</time>
      </trkpt>
      <trkpt lat="48.153711" lon="7.923150">
        <ele>296.198964</ele>
        <time>2026-08-24T19:10:25.228Z</time>
      </trkpt>
      <trkpt lat="48.154088" lon="7.923232">
        <ele>297.282481</ele>
        <time>2026-08-24T19:10:35.262Z</time>
      </trkpt>
      <trkpt lat="48.154415" lon="7.923274">
        <ele>298.215963</ele>
        <time>2026-08-24T19:10:44.306Z</time>
      </trkpt>
      <trkpt lat="48.154634" lon="7.923339">
        <ele>298.777330</ele>
        <time>2026-08-24T19:10:50.233Z</time>
      </trkpt>
      <trkpt lat="48.155137" lon="7.923552">
        <ele>299.727681</ele>
        <time>2026-08-24T19:11:03.691Z</time>
      </trkpt>
      <trkpt lat="48.155206" lon="7.923577">
        <ele>299.856750</ele>
        <time>2026-08-24T19:11:05.453Z</time>
      </trkpt>
      <trkpt lat="48.155534" lon="7.923683">
        <ele>300.466823</ele>
        <time>2026-08-24T19:11:12.865Z</time>
      </trkpt>
      <trkpt lat="48.155563" lon="7.923690">
        <ele>300.520231</ele>
        <time>2026-08-24T19:11:13.451Z</time>
      </trkpt>
      <trkpt lat="48.156143" lon="7.923627">
        <ele>301.577555</ele>
        <time>2026-08-24T19:11:25.379Z</time>
      </trkpt>
      <trkpt lat="48.156357" lon="7.923670">
        <ele>301.904230</ele>
        <time>2026-08-24T19:11:29.613Z</time>
      </trkpt>
      <trkpt lat="48.156378" lon="7.923682">
        <ele>301.894238</ele>
        <time>2026-08-24T19:11:30.033Z</time>
      </trkpt>
      <trkpt lat="48.156515" lon="7.923760">
        <ele>301.829080</ele>
        <time>2026-08-24T19:11:32.536Z</time>
      </trkpt>
      <trkpt lat="48.156627" lon="7.923860">
        <ele>301.771120</ele>
        <time>2026-08-24T19:11:34.416Z</time>
      </trkpt>
      <trkpt lat="48.156673" lon="7.923926">
        <ele>301.742809</ele>
        <time>2026-08-24T19:11:35.292Z</time>
      </trkpt>
      <trkpt lat="48.156732" lon="7.924011">
        <ele>301.706426</ele>
        <time>2026-08-24T19:11:36.300Z</time>
      </trkpt>
      <trkpt lat="48.156762" lon="7.924062">
        <ele>301.686259</ele>
        <time>2026-08-24T19:11:36.873Z</time>
      </trkpt>
      <trkpt lat="48.157024" lon="7.924639">
        <ele>301.479238</ele>
        <time>2026-08-24T19:11:42.513Z</time>
      </trkpt>
      <trkpt lat="48.157135" lon="7.924766">
        <ele>301.417153</ele>
        <time>2026-08-24T19:11:44.126Z</time>
      </trkpt>
      <trkpt lat="48.157315" lon="7.924844">
        <ele>301.333846</ele>
        <time>2026-08-24T19:11:46.372Z</time>
      </trkpt>
      <trkpt lat="48.157468" lon="7.924801">
        <ele>301.264635</ele>
        <time>2026-08-24T19:11:48.484Z</time>
      </trkpt>
      <trkpt lat="48.157592" lon="7.924675">
        <ele>301.198031</ele>
        <time>2026-08-24T19:11:50.767Z</time>
      </trkpt>
      <trkpt lat="48.157740" lon="7.924375">
        <ele>301.077269</ele>
        <time>2026-08-24T19:11:54.444Z</time>
      </trkpt>
      <trkpt lat="48.157826" lon="7.924210">
        <ele>300.994345</ele>
        <time>2026-08-24T19:11:56.192Z</time>
      </trkpt>
      <trkpt lat="48.157916" lon="7.924101">
        <ele>300.925658</ele>
        <time>2026-08-24T19:11:57.526Z</time>
      </trkpt>
      <trkpt lat="48.158050" lon="7.924069">
        <ele>300.845104</ele>
        <time>2026-08-24T19:11:59.067Z</time>
      </trkpt>
      <trkpt lat="48.158148" lon="7.924116">
        <ele>300.784020</ele>
        <time>2026-08-24T19:12:00.240Z</time>
      </trkpt>
      <trkpt lat="48.158586" lon="7.924509">
        <ele>300.480979</ele>
        <time>2026-08-24T19:12:06.756Z</time>
      </trkpt>
      <trkpt lat="48.159445" lon="7.924821">
        <ele>300.050706</ele>
        <time>2026-08-24T19:12:19.533Z</time>
      </trkpt>
      <trkpt lat="48.159646" lon="7.924857">
        <ele>300.052009</ele>
        <time>2026-08-24T19:12:22.217Z</time>
      </trkpt>
      <trkpt lat="48.159913" lon="7.924700">
        <ele>300.053854</ele>
        <time>2026-08-24T19:12:25.799Z</time>
      </trkpt>
      <trkpt lat="48.160344" lon="7.924418">
        <ele>300.056880</ele>
        <time>2026-08-24T19:12:31.893Z</time>
      </trkpt>
      <trkpt lat="48.161343" lon="7.923775">
        <ele>301.028877</ele>
        <time>2026-08-24T19:12:50.906Z</time>
      </trkpt>
      <trkpt lat="48.162033" lon="7.923428">
        <ele>302.765946</ele>
        <time>2026-08-24T19:13:08.161Z</time>
      </trkpt>
      <trkpt lat="48.162636" lon="7.923176">
        <ele>304.260048</ele>
        <time>2026-08-24T19:13:26.712Z</time>
      </trkpt>
      <trkpt lat="48.163349" lon="7.922908">
        <ele>306.305579</ele>
        <time>2026-08-24T19:13:49.042Z</time>
      </trkpt>
      <trkpt lat="48.163658" lon="7.922740">
        <ele>307.227639</ele>
        <time>2026-08-24T19:13:57.179Z</time>
      </trkpt>
      <trkpt lat="48.163895" lon="7.922525">
        <ele>308.004719</ele>
        <time>2026-08-24T19:14:04.449Z</time>
      </trkpt>
      <trkpt lat="48.164126" lon="7.922197">
        <ele>308.897228</ele>
        <time>2026-08-24T19:14:12.555Z</time>
      </trkpt>
      <trkpt lat="48.164334" lon="7.921800">
        <ele>309.481153</ele>
        <time>2026-08-24T19:14:19.658Z</time>
      </trkpt>
      <trkpt lat="48.164472" lon="7.921560">
        <ele>309.590191</ele>
        <time>2026-08-24T19:14:23.407Z</time>
      </trkpt>
      <trkpt lat="48.164623" lon="7.921374">
        <ele>309.691014</ele>
        <time>2026-08-24T19:14:26.414Z</time>
      </trkpt>
      <trkpt lat="48.164752" lon="7.921263">
        <ele>309.767748</ele>
        <time>2026-08-24T19:14:28.564Z</time>
      </trkpt>
      <trkpt lat="48.164974" lon="7.921136">
        <ele>309.890335</ele>
        <time>2026-08-24T19:14:31.838Z</time>
      </trkpt>
      <trkpt lat="48.165187" lon="7.920909">
        <ele>310.025157</ele>
        <time>2026-08-24T19:14:35.745Z</time>
      </trkpt>
      <trkpt lat="48.165512" lon="7.920469">
        <ele>310.251070</ele>
        <time>2026-08-24T19:14:43.271Z</time>
      </trkpt>
      <trkpt lat="48.166295" lon="7.920107">
        <ele>311.359382</ele>
        <time>2026-08-24T19:14:55.479Z</time>
      </trkpt>
      <trkpt lat="48.166532" lon="7.919914">
        <ele>311.774240</ele>
        <time>2026-08-24T19:15:00.616Z</time>
      </trkpt>
      <trkpt lat="48.167280" lon="7.919187">
        <ele>313.241000</ele>
        <time>2026-08-24T19:15:22.113Z</time>
      </trkpt>
      <trkpt lat="48.167572" lon="7.918815">
        <ele>314.936900</ele>
        <time>2026-08-24T19:15:34.153Z</time>
      </trkpt>
      <trkpt lat="48.167670" lon="7.918619">
        <ele>315.660002</ele>
        <time>2026-08-24T19:15:39.799Z</time>
      </trkpt>
      <trkpt lat="48.167814" lon="7.918183">
        <ele>317.096187</ele>
        <time>2026-08-24T19:15:51.662Z</time>
      </trkpt>
      <trkpt lat="48.167941" lon="7.917278">
        <ele>319.826133</ele>
        <time>2026-08-24T19:16:13.936Z</time>
      </trkpt>
      <trkpt lat="48.168023" lon="7.916541">
        <ele>321.362432</ele>
        <time>2026-08-24T19:16:29.947Z</time>
      </trkpt>
      <trkpt lat="48.168044" lon="7.916334">
        <ele>321.556889</ele>
        <time>2026-08-24T19:16:33.916Z</time>
      </trkpt>
      <trkpt lat="48.168136" lon="7.915457">
        <ele>322.381393</ele>
        <time>2026-08-24T19:16:47.818Z</time>
      </trkpt>
      <trkpt lat="48.168136" lon="7.915457">
        <ele>322.381393</ele>
        <time>2026-08-24T19:16:47.822Z</time>
      </trkpt>
      <trkpt lat="48.168139" lon="7.915478">
        <ele>322.401339</ele>
        <time>2026-08-24T19:16:48.088Z</time>
      </trkpt>
      <trkpt lat="48.168182" lon="7.915413">
        <ele>322.486365</ele>
        <time>2026-08-24T19:16:49.219Z</time>
      </trkpt>
      <trkpt lat="48.168204" lon="7.915370">
        <ele>322.536697</ele>
        <time>2026-08-24T19:16:49.889Z</time>
      </trkpt>
      <trkpt lat="48.168225" lon="7.915306">
        <ele>322.602939</ele>
        <time>2026-08-24T19:16:50.771Z</time>
      </trkpt>
      <trkpt lat="48.168247" lon="7.915177">
        <ele>322.726599</ele>
        <time>2026-08-24T19:16:52.417Z</time>
      </trkpt>
      <trkpt lat="48.168290" lon="7.915006">
        <ele>322.896323</ele>
        <time>2026-08-24T19:16:54.676Z</time>
      </trkpt>
      <trkpt lat="48.168333" lon="7.914748">
        <ele>323.143301</ele>
        <time>2026-08-24T19:16:57.963Z</time>
      </trkpt>
      <trkpt lat="48.168360" lon="7.914664">
        <ele>323.229900</ele>
        <time>2026-08-24T19:16:59.115Z</time>
      </trkpt>
      <trkpt lat="48.168333" lon="7.914748">
        <ele>323.316500</ele>
        <time>2026-08-24T19:17:00.268Z</time>
      </trkpt>
      <trkpt lat="48.168290" lon="7.915006">
        <ele>323.564668</ele>
        <time>2026-08-24T19:17:03.555Z</time>
      </trkpt>
      <trkpt lat="48.168247" lon="7.915177">
        <ele>323.789279</ele>
        <time>2026-08-24T19:17:05.814Z</time>
      </trkpt>
      <trkpt lat="48.168225" lon="7.915306">
        <ele>323.952929</ele>
        <time>2026-08-24T19:17:07.460Z</time>
      </trkpt>
      <trkpt lat="48.168204" lon="7.915370">
        <ele>324.040593</ele>
        <time>2026-08-24T19:17:08.342Z</time>
      </trkpt>
      <trkpt lat="48.168182" lon="7.915413">
        <ele>324.107201</ele>
        <time>2026-08-24T19:17:09.012Z</time>
      </trkpt>
      <trkpt lat="48.168139" lon="7.915478">
        <ele>324.219724</ele>
        <time>2026-08-24T19:17:10.143Z</time>
      </trkpt>
      <trkpt lat="48.168139" lon="7.915349">
        <ele>324.378273</ele>
        <time>2026-08-24T19:17:11.738Z</time>
      </trkpt>
      <trkpt lat="48.168161" lon="7.914963">
        <ele>324.854419</ele>
        <time>2026-08-24T19:17:16.526Z</time>
      </trkpt>
      <trkpt lat="48.168204" lon="7.914834">
        <ele>325.031667</ele>
        <time>2026-08-24T19:17:18.309Z</time>
      </trkpt>
      <trkpt lat="48.168290" lon="7.914491">
        <ele>325.482040</ele>
        <time>2026-08-24T19:17:22.838Z</time>
      </trkpt>
      <trkpt lat="48.168375" lon="7.914233">
        <ele>325.835715</ele>
        <time>2026-08-24T19:17:26.396Z</time>
      </trkpt>
      <trkpt lat="48.168526" lon="7.913804">
        <ele>326.431902</ele>
        <time>2026-08-24T19:17:32.397Z</time>
      </trkpt>
      <trkpt lat="48.168514" lon="7.913795">
        <ele>326.456628</ele>
        <time>2026-08-24T19:17:32.647Z</time>
      </trkpt>
      <trkpt lat="48.168675" lon="7.913301">
        <ele>327.696509</ele>
        <time>2026-08-24T19:17:47.709Z</time>
      </trkpt>
      <trkpt lat="48.168698" lon="7.913198">
        <ele>328.121875</ele>
        <time>2026-08-24T19:17:50.971Z</time>
      </trkpt>
      <trkpt lat="48.168716" lon="7.913094">
        <ele>328.542640</ele>
        <time>2026-08-24T19:17:53.753Z</time>
      </trkpt>
      <trkpt lat="48.168736" lon="7.912903">
        <ele>329.299777</ele>
        <time>2026-08-24T19:17:58.928Z</time>
      </trkpt>
      <trkpt lat="48.168740" lon="7.912669">
        <ele>330.216444</ele>
        <time>2026-08-24T19:18:04.420Z</time>
      </trkpt>
      <trkpt lat="48.168691" lon="7.912133">
        <ele>332.335098</ele>
        <time>2026-08-24T19:18:17.177Z</time>
      </trkpt>
      <trkpt lat="48.168771" lon="7.911921">
        <ele>333.288989</ele>
        <time>2026-08-24T19:18:23.622Z</time>
      </trkpt>
      <trkpt lat="48.168849" lon="7.911837">
        <ele>333.852877</ele>
        <time>2026-08-24T19:18:27.897Z</time>
      </trkpt>
      <trkpt lat="48.168932" lon="7.911799">
        <ele>334.362444</ele>
        <time>2026-08-24T19:18:32.054Z</time>
      </trkpt>
      <trkpt lat="48.168999" lon="7.911805">
        <ele>334.756552</ele>
        <time>2026-08-24T19:18:35.091Z</time>
      </trkpt>
      <trkpt lat="48.169051" lon="7.911838">
        <ele>335.088105</ele>
        <time>2026-08-24T19:18:37.678Z</time>
      </trkpt>
      <trkpt lat="48.169088" lon="7.911866">
        <ele>335.331462</ele>
        <time>2026-08-24T19:18:39.764Z</time>
      </trkpt>
      <trkpt lat="48.169120" lon="7.911902">
        <ele>335.566365</ele>
        <time>2026-08-24T19:18:41.527Z</time>
      </trkpt>
      <trkpt lat="48.169149" lon="7.911943">
        <ele>335.800405</ele>
        <time>2026-08-24T19:18:43.023Z</time>
      </trkpt>
      <trkpt lat="48.169195" lon="7.912040">
        <ele>336.266502</ele>
        <time>2026-08-24T19:18:46.181Z</time>
      </trkpt>
      <trkpt lat="48.169218" lon="7.912095">
        <ele>336.520723</ele>
        <time>2026-08-24T19:18:47.712Z</time>
      </trkpt>
      <trkpt lat="48.169241" lon="7.912146">
        <ele>336.761817</ele>
        <time>2026-08-24T19:18:49.129Z</time>
      </trkpt>
      <trkpt lat="48.169440" lon="7.912528">
        <ele>339.027674</ele>
        <time>2026-08-24T19:18:59.951Z</time>
      </trkpt>
      <trkpt lat="48.169548" lon="7.912638">
        <ele>340.024477</ele>
        <time>2026-08-24T19:19:03.833Z</time>
      </trkpt>
      <trkpt lat="48.169736" lon="7.912759">
        <ele>341.586464</ele>
        <time>2026-08-24T19:19:11.483Z</time>
      </trkpt>
      <trkpt lat="48.169891" lon="7.912831">
        <ele>342.825345</ele>
        <time>2026-08-24T19:19:17.860Z</time>
      </trkpt>
      <trkpt lat="48.170087" lon="7.912857">
        <ele>344.327610</ele>
        <time>2026-08-24T19:19:26.930Z</time>
      </trkpt>
      <trkpt lat="48.171468" lon="7.912882">
        <ele>354.014927</ele>
        <time>2026-08-24T19:20:39.950Z</time>
      </trkpt>
      <trkpt lat="48.171867" lon="7.912912">
        <ele>356.359283</ele>
        <time>2026-08-24T19:20:56.682Z</time>
      </trkpt>
      <trkpt lat="48.173287" lon="7.913207">
        <ele>363.700848</ele>
        <time>2026-08-24T19:21:37.633Z</time>
      </trkpt>
      <trkpt lat="48.173585" lon="7.913164">
        <ele>364.840642</ele>
        <time>2026-08-24T19:21:45.879Z</time>
      </trkpt>
      <trkpt lat="48.173816" lon="7.913191">
        <ele>365.722778</ele>
        <time>2026-08-24T19:21:53.205Z</time>
      </trkpt>
      <trkpt lat="48.174004" lon="7.913255">
        <ele>366.456749</ele>
        <time>2026-08-24T19:21:59.453Z</time>
      </trkpt>
      <trkpt lat="48.174297" lon="7.913344">
        <ele>367.594923</ele>
        <time>2026-08-24T19:22:09.149Z</time>
      </trkpt>
      <trkpt lat="48.174753" lon="7.913497">
        <ele>368.943834</ele>
        <time>2026-08-24T19:22:24.388Z</time>
      </trkpt>
      <trkpt lat="48.175069" lon="7.913599">
        <ele>369.515699</ele>
        <time>2026-08-24T19:22:33.644Z</time>
      </trkpt>
      <trkpt lat="48.175843" lon="7.913752">
        <ele>370.896888</ele>
        <time>2026-08-24T19:22:50.811Z</time>
      </trkpt>
      <trkpt lat="48.176198" lon="7.913828">
        <ele>371.531314</ele>
        <time>2026-08-24T19:22:55.345Z</time>
      </trkpt>
      <trkpt lat="48.176389" lon="7.913903">
        <ele>371.781624</ele>
        <time>2026-08-24T19:22:57.793Z</time>
      </trkpt>
      <trkpt lat="48.176950" lon="7.914263">
        <ele>372.026473</ele>
        <time>2026-08-24T19:23:06.041Z</time>
      </trkpt>
      <trkpt lat="48.177099" lon="7.914320">
        <ele>372.088175</ele>
        <time>2026-08-24T19:23:08.413Z</time>
      </trkpt>
      <trkpt lat="48.177347" lon="7.914415">
        <ele>372.190882</ele>
        <time>2026-08-24T19:23:12.610Z</time>
      </trkpt>
      <trkpt lat="48.178095" lon="7.914547">
        <ele>372.530809</ele>
        <time>2026-08-24T19:23:26.866Z</time>
      </trkpt>
      <trkpt lat="48.178282" lon="7.914703">
        <ele>372.789023</ele>
        <time>2026-08-24T19:23:31.486Z</time>
      </trkpt>
      <trkpt lat="48.178421" lon="7.914899">
        <ele>373.019252</ele>
        <time>2026-08-24T19:23:35.574Z</time>
      </trkpt>
      <trkpt lat="48.178796" lon="7.915586">
        <ele>373.733627</ele>
        <time>2026-08-24T19:23:47.759Z</time>
      </trkpt>
      <trkpt lat="48.179003" lon="7.915904">
        <ele>374.091206</ele>
        <time>2026-08-24T19:23:53.628Z</time>
      </trkpt>
      <trkpt lat="48.179200" lon="7.916133">
        <ele>374.391973</ele>
        <time>2026-08-24T19:23:58.458Z</time>
      </trkpt>
      <trkpt lat="48.179977" lon="7.916946">
        <ele>374.596901</ele>
        <time>2026-08-24T19:24:15.173Z</time>
      </trkpt>
      <trkpt lat="48.180267" lon="7.917236">
        <ele>374.574323</ele>
        <time>2026-08-24T19:24:20.129Z</time>
      </trkpt>
      <trkpt lat="48.180673" lon="7.917522">
        <ele>374.545268</ele>
        <time>2026-08-24T19:24:25.380Z</time>
      </trkpt>
      <trkpt lat="48.181074" lon="7.917919">
        <ele>374.723364</ele>
        <time>2026-08-24T19:24:31.273Z</time>
      </trkpt>
      <trkpt lat="48.181148" lon="7.917985">
        <ele>374.800819</ele>
        <time>2026-08-24T19:24:32.415Z</time>
      </trkpt>
      <trkpt lat="48.181286" lon="7.918096">
        <ele>374.941695</ele>
        <time>2026-08-24T19:24:35.067Z</time>
      </trkpt>
      <trkpt lat="48.181708" lon="7.918345">
        <ele>375.349663</ele>
        <time>2026-08-24T19:24:43.007Z</time>
      </trkpt>
      <trkpt lat="48.181920" lon="7.918458">
        <ele>375.552070</ele>
        <time>2026-08-24T19:24:47.293Z</time>
      </trkpt>
      <trkpt lat="48.182634" lon="7.919063">
        <ele>376.472650</ele>
        <time>2026-08-24T19:25:06.103Z</time>
      </trkpt>
      <trkpt lat="48.182705" lon="7.919202">
        <ele>376.711467</ele>
        <time>2026-08-24T19:25:09.259Z</time>
      </trkpt>
      <trkpt lat="48.182896" lon="7.919821">
        <ele>377.641729</ele>
        <time>2026-08-24T19:25:20.205Z</time>
      </trkpt>
      <trkpt lat="48.182990" lon="7.920188">
        <ele>378.177933</ele>
        <time>2026-08-24T19:25:32.330Z</time>
      </trkpt>
      <trkpt lat="48.182995" lon="7.920207">
        <ele>378.205792</ele>
        <time>2026-08-24T19:25:32.977Z</time>
      </trkpt>
      <trkpt lat="48.183036" lon="7.920834">
        <ele>379.065043</ele>
        <time>2026-08-24T19:25:51.785Z</time>
      </trkpt>
      <trkpt lat="48.183106" lon="7.921041">
        <ele>379.381600</ele>
        <time>2026-08-24T19:25:58.549Z</time>
      </trkpt>
      <trkpt lat="48.183235" lon="7.921224">
        <ele>379.744813</ele>
        <time>2026-08-24T19:26:06.218Z</time>
      </trkpt>
      <trkpt lat="48.183235" lon="7.921224">
        <ele>379.744813</ele>
        <time>2026-08-24T19:26:06.223Z</time>
      </trkpt>
      <trkpt lat="48.183246" lon="7.921207">
        <ele>379.777122</ele>
        <time>2026-08-24T19:26:06.517Z</time>
      </trkpt>
      <trkpt lat="48.183310" lon="7.921293">
        <ele>380.042977</ele>
        <time>2026-08-24T19:26:08.109Z</time>
      </trkpt>
      <trkpt lat="48.183353" lon="7.921357">
        <ele>380.254523</ele>
        <time>2026-08-24T19:26:09.232Z</time>
      </trkpt>
      <trkpt lat="48.183396" lon="7.921443">
        <ele>380.504803</ele>
        <time>2026-08-24T19:26:10.560Z</time>
      </trkpt>
      <trkpt lat="48.183396" lon="7.921529">
        <ele>380.705037</ele>
        <time>2026-08-24T19:26:11.623Z</time>
      </trkpt>
      <trkpt lat="48.183396" lon="7.921615">
        <ele>380.905270</ele>
        <time>2026-08-24T19:26:12.686Z</time>
      </trkpt>
      <trkpt lat="48.183396" lon="7.921700">
        <ele>381.103175</ele>
        <time>2026-08-24T19:26:13.736Z</time>
      </trkpt>
      <trkpt lat="48.183396" lon="7.921615">
        <ele>381.301081</ele>
        <time>2026-08-24T19:26:14.785Z</time>
      </trkpt>
      <trkpt lat="48.183396" lon="7.921529">
        <ele>381.501314</ele>
        <time>2026-08-24T19:26:15.850Z</time>
      </trkpt>
      <trkpt lat="48.183396" lon="7.921443">
        <ele>381.701547</ele>
        <time>2026-08-24T19:26:16.913Z</time>
      </trkpt>
      <trkpt lat="48.183353" lon="7.921271">
        <ele>382.129240</ele>
        <time>2026-08-24T19:26:19.183Z</time>
      </trkpt>
      <trkpt lat="48.183389" lon="7.921372">
        <ele>382.395891</ele>
        <time>2026-08-24T19:26:20.600Z</time>
      </trkpt>
      <trkpt lat="48.183211" lon="7.920820">
        <ele>383.823531</ele>
        <time>2026-08-24T19:26:31.481Z</time>
      </trkpt>
      <trkpt lat="48.183261" lon="7.920738">
        <ele>384.082251</ele>
        <time>2026-08-24T19:26:33.575Z</time>
      </trkpt>
      <trkpt lat="48.183262" lon="7.920095">
        <ele>385.579353</ele>
        <time>2026-08-24T19:26:47.342Z</time>
      </trkpt>
      <trkpt lat="48.183115" lon="7.919095">
        <ele>390.703469</ele>
        <time>2026-08-24T19:27:16.794Z</time>
      </trkpt>
      <trkpt lat="48.182922" lon="7.918611">
        <ele>393.953690</ele>
        <time>2026-08-24T19:27:36.833Z</time>
      </trkpt>
      <trkpt lat="48.182943" lon="7.917842">
        <ele>398.389368</ele>
        <time>2026-08-24T19:28:06.312Z</time>
      </trkpt>
      <trkpt lat="48.182674" lon="7.916832">
        <ele>404.168325</ele>
        <time>2026-08-24T19:28:44.640Z</time>
      </trkpt>
      <trkpt lat="48.182637" lon="7.916289">
        <ele>406.801833</ele>
        <time>2026-08-24T19:29:01.379Z</time>
      </trkpt>
      <trkpt lat="48.182651" lon="7.915756">
        <ele>409.375444</ele>
        <time>2026-08-24T19:29:16.119Z</time>
      </trkpt>
      <trkpt lat="48.182775" lon="7.914808">
        <ele>414.036527</ele>
        <time>2026-08-24T19:29:40.404Z</time>
      </trkpt>
      <trkpt lat="48.182780" lon="7.914576">
        <ele>415.118268</ele>
        <time>2026-08-24T19:29:45.971Z</time>
      </trkpt>
      <trkpt lat="48.182757" lon="7.914419">
        <ele>415.833086</ele>
        <time>2026-08-24T19:29:49.887Z</time>
      </trkpt>
      <trkpt lat="48.182675" lon="7.914136">
        <ele>417.205259</ele>
        <time>2026-08-24T19:29:57.849Z</time>
      </trkpt>
      <trkpt lat="48.182095" lon="7.913003">
        <ele>423.557342</ele>
        <time>2026-08-24T19:30:40.191Z</time>
      </trkpt>
      <trkpt lat="48.181987" lon="7.912729">
        <ele>424.972794</ele>
        <time>2026-08-24T19:30:49.908Z</time>
      </trkpt>
      <trkpt lat="48.181870" lon="7.912152">
        <ele>427.135637</ele>
        <time>2026-08-24T19:31:06.368Z</time>
      </trkpt>
      <trkpt lat="48.181796" lon="7.911602">
        <ele>428.322397</ele>
        <time>2026-08-24T19:31:19.887Z</time>
      </trkpt>
      <trkpt lat="48.181821" lon="7.911448">
        <ele>428.657639</ele>
        <time>2026-08-24T19:31:23.341Z</time>
      </trkpt>
      <trkpt lat="48.181880" lon="7.911287">
        <ele>429.046215</ele>
        <time>2026-08-24T19:31:27.127Z</time>
      </trkpt>
      <trkpt lat="48.181970" lon="7.911165">
        <ele>429.431045</ele>
        <time>2026-08-24T19:31:30.617Z</time>
      </trkpt>
      <trkpt lat="48.181868" lon="7.910970">
        <ele>429.955263</ele>
        <time>2026-08-24T19:31:35.118Z</time>
      </trkpt>
      <trkpt lat="48.181624" lon="7.910455">
        <ele>431.291540</ele>
        <time>2026-08-24T19:31:44.551Z</time>
      </trkpt>
      <trkpt lat="48.181465" lon="7.910072">
        <ele>432.245818</ele>
        <time>2026-08-24T19:31:49.250Z</time>
      </trkpt>
      <trkpt lat="48.181353" lon="7.909697">
        <ele>432.152563</ele>
        <time>2026-08-24T19:31:52.989Z</time>
      </trkpt>
      <trkpt lat="48.181126" lon="7.908283">
        <ele>431.252394</ele>
        <time>2026-08-24T19:32:05.008Z</time>
      </trkpt>
      <trkpt lat="48.181028" lon="7.907863">
        <ele>430.976987</ele>
        <time>2026-08-24T19:32:08.430Z</time>
      </trkpt>
      <trkpt lat="48.180546" lon="7.906378">
        <ele>429.414566</ele>
        <time>2026-08-24T19:32:20.686Z</time>
      </trkpt>
      <trkpt lat="48.180328" lon="7.905616">
        <ele>428.529779</ele>
        <time>2026-08-24T19:32:26.720Z</time>
      </trkpt>
      <trkpt lat="48.180276" lon="7.905361">
        <ele>428.245236</ele>
        <time>2026-08-24T19:32:28.709Z</time>
      </trkpt>
      <trkpt lat="48.180257" lon="7.905171">
        <ele>428.040225</ele>
        <time>2026-08-24T19:32:30.224Z</time>
      </trkpt>
      <trkpt lat="48.180263" lon="7.904857">
        <ele>427.722848</ele>
        <time>2026-08-24T19:32:32.879Z</time>
      </trkpt>
      <trkpt lat="48.180324" lon="7.904304">
        <ele>427.215498</ele>
        <time>2026-08-24T19:32:38.289Z</time>
      </trkpt>
      <trkpt lat="48.180424" lon="7.903915">
        <ele>426.838134</ele>
        <time>2026-08-24T19:32:42.338Z</time>
      </trkpt>
      <trkpt lat="48.180540" lon="7.903590">
        <ele>426.504467</ele>
        <time>2026-08-24T19:32:45.590Z</time>
      </trkpt>
      <trkpt lat="48.180566" lon="7.903534">
        <ele>426.442702</ele>
        <time>2026-08-24T19:32:46.126Z</time>
      </trkpt>
      <trkpt lat="48.180693" lon="7.903283">
        <ele>426.157505</ele>
        <time>2026-08-24T19:32:48.680Z</time>
      </trkpt>
      <trkpt lat="48.180972" lon="7.902841">
        <ele>425.606598</ele>
        <time>2026-08-24T19:32:53.169Z</time>
      </trkpt>
      <trkpt lat="48.181100" lon="7.902683">
        <ele>425.381557</ele>
        <time>2026-08-24T19:32:54.889Z</time>
      </trkpt>
      <trkpt lat="48.181424" lon="7.902307">
        <ele>424.095392</ele>
        <time>2026-08-24T19:32:58.963Z</time>
      </trkpt>
      <trkpt lat="48.182065" lon="7.901654">
        <ele>421.660872</ele>
        <time>2026-08-24T19:33:06.335Z</time>
      </trkpt>
      <trkpt lat="48.183496" lon="7.900225">
        <ele>419.185302</ele>
        <time>2026-08-24T19:33:25.828Z</time>
      </trkpt>
      <trkpt lat="48.183567" lon="7.900160">
        <ele>419.144287</ele>
        <time>2026-08-24T19:33:27.224Z</time>
      </trkpt>
      <trkpt lat="48.184519" lon="7.899443">
        <ele>419.806623</ele>
        <time>2026-08-24T19:33:48.998Z</time>
      </trkpt>
      <trkpt lat="48.184812" lon="7.899259">
        <ele>420.480178</ele>
        <time>2026-08-24T19:33:56.582Z</time>
      </trkpt>
      <trkpt lat="48.185267" lon="7.899060">
        <ele>421.485168</ele>
        <time>2026-08-24T19:34:08.225Z</time>
      </trkpt>
      <trkpt lat="48.185651" lon="7.898980">
        <ele>422.307240</ele>
        <time>2026-08-24T19:34:18.354Z</time>
      </trkpt>
      <trkpt lat="48.186392" lon="7.898892">
        <ele>423.394887</ele>
        <time>2026-08-24T19:34:36.680Z</time>
      </trkpt>
      <trkpt lat="48.186554" lon="7.898843">
        <ele>423.605725</ele>
        <time>2026-08-24T19:34:40.053Z</time>
      </trkpt>
      <trkpt lat="48.186638" lon="7.898772">
        <ele>423.728735</ele>
        <time>2026-08-24T19:34:41.886Z</time>
      </trkpt>
      <trkpt lat="48.186701" lon="7.898661">
        <ele>423.852727</ele>
        <time>2026-08-24T19:34:43.766Z</time>
      </trkpt>
      <trkpt lat="48.186744" lon="7.898504">
        <ele>423.997096</ele>
        <time>2026-08-24T19:34:45.851Z</time>
      </trkpt>
      <trkpt lat="48.186732" lon="7.898249">
        <ele>424.214531</ele>
        <time>2026-08-24T19:34:48.913Z</time>
      </trkpt>
      <trkpt lat="48.186556" lon="7.897687">
        <ele>424.742663</ele>
        <time>2026-08-24T19:34:55.795Z</time>
      </trkpt>
      <trkpt lat="48.186377" lon="7.897309">
        <ele>425.008435</ele>
        <time>2026-08-24T19:35:00.635Z</time>
      </trkpt>
      <trkpt lat="48.185901" lon="7.896454">
        <ele>425.298484</ele>
        <time>2026-08-24T19:35:11.194Z</time>
      </trkpt>
      <trkpt lat="48.185378" lon="7.895445">
        <ele>425.631284</ele>
        <time>2026-08-24T19:35:26.288Z</time>
      </trkpt>
      <trkpt lat="48.185077" lon="7.894950">
        <ele>426.002412</ele>
        <time>2026-08-24T19:35:34.381Z</time>
      </trkpt>
      <trkpt lat="48.184678" lon="7.894452">
        <ele>426.468231</ele>
        <time>2026-08-24T19:35:43.967Z</time>
      </trkpt>
      <trkpt lat="48.184289" lon="7.893997">
        <ele>426.910918</ele>
        <time>2026-08-24T19:35:53.472Z</time>
      </trkpt>
      <trkpt lat="48.183743" lon="7.893297">
        <ele>427.356456</ele>
        <time>2026-08-24T19:36:06.743Z</time>
      </trkpt>
      <trkpt lat="48.183602" lon="7.893090">
        <ele>427.410819</ele>
        <time>2026-08-24T19:36:10.031Z</time>
      </trkpt>
      <trkpt lat="48.183496" lon="7.892930">
        <ele>427.452255</ele>
        <time>2026-08-24T19:36:12.408Z</time>
      </trkpt>
      <trkpt lat="48.183219" lon="7.892478">
        <ele>427.565037</ele>
        <time>2026-08-24T19:36:18.221Z</time>
      </trkpt>
      <trkpt lat="48.182964" lon="7.892108">
        <ele>427.662795</ele>
        <time>2026-08-24T19:36:23.223Z</time>
      </trkpt>
      <trkpt lat="48.182851" lon="7.891978">
        <ele>427.702034</ele>
        <time>2026-08-24T19:36:25.289Z</time>
      </trkpt>
      <trkpt lat="48.182473" lon="7.891556">
        <ele>428.020690</ele>
        <time>2026-08-24T19:36:32.365Z</time>
      </trkpt>
      <trkpt lat="48.181632" lon="7.890531">
        <ele>429.147996</ele>
        <time>2026-08-24T19:36:53.482Z</time>
      </trkpt>
      <trkpt lat="48.181453" lon="7.890307">
        <ele>429.390509</ele>
        <time>2026-08-24T19:36:58.765Z</time>
      </trkpt>
      <trkpt lat="48.181431" lon="7.890278">
        <ele>429.420978</ele>
        <time>2026-08-24T19:36:59.429Z</time>
      </trkpt>
      <trkpt lat="48.180988" lon="7.889753">
        <ele>429.792206</ele>
        <time>2026-08-24T19:37:11.379Z</time>
      </trkpt>
      <trkpt lat="48.180443" lon="7.889039">
        <ele>430.109337</ele>
        <time>2026-08-24T19:37:23.736Z</time>
      </trkpt>
      <trkpt lat="48.180167" lon="7.888573">
        <ele>430.291467</ele>
        <time>2026-08-24T19:37:29.534Z</time>
      </trkpt>
      <trkpt lat="48.179911" lon="7.888034">
        <ele>430.454738</ele>
        <time>2026-08-24T19:37:35.516Z</time>
      </trkpt>
      <trkpt lat="48.179797" lon="7.887705">
        <ele>430.510246</ele>
        <time>2026-08-24T19:37:38.707Z</time>
      </trkpt>
      <trkpt lat="48.179662" lon="7.887101">
        <ele>430.605617</ele>
        <time>2026-08-24T19:37:44.137Z</time>
      </trkpt>
      <trkpt lat="48.179556" lon="7.886549">
        <ele>430.691617</ele>
        <time>2026-08-24T19:37:50.232Z</time>
      </trkpt>
      <trkpt lat="48.179459" lon="7.886043">
        <ele>430.770440</ele>
        <time>2026-08-24T19:37:56.691Z</time>
      </trkpt>
      <trkpt lat="48.179372" lon="7.885583">
        <ele>430.809371</ele>
        <time>2026-08-24T19:38:03.537Z</time>
      </trkpt>
      <trkpt lat="48.179575" lon="7.885402">
        <ele>430.747524</ele>
        <time>2026-08-24T19:38:09.146Z</time>
      </trkpt>
      <trkpt lat="48.180354" lon="7.884364">
        <ele>430.474631</ele>
        <time>2026-08-24T19:38:26.007Z</time>
      </trkpt>
      <trkpt lat="48.180699" lon="7.883950">
        <ele>430.358921</ele>
        <time>2026-08-24T19:38:30.706Z</time>
      </trkpt>
      <trkpt lat="48.180882" lon="7.883799">
        <ele>429.798720</ele>
        <time>2026-08-24T19:38:32.848Z</time>
      </trkpt>
      <trkpt lat="48.181287" lon="7.883618">
        <ele>428.606024</ele>
        <time>2026-08-24T19:38:37.097Z</time>
      </trkpt>
      <trkpt lat="48.181437" lon="7.883546">
        <ele>428.161528</ele>
        <time>2026-08-24T19:38:38.654Z</time>
      </trkpt>
      <trkpt lat="48.181692" lon="7.883354">
        <ele>427.356240</ele>
        <time>2026-08-24T19:38:41.548Z</time>
      </trkpt>
      <trkpt lat="48.182645" lon="7.882457">
        <ele>423.466314</ele>
        <time>2026-08-24T19:38:53.451Z</time>
      </trkpt>
      <trkpt lat="48.182755" lon="7.882344">
        <ele>422.845347</ele>
        <time>2026-08-24T19:38:54.785Z</time>
      </trkpt>
      <trkpt lat="48.182798" lon="7.882253">
        <ele>422.498991</ele>
        <time>2026-08-24T19:38:55.524Z</time>
      </trkpt>
      <trkpt lat="48.182840" lon="7.882090">
        <ele>421.956338</ele>
        <time>2026-08-24T19:38:56.657Z</time>
      </trkpt>
      <trkpt lat="48.182876" lon="7.881713">
        <ele>420.773678</ele>
        <time>2026-08-24T19:38:59.077Z</time>
      </trkpt>
      <trkpt lat="48.182974" lon="7.880527">
        <ele>417.062570</ele>
        <time>2026-08-24T19:39:06.383Z</time>
      </trkpt>
      <trkpt lat="48.183039" lon="7.880206">
        <ele>415.930894</ele>
        <time>2026-08-24T19:39:08.389Z</time>
      </trkpt>
      <trkpt lat="48.183709" lon="7.878871">
        <ele>410.213124</ele>
        <time>2026-08-24T19:39:18.661Z</time>
      </trkpt>
      <trkpt lat="48.183743" lon="7.878612">
        <ele>409.309841</ele>
        <time>2026-08-24T19:39:20.366Z</time>
      </trkpt>
      <trkpt lat="48.183578" lon="7.877498">
        <ele>406.490989</ele>
        <time>2026-08-24T19:39:28.162Z</time>
      </trkpt>
      <trkpt lat="48.183420" lon="7.876763">
        <ele>405.114586</ele>
        <time>2026-08-24T19:39:33.857Z</time>
      </trkpt>
      <trkpt lat="48.183249" lon="7.876073">
        <ele>403.802583</ele>
        <time>2026-08-24T19:39:39.145Z</time>
      </trkpt>
      <trkpt lat="48.183224" lon="7.876021">
        <ele>403.688321</ele>
        <time>2026-08-24T19:39:39.612Z</time>
      </trkpt>
      <trkpt lat="48.183202" lon="7.875982">
        <ele>403.597270</ele>
        <time>2026-08-24T19:39:39.970Z</time>
      </trkpt>
      <trkpt lat="48.182484" lon="7.875092">
        <ele>399.942647</ele>
        <time>2026-08-24T19:39:49.430Z</time>
      </trkpt>
      <trkpt lat="48.182214" lon="7.874611">
        <ele>398.078831</ele>
        <time>2026-08-24T19:39:53.435Z</time>
      </trkpt>
      <trkpt lat="48.182100" lon="7.874354">
        <ele>397.163825</ele>
        <time>2026-08-24T19:39:55.385Z</time>
      </trkpt>
      <trkpt lat="48.180566" lon="7.870550">
        <ele>381.885258</ele>
        <time>2026-08-24T19:40:22.603Z</time>
      </trkpt>
      <trkpt lat="48.180487" lon="7.870151">
        <ele>380.899079</ele>
        <time>2026-08-24T19:40:25.234Z</time>
      </trkpt>
      <trkpt lat="48.180485" lon="7.869835">
        <ele>380.150322</ele>
        <time>2026-08-24T19:40:27.298Z</time>
      </trkpt>
      <trkpt lat="48.180518" lon="7.869650">
        <ele>379.696574</ele>
        <time>2026-08-24T19:40:28.608Z</time>
      </trkpt>
      <trkpt lat="48.180722" lon="7.869013">
        <ele>378.022229</ele>
        <time>2026-08-24T19:40:34.024Z</time>
      </trkpt>
      <trkpt lat="48.180987" lon="7.868779">
        <ele>377.584389</ele>
        <time>2026-08-24T19:40:40.673Z</time>
      </trkpt>
      <trkpt lat="48.181504" lon="7.868534">
        <ele>377.107172</ele>
        <time>2026-08-24T19:40:52.472Z</time>
      </trkpt>
      <trkpt lat="48.181756" lon="7.868339">
        <ele>376.857591</ele>
        <time>2026-08-24T19:40:57.340Z</time>
      </trkpt>
      <trkpt lat="48.181900" lon="7.868156">
        <ele>376.691466</ele>
        <time>2026-08-24T19:40:59.785Z</time>
      </trkpt>
      <trkpt lat="48.181927" lon="7.868065">
        <ele>376.633013</ele>
        <time>2026-08-24T19:41:00.649Z</time>
      </trkpt>
      <trkpt lat="48.181918" lon="7.867970">
        <ele>376.576701</ele>
        <time>2026-08-24T19:41:01.328Z</time>
      </trkpt>
      <trkpt lat="48.181847" lon="7.867927">
        <ele>376.509307</ele>
        <time>2026-08-24T19:41:02.230Z</time>
      </trkpt>
      <trkpt lat="48.181750" lon="7.867937">
        <ele>376.423731</ele>
        <time>2026-08-24T19:41:03.221Z</time>
      </trkpt>
      <trkpt lat="48.181460" lon="7.867917">
        <ele>375.892340</ele>
        <time>2026-08-24T19:41:06.080Z</time>
      </trkpt>
      <trkpt lat="48.181216" lon="7.867828">
        <ele>374.419618</ele>
        <time>2026-08-24T19:41:08.432Z</time>
      </trkpt>
      <trkpt lat="48.181030" lon="7.867714">
        <ele>373.241190</ele>
        <time>2026-08-24T19:41:10.231Z</time>
      </trkpt>
      <trkpt lat="48.180752" lon="7.867407">
        <ele>371.216464</ele>
        <time>2026-08-24T19:41:13.253Z</time>
      </trkpt>
      <trkpt lat="48.180697" lon="7.867281">
        <ele>370.627543</ele>
        <time>2026-08-24T19:41:14.138Z</time>
      </trkpt>
      <trkpt lat="48.180617" lon="7.866959">
        <ele>369.283777</ele>
        <time>2026-08-24T19:41:16.172Z</time>
      </trkpt>
      <trkpt lat="48.180568" lon="7.866637">
        <ele>367.992203</ele>
        <time>2026-08-24T19:41:18.155Z</time>
      </trkpt>
      <trkpt lat="48.180391" lon="7.865078">
        <ele>363.258546</ele>
        <time>2026-08-24T19:41:28.434Z</time>
      </trkpt>
      <trkpt lat="48.180323" lon="7.864793">
        <ele>362.519646</ele>
        <time>2026-08-24T19:41:30.635Z</time>
      </trkpt>
      <trkpt lat="48.179949" lon="7.863761">
        <ele>359.652428</ele>
        <time>2026-08-24T19:41:38.770Z</time>
      </trkpt>
      <trkpt lat="48.179384" lon="7.862502">
        <ele>354.208635</ele>
        <time>2026-08-24T19:41:48.327Z</time>
      </trkpt>
      <trkpt lat="48.178674" lon="7.861066">
        <ele>347.833913</ele>
        <time>2026-08-24T19:41:59.064Z</time>
      </trkpt>
      <trkpt lat="48.178606" lon="7.860861">
        <ele>347.215267</ele>
        <time>2026-08-24T19:42:00.460Z</time>
      </trkpt>
      <trkpt lat="48.178583" lon="7.860653">
        <ele>346.645589</ele>
        <time>2026-08-24T19:42:01.755Z</time>
      </trkpt>
      <trkpt lat="48.178622" lon="7.860345">
        <ele>345.798521</ele>
        <time>2026-08-24T19:42:03.716Z</time>
      </trkpt>
      <trkpt lat="48.178667" lon="7.860180">
        <ele>345.316854</ele>
        <time>2026-08-24T19:42:04.853Z</time>
      </trkpt>
      <trkpt lat="48.178972" lon="7.859196">
        <ele>342.384955</ele>
        <time>2026-08-24T19:42:12.172Z</time>
      </trkpt>
      <trkpt lat="48.179640" lon="7.856682">
        <ele>340.636120</ele>
        <time>2026-08-24T19:42:36.096Z</time>
      </trkpt>
      <trkpt lat="48.179806" lon="7.856030">
        <ele>341.119155</ele>
        <time>2026-08-24T19:42:43.346Z</time>
      </trkpt>
      <trkpt lat="48.179862" lon="7.855712">
        <ele>341.609128</ele>
        <time>2026-08-24T19:42:46.508Z</time>
      </trkpt>
      <trkpt lat="48.179894" lon="7.855395">
        <ele>342.086750</ele>
        <time>2026-08-24T19:42:50.012Z</time>
      </trkpt>
      <trkpt lat="48.179885" lon="7.855116">
        <ele>342.502867</ele>
        <time>2026-08-24T19:42:53.888Z</time>
      </trkpt>
      <trkpt lat="48.179861" lon="7.854875">
        <ele>342.865871</ele>
        <time>2026-08-24T19:42:57.789Z</time>
      </trkpt>
      <trkpt lat="48.179847" lon="7.854763">
        <ele>343.035626</ele>
        <time>2026-08-24T19:42:59.521Z</time>
      </trkpt>
      <trkpt lat="48.179754" lon="7.854164">
        <ele>343.951839</ele>
        <time>2026-08-24T19:43:10.760Z</time>
      </trkpt>
      <trkpt lat="48.179729" lon="7.853999">
        <ele>344.203909</ele>
        <time>2026-08-24T19:43:14.569Z</time>
      </trkpt>
      <trkpt lat="48.179773" lon="7.853345">
        <ele>346.430917</ele>
        <time>2026-08-24T19:43:31.136Z</time>
      </trkpt>
      <trkpt lat="48.179892" lon="7.853327">
        <ele>347.216899</ele>
        <time>2026-08-24T19:43:36.930Z</time>
      </trkpt>
      <trkpt lat="48.179982" lon="7.852983">
        <ele>348.836140</ele>
        <time>2026-08-24T19:43:49.688Z</time>
      </trkpt>
      <trkpt lat="48.179933" lon="7.852838">
        <ele>349.548449</ele>
        <time>2026-08-24T19:43:55.667Z</time>
      </trkpt>
      <trkpt lat="48.179898" lon="7.852824">
        <ele>349.786494</ele>
        <time>2026-08-24T19:43:57.618Z</time>
      </trkpt>
      <trkpt lat="48.180260" lon="7.851933">
        <ele>354.358388</ele>
        <time>2026-08-24T19:44:30.907Z</time>
      </trkpt>
      <trkpt lat="48.180556" lon="7.850961">
        <ele>357.311723</ele>
        <time>2026-08-24T19:44:55.081Z</time>
      </trkpt>
      <trkpt lat="48.180674" lon="7.850446">
        <ele>358.158706</ele>
        <time>2026-08-24T19:45:04.283Z</time>
      </trkpt>
      <trkpt lat="48.180849" lon="7.849748">
        <ele>359.318554</ele>
        <time>2026-08-24T19:45:15.108Z</time>
      </trkpt>
      <trkpt lat="48.181089" lon="7.849029">
        <ele>360.553133</ele>
        <time>2026-08-24T19:45:24.095Z</time>
      </trkpt>
      <trkpt lat="48.181352" lon="7.848467">
        <ele>360.334273</ele>
        <time>2026-08-24T19:45:30.008Z</time>
      </trkpt>
      <trkpt lat="48.181538" lon="7.848001">
        <ele>360.161151</ele>
        <time>2026-08-24T19:45:34.480Z</time>
      </trkpt>
      <trkpt lat="48.181636" lon="7.847678">
        <ele>360.048034</ele>
        <time>2026-08-24T19:45:37.246Z</time>
      </trkpt>
      <trkpt lat="48.181680" lon="7.847460">
        <ele>359.975431</ele>
        <time>2026-08-24T19:45:38.980Z</time>
      </trkpt>
      <trkpt lat="48.181684" lon="7.846975">
        <ele>359.820823</ele>
        <time>2026-08-24T19:45:42.765Z</time>
      </trkpt>
      <trkpt lat="48.181613" lon="7.846602">
        <ele>359.697177</ele>
        <time>2026-08-24T19:45:46.020Z</time>
      </trkpt>
      <trkpt lat="48.181539" lon="7.846350">
        <ele>360.267869</ele>
        <time>2026-08-24T19:45:48.840Z</time>
      </trkpt>
      <trkpt lat="48.181325" lon="7.845925">
        <ele>361.388981</ele>
        <time>2026-08-24T19:45:57.142Z</time>
      </trkpt>
      <trkpt lat="48.180867" lon="7.845239">
        <ele>363.432566</ele>
        <time>2026-08-24T19:46:19.862Z</time>
      </trkpt>
      <trkpt lat="48.180433" lon="7.844483">
        <ele>365.304419</ele>
        <time>2026-08-24T19:46:42.202Z</time>
      </trkpt>
      <trkpt lat="48.180129" lon="7.843732">
        <ele>364.483952</ele>
        <time>2026-08-24T19:46:55.513Z</time>
      </trkpt>
      <trkpt lat="48.180058" lon="7.843525">
        <ele>364.266562</ele>
        <time>2026-08-24T19:46:57.519Z</time>
      </trkpt>
      <trkpt lat="48.180021" lon="7.843422">
        <ele>364.157301</ele>
        <time>2026-08-24T19:46:58.369Z</time>
      </trkpt>
      <trkpt lat="48.179778" lon="7.842721">
        <ele>363.419464</ele>
        <time>2026-08-24T19:47:03.484Z</time>
      </trkpt>
      <trkpt lat="48.179587" lon="7.842248">
        <ele>362.903046</ele>
        <time>2026-08-24T19:47:06.960Z</time>
      </trkpt>
      <trkpt lat="48.179311" lon="7.841672">
        <ele>360.229121</ele>
        <time>2026-08-24T19:47:11.462Z</time>
      </trkpt>
      <trkpt lat="48.178978" lon="7.840981">
        <ele>356.827784</ele>
        <time>2026-08-24T19:47:16.742Z</time>
      </trkpt>
      <trkpt lat="48.178630" lon="7.840475">
        <ele>353.927738</ele>
        <time>2026-08-24T19:47:21.138Z</time>
      </trkpt>
      <trkpt lat="48.178533" lon="7.840397">
        <ele>353.269220</ele>
        <time>2026-08-24T19:47:22.139Z</time>
      </trkpt>
      <trkpt lat="48.178364" lon="7.840260">
        <ele>352.119819</ele>
        <time>2026-08-24T19:47:23.870Z</time>
      </trkpt>
      <trkpt lat="48.178183" lon="7.840115">
        <ele>350.330582</ele>
        <time>2026-08-24T19:47:25.690Z</time>
      </trkpt>
      <trkpt lat="48.177806" lon="7.839977">
        <ele>346.924218</ele>
        <time>2026-08-24T19:47:29.093Z</time>
      </trkpt>
      <trkpt lat="48.177442" lon="7.839734">
        <ele>343.426835</ele>
        <time>2026-08-24T19:47:32.530Z</time>
      </trkpt>
      <trkpt lat="48.176850" lon="7.839025">
        <ele>336.776644</ele>
        <time>2026-08-24T19:47:39.102Z</time>
      </trkpt>
      <trkpt lat="48.176600" lon="7.838737">
        <ele>334.178974</ele>
        <time>2026-08-24T19:47:41.851Z</time>
      </trkpt>
      <trkpt lat="48.176148" lon="7.838352">
        <ele>329.952892</ele>
        <time>2026-08-24T19:47:46.370Z</time>
      </trkpt>
      <trkpt lat="48.175930" lon="7.838206">
        <ele>328.011870</ele>
        <time>2026-08-24T19:47:48.469Z</time>
      </trkpt>
      <trkpt lat="48.175800" lon="7.838119">
        <ele>326.854521</ele>
        <time>2026-08-24T19:47:49.720Z</time>
      </trkpt>
      <trkpt lat="48.175640" lon="7.838016">
        <ele>325.438954</ele>
        <time>2026-08-24T19:47:51.260Z</time>
      </trkpt>
      <trkpt lat="48.175256" lon="7.837862">
        <ele>322.207381</ele>
        <time>2026-08-24T19:47:54.814Z</time>
      </trkpt>
      <trkpt lat="48.174992" lon="7.837742">
        <ele>320.812111</ele>
        <time>2026-08-24T19:47:57.324Z</time>
      </trkpt>
      <trkpt lat="48.174683" lon="7.837519">
        <ele>319.398840</ele>
        <time>2026-08-24T19:48:00.493Z</time>
      </trkpt>
      <trkpt lat="48.174173" lon="7.837049">
        <ele>316.931806</ele>
        <time>2026-08-24T19:48:06.307Z</time>
      </trkpt>
      <trkpt lat="48.173752" lon="7.836469">
        <ele>314.575673</ele>
        <time>2026-08-24T19:48:12.260Z</time>
      </trkpt>
      <trkpt lat="48.173241" lon="7.835678">
        <ele>312.485640</ele>
        <time>2026-08-24T19:48:21.261Z</time>
      </trkpt>
      <trkpt lat="48.173068" lon="7.835217">
        <ele>311.532148</ele>
        <time>2026-08-24T19:48:25.588Z</time>
      </trkpt>
      <trkpt lat="48.173002" lon="7.834955">
        <ele>311.027318</ele>
        <time>2026-08-24T19:48:27.674Z</time>
      </trkpt>
      <trkpt lat="48.172970" lon="7.834596">
        <ele>310.374457</ele>
        <time>2026-08-24T19:48:30.155Z</time>
      </trkpt>
      <trkpt lat="48.172955" lon="7.834359">
        <ele>309.945340</ele>
        <time>2026-08-24T19:48:31.704Z</time>
      </trkpt>
      <trkpt lat="48.172968" lon="7.834072">
        <ele>309.426823</ele>
        <time>2026-08-24T19:48:33.508Z</time>
      </trkpt>
      <trkpt lat="48.173081" lon="7.833454">
        <ele>305.528153</ele>
        <time>2026-08-24T19:48:37.362Z</time>
      </trkpt>
      <trkpt lat="48.173288" lon="7.832532">
        <ele>299.544626</ele>
        <time>2026-08-24T19:48:42.963Z</time>
      </trkpt>
      <trkpt lat="48.173436" lon="7.831842">
        <ele>295.086664</ele>
        <time>2026-08-24T19:48:47.067Z</time>
      </trkpt>
      <trkpt lat="48.173479" lon="7.831578">
        <ele>293.415204</ele>
        <time>2026-08-24T19:48:48.597Z</time>
      </trkpt>
      <trkpt lat="48.173532" lon="7.830804">
        <ele>288.253545</ele>
        <time>2026-08-24T19:48:53.028Z</time>
      </trkpt>
      <trkpt lat="48.173480" lon="7.830083">
        <ele>283.392847</ele>
        <time>2026-08-24T19:48:57.183Z</time>
      </trkpt>
      <trkpt lat="48.173460" lon="7.829717">
        <ele>280.931500</ele>
        <time>2026-08-24T19:48:59.293Z</time>
      </trkpt>
      <trkpt lat="48.173430" lon="7.829063">
        <ele>276.537686</ele>
        <time>2026-08-24T19:49:03.072Z</time>
      </trkpt>
      <trkpt lat="48.173458" lon="7.828661">
        <ele>274.007058</ele>
        <time>2026-08-24T19:49:05.404Z</time>
      </trkpt>
      <trkpt lat="48.173727" lon="7.827211">
        <ele>265.887785</ele>
        <time>2026-08-24T19:49:14.263Z</time>
      </trkpt>
      <trkpt lat="48.173835" lon="7.826387">
        <ele>261.357572</ele>
        <time>2026-08-24T19:49:19.264Z</time>
      </trkpt>
      <trkpt lat="48.173858" lon="7.826100">
        <ele>259.803179</ele>
        <time>2026-08-24T19:49:20.984Z</time>
      </trkpt>
      <trkpt lat="48.173884" lon="7.825681">
        <ele>257.561828</ele>
        <time>2026-08-24T19:49:23.452Z</time>
      </trkpt>
      <trkpt lat="48.173942" lon="7.824550">
        <ele>251.520025</ele>
        <time>2026-08-24T19:49:30.094Z</time>
      </trkpt>
      <trkpt lat="48.173961" lon="7.824344">
        <ele>250.412368</ele>
        <time>2026-08-24T19:49:31.298Z</time>
      </trkpt>
      <trkpt lat="48.174109" lon="7.823458">
        <ele>245.740324</ele>
        <time>2026-08-24T19:49:36.624Z</time>
      </trkpt>
      <trkpt lat="48.174302" lon="7.822755">
        <ele>244.480331</ele>
        <time>2026-08-24T19:49:41.296Z</time>
      </trkpt>
      <trkpt lat="48.174454" lon="7.822270">
        <ele>243.592173</ele>
        <time>2026-08-24T19:49:44.978Z</time>
      </trkpt>
      <trkpt lat="48.174502" lon="7.822078">
        <ele>243.252336</ele>
        <time>2026-08-24T19:49:46.462Z</time>
      </trkpt>
      <trkpt lat="48.174535" lon="7.821891">
        <ele>242.931744</ele>
        <time>2026-08-24T19:49:47.918Z</time>
      </trkpt>
      <trkpt lat="48.174681" lon="7.821623">
        <ele>242.358205</ele>
        <time>2026-08-24T19:49:50.778Z</time>
      </trkpt>
      <trkpt lat="48.174804" lon="7.821451">
        <ele>241.940226</ele>
        <time>2026-08-24T19:49:53.198Z</time>
      </trkpt>
      <trkpt lat="48.174828" lon="7.821399">
        <ele>241.835416</ele>
        <time>2026-08-24T19:49:53.936Z</time>
      </trkpt>
      <trkpt lat="48.174853" lon="7.821299">
        <ele>241.658419</ele>
        <time>2026-08-24T19:49:55.306Z</time>
      </trkpt>
      <trkpt lat="48.174855" lon="7.821140">
        <ele>241.394856</ele>
        <time>2026-08-24T19:49:57.632Z</time>
      </trkpt>
      <trkpt lat="48.174837" lon="7.820410">
        <ele>242.408278</ele>
        <time>2026-08-24T19:50:13.000Z</time>
      </trkpt>
      <trkpt lat="48.174907" lon="7.819885">
        <ele>243.203232</ele>
        <time>2026-08-24T19:50:25.959Z</time>
      </trkpt>
      <trkpt lat="48.174982" lon="7.819599">
        <ele>243.659541</ele>
        <time>2026-08-24T19:50:32.599Z</time>
      </trkpt>
      <trkpt lat="48.175159" lon="7.819169">
        <ele>244.409844</ele>
        <time>2026-08-24T19:50:40.802Z</time>
      </trkpt>
      <trkpt lat="48.175326" lon="7.818884">
        <ele>244.973168</ele>
        <time>2026-08-24T19:50:45.900Z</time>
      </trkpt>
      <trkpt lat="48.175444" lon="7.818732">
        <ele>245.319527</ele>
        <time>2026-08-24T19:50:48.533Z</time>
      </trkpt>
      <trkpt lat="48.175704" lon="7.818479">
        <ele>243.375986</ele>
        <time>2026-08-24T19:50:52.282Z</time>
      </trkpt>
      <trkpt lat="48.176076" lon="7.818278">
        <ele>240.675660</ele>
        <time>2026-08-24T19:50:55.968Z</time>
      </trkpt>
      <trkpt lat="48.176332" lon="7.818209">
        <ele>238.899379</ele>
        <time>2026-08-24T19:50:58.239Z</time>
      </trkpt>
      <trkpt lat="48.176786" lon="7.818160">
        <ele>235.790918</ele>
        <time>2026-08-24T19:51:02.136Z</time>
      </trkpt>
      <trkpt lat="48.177119" lon="7.818143">
        <ele>233.515488</ele>
        <time>2026-08-24T19:51:04.982Z</time>
      </trkpt>
      <trkpt lat="48.177446" lon="7.818068">
        <ele>231.379469</ele>
        <time>2026-08-24T19:51:07.852Z</time>
      </trkpt>
      <trkpt lat="48.177735" lon="7.817891">
        <ele>229.391574</ele>
        <time>2026-08-24T19:51:10.577Z</time>
      </trkpt>
      <trkpt lat="48.178056" lon="7.817537">
        <ele>226.854267</ele>
        <time>2026-08-24T19:51:14.139Z</time>
      </trkpt>
      <trkpt lat="48.178160" lon="7.817378">
        <ele>225.908524</ele>
        <time>2026-08-24T19:51:15.531Z</time>
      </trkpt>
      <trkpt lat="48.178187" lon="7.817333">
        <ele>225.651476</ele>
        <time>2026-08-24T19:51:15.915Z</time>
      </trkpt>
      <trkpt lat="48.178255" lon="7.817231">
        <ele>225.039025</ele>
        <time>2026-08-24T19:51:16.827Z</time>
      </trkpt>
      <trkpt lat="48.178393" lon="7.817076">
        <ele>223.941104</ele>
        <time>2026-08-24T19:51:18.493Z</time>
      </trkpt>
      <trkpt lat="48.178667" lon="7.816863">
        <ele>221.975805</ele>
        <time>2026-08-24T19:51:21.585Z</time>
      </trkpt>
      <trkpt lat="48.178786" lon="7.816791">
        <ele>221.466772</ele>
        <time>2026-08-24T19:51:22.922Z</time>
      </trkpt>
      <trkpt lat="48.179212" lon="7.816613">
        <ele>220.510459</ele>
        <time>2026-08-24T19:51:27.768Z</time>
      </trkpt>
      <trkpt lat="48.179464" lon="7.816429">
        <ele>219.904352</ele>
        <time>2026-08-24T19:51:30.865Z</time>
      </trkpt>
      <trkpt lat="48.179585" lon="7.816218">
        <ele>219.503058</ele>
        <time>2026-08-24T19:51:32.974Z</time>
      </trkpt>
      <trkpt lat="48.179851" lon="7.815756">
        <ele>218.622900</ele>
        <time>2026-08-24T19:51:37.826Z</time>
      </trkpt>
      <trkpt lat="48.180074" lon="7.815409">
        <ele>217.927985</ele>
        <time>2026-08-24T19:51:41.409Z</time>
      </trkpt>
      <trkpt lat="48.180134" lon="7.815344">
        <ele>217.767924</ele>
        <time>2026-08-24T19:51:42.197Z</time>
      </trkpt>
      <trkpt lat="48.180241" lon="7.815143">
        <ele>217.344843</ele>
        <time>2026-08-24T19:51:43.998Z</time>
      </trkpt>
      <trkpt lat="48.180258" lon="7.815044">
        <ele>217.174700</ele>
        <time>2026-08-24T19:51:44.705Z</time>
      </trkpt>
      <trkpt lat="48.180507" lon="7.814534">
        <ele>216.122691</ele>
        <time>2026-08-24T19:51:48.979Z</time>
      </trkpt>
      <trkpt lat="48.180587" lon="7.814379">
        <ele>215.796472</ele>
        <time>2026-08-24T19:51:50.264Z</time>
      </trkpt>
      <trkpt lat="48.180981" lon="7.813655">
        <ele>214.241150</ele>
        <time>2026-08-24T19:51:56.557Z</time>
      </trkpt>
      <trkpt lat="48.181152" lon="7.813353">
        <ele>213.581762</ele>
        <time>2026-08-24T19:51:59.302Z</time>
      </trkpt>
      <trkpt lat="48.181357" lon="7.813011">
        <ele>213.869170</ele>
        <time>2026-08-24T19:52:02.944Z</time>
      </trkpt>
      <trkpt lat="48.181705" lon="7.812405">
        <ele>215.798304</ele>
        <time>2026-08-24T19:52:12.749Z</time>
      </trkpt>
      <trkpt lat="48.181830" lon="7.812346">
        <ele>216.272367</ele>
        <time>2026-08-24T19:52:16.295Z</time>
      </trkpt>
      <trkpt lat="48.182007" lon="7.812316">
        <ele>216.916756</ele>
        <time>2026-08-24T19:52:21.749Z</time>
      </trkpt>
      <trkpt lat="48.182124" lon="7.812382">
        <ele>217.368963</ele>
        <time>2026-08-24T19:52:25.968Z</time>
      </trkpt>
      <trkpt lat="48.182226" lon="7.812365">
        <ele>217.740228</ele>
        <time>2026-08-24T19:52:29.739Z</time>
      </trkpt>
      <trkpt lat="48.182470" lon="7.812271">
        <ele>218.651574</ele>
        <time>2026-08-24T19:52:39.714Z</time>
      </trkpt>
      <trkpt lat="48.182569" lon="7.812249">
        <ele>219.013625</ele>
        <time>2026-08-24T19:52:44.103Z</time>
      </trkpt>
      <trkpt lat="48.182990" lon="7.812252">
        <ele>221.976184</ele>
        <time>2026-08-24T19:53:05.163Z</time>
      </trkpt>
      <trkpt lat="48.183613" lon="7.812075">
        <ele>228.483521</ele>
        <time>2026-08-24T19:53:40.509Z</time>
      </trkpt>
      <trkpt lat="48.184086" lon="7.811925">
        <ele>233.445081</ele>
        <time>2026-08-24T19:54:09.647Z</time>
      </trkpt>
      <trkpt lat="48.184268" lon="7.811904">
        <ele>235.318404</ele>
        <time>2026-08-24T19:54:20.248Z</time>
      </trkpt>
      <trkpt lat="48.184741" lon="7.812037">
        <ele>239.803010</ele>
        <time>2026-08-24T19:54:49.198Z</time>
      </trkpt>
      <trkpt lat="48.185099" lon="7.812172">
        <ele>242.750137</ele>
        <time>2026-08-24T19:55:12.192Z</time>
      </trkpt>
      <trkpt lat="48.185296" lon="7.812247">
        <ele>244.372809</ele>
        <time>2026-08-24T19:55:23.965Z</time>
      </trkpt>
      <trkpt lat="48.186137" lon="7.812565">
        <ele>251.297203</ele>
        <time>2026-08-24T19:56:00.902Z</time>
      </trkpt>
      <trkpt lat="48.186417" lon="7.812672">
        <ele>252.351750</ele>
        <time>2026-08-24T19:56:09.062Z</time>
      </trkpt>
      <trkpt lat="48.186779" lon="7.812744">
        <ele>251.730596</ele>
        <time>2026-08-24T19:56:17.784Z</time>
      </trkpt>
      <trkpt lat="48.187177" lon="7.812743">
        <ele>251.053595</ele>
        <time>2026-08-24T19:56:22.660Z</time>
      </trkpt>
      <trkpt lat="48.187363" lon="7.812726">
        <ele>250.736621</ele>
        <time>2026-08-24T19:56:24.515Z</time>
      </trkpt>
      <trkpt lat="48.187683" lon="7.812720">
        <ele>250.192257</ele>
        <time>2026-08-24T19:56:27.563Z</time>
      </trkpt>
      <trkpt lat="48.187979" lon="7.812825">
        <ele>249.674871</ele>
        <time>2026-08-24T19:56:30.401Z</time>
      </trkpt>
      <trkpt lat="48.188306" lon="7.813080">
        <ele>247.165829</ele>
        <time>2026-08-24T19:56:33.790Z</time>
      </trkpt>
      <trkpt lat="48.189270" lon="7.814016">
        <ele>237.293252</ele>
        <time>2026-08-24T19:56:43.788Z</time>
      </trkpt>
      <trkpt lat="48.189427" lon="7.814123">
        <ele>235.810693</ele>
        <time>2026-08-24T19:56:45.271Z</time>
      </trkpt>
      <trkpt lat="48.189867" lon="7.814249">
        <ele>231.504265</ele>
        <time>2026-08-24T19:56:49.110Z</time>
      </trkpt>
      <trkpt lat="48.190155" lon="7.814207">
        <ele>228.474425</ele>
        <time>2026-08-24T19:56:51.595Z</time>
      </trkpt>
      <trkpt lat="48.190513" lon="7.814081">
        <ele>224.624036</ele>
        <time>2026-08-24T19:56:54.734Z</time>
      </trkpt>
      <trkpt lat="48.190615" lon="7.814051">
        <ele>223.535666</ele>
        <time>2026-08-24T19:56:55.976Z</time>
      </trkpt>
      <trkpt lat="48.190793" lon="7.814058">
        <ele>221.671204</ele>
        <time>2026-08-24T19:56:58.103Z</time>
      </trkpt>
      <trkpt lat="48.191022" lon="7.814242">
        <ele>218.951036</ele>
        <time>2026-08-24T19:57:01.224Z</time>
      </trkpt>
      <trkpt lat="48.191142" lon="7.814375">
        <ele>217.388751</ele>
        <time>2026-08-24T19:57:03.016Z</time>
      </trkpt>
      <trkpt lat="48.191496" lon="7.814512">
        <ele>214.310267</ele>
        <time>2026-08-24T19:57:07.486Z</time>
      </trkpt>
      <trkpt lat="48.191804" lon="7.814814">
        <ele>212.202763</ele>
        <time>2026-08-24T19:57:12.087Z</time>
      </trkpt>
      <trkpt lat="48.191848" lon="7.814802">
        <ele>211.946621</ele>
        <time>2026-08-24T19:57:12.485Z</time>
      </trkpt>
      <trkpt lat="48.192110" lon="7.814541">
        <ele>210.145257</ele>
        <time>2026-08-24T19:57:15.332Z</time>
      </trkpt>
      <trkpt lat="48.192452" lon="7.814332">
        <ele>208.030141</ele>
        <time>2026-08-24T19:57:18.812Z</time>
      </trkpt>
      <trkpt lat="48.192507" lon="7.814300">
        <ele>207.692264</ele>
        <time>2026-08-24T19:57:19.398Z</time>
      </trkpt>
      <trkpt lat="48.192654" lon="7.814237">
        <ele>206.816634</ele>
        <time>2026-08-24T19:57:20.945Z</time>
      </trkpt>
      <trkpt lat="48.192907" lon="7.814229">
        <ele>205.367253</ele>
        <time>2026-08-24T19:57:23.744Z</time>
      </trkpt>
      <trkpt lat="48.193114" lon="7.814234">
        <ele>204.761751</ele>
        <time>2026-08-24T19:57:26.234Z</time>
      </trkpt>
      <trkpt lat="48.193154" lon="7.814227">
        <ele>204.713899</ele>
        <time>2026-08-24T19:57:26.732Z</time>
      </trkpt>
      <trkpt lat="48.193378" lon="7.814160">
        <ele>204.442499</ele>
        <time>2026-08-24T19:57:29.650Z</time>
      </trkpt>
      <trkpt lat="48.193571" lon="7.814058">
        <ele>204.199356</ele>
        <time>2026-08-24T19:57:32.161Z</time>
      </trkpt>
      <trkpt lat="48.193895" lon="7.813864">
        <ele>203.784838</ele>
        <time>2026-08-24T19:57:36.345Z</time>
      </trkpt>
      <trkpt lat="48.193959" lon="7.813836">
        <ele>203.705624</ele>
        <time>2026-08-24T19:57:37.153Z</time>
      </trkpt>
      <trkpt lat="48.194112" lon="7.813816">
        <ele>203.523137</ele>
        <time>2026-08-24T19:57:39.066Z</time>
      </trkpt>
      <trkpt lat="48.194332" lon="7.813837">
        <ele>203.261200</ele>
        <time>2026-08-24T19:57:41.741Z</time>
      </trkpt>
      <trkpt lat="48.194921" lon="7.814026">
        <ele>202.532032</ele>
        <time>2026-08-24T19:57:49.147Z</time>
      </trkpt>
      <trkpt lat="48.194950" lon="7.814039">
        <ele>202.493970</ele>
        <time>2026-08-24T19:57:49.507Z</time>
      </trkpt>
      <trkpt lat="48.195299" lon="7.814152">
        <ele>202.044980</ele>
        <time>2026-08-24T19:57:53.937Z</time>
      </trkpt>
      <trkpt lat="48.195507" lon="7.814211">
        <ele>201.778775</ele>
        <time>2026-08-24T19:57:56.523Z</time>
      </trkpt>
      <trkpt lat="48.195523" lon="7.814169">
        <ele>201.738224</ele>
        <time>2026-08-24T19:57:57.057Z</time>
      </trkpt>
      <trkpt lat="48.196067" lon="7.814289">
        <ele>201.046762</ele>
        <time>2026-08-24T19:58:06.314Z</time>
      </trkpt>
      <trkpt lat="48.196433" lon="7.814305">
        <ele>200.586305</ele>
        <time>2026-08-24T19:58:12.339Z</time>
      </trkpt>
      <trkpt lat="48.196606" lon="7.814260">
        <ele>200.271459</ele>
        <time>2026-08-24T19:58:15.176Z</time>
      </trkpt>
      <trkpt lat="48.196861" lon="7.814123">
        <ele>199.715955</ele>
        <time>2026-08-24T19:58:19.516Z</time>
      </trkpt>
      <trkpt lat="48.197619" lon="7.813541">
        <ele>197.969601</ele>
        <time>2026-08-24T19:58:32.700Z</time>
      </trkpt>
      <trkpt lat="48.198052" lon="7.813205">
        <ele>196.969804</ele>
        <time>2026-08-24T19:58:40.267Z</time>
      </trkpt>
      <trkpt lat="48.198318" lon="7.812998">
        <ele>196.354319</ele>
        <time>2026-08-24T19:58:44.953Z</time>
      </trkpt>
      <trkpt lat="48.198647" lon="7.812834">
        <ele>195.641911</ele>
        <time>2026-08-24T19:58:50.393Z</time>
      </trkpt>
      <trkpt lat="48.199265" lon="7.812639">
        <ele>194.344192</ele>
        <time>2026-08-24T19:59:00.298Z</time>
      </trkpt>
      <trkpt lat="48.199693" lon="7.812429">
        <ele>193.418851</ele>
        <time>2026-08-24T19:59:07.327Z</time>
      </trkpt>
      <trkpt lat="48.200002" lon="7.812170">
        <ele>192.836298</ele>
        <time>2026-08-24T19:59:12.878Z</time>
      </trkpt>
      <trkpt lat="48.200683" lon="7.811488">
        <ele>191.709748</ele>
        <time>2026-08-24T19:59:26.196Z</time>
      </trkpt>
      <trkpt lat="48.200874" lon="7.811339">
        <ele>191.413551</ele>
        <time>2026-08-24T19:59:29.862Z</time>
      </trkpt>
      <trkpt lat="48.201073" lon="7.811224">
        <ele>191.120140</ele>
        <time>2026-08-24T19:59:33.546Z</time>
      </trkpt>
      <trkpt lat="48.201334" lon="7.811113">
        <ele>190.746884</ele>
        <time>2026-08-24T19:59:38.316Z</time>
      </trkpt>
      <trkpt lat="48.202078" lon="7.810857">
        <ele>190.282796</ele>
        <time>2026-08-24T19:59:52.491Z</time>
      </trkpt>
      <trkpt lat="48.202469" lon="7.810750">
        <ele>190.070430</ele>
        <time>2026-08-24T20:00:00.053Z</time>
      </trkpt>
      <trkpt lat="48.203186" lon="7.810594">
        <ele>189.702231</ele>
        <time>2026-08-24T20:00:13.327Z</time>
      </trkpt>
      <trkpt lat="48.203325" lon="7.810453">
        <ele>189.772859</ele>
        <time>2026-08-24T20:00:16.303Z</time>
      </trkpt>
      <trkpt lat="48.203427" lon="7.810239">
        <ele>189.846669</ele>
        <time>2026-08-24T20:00:19.496Z</time>
      </trkpt>
      <trkpt lat="48.203598" lon="7.808993">
        <ele>190.203566</ele>
        <time>2026-08-24T20:00:36.241Z</time>
      </trkpt>
      <trkpt lat="48.203747" lon="7.808383">
        <ele>190.385832</ele>
        <time>2026-08-24T20:00:47.105Z</time>
      </trkpt>
      <trkpt lat="48.203886" lon="7.807971">
        <ele>190.811449</ele>
        <time>2026-08-24T20:00:55.835Z</time>
      </trkpt>
      <trkpt lat="48.204006" lon="7.807719">
        <ele>191.297968</ele>
        <time>2026-08-24T20:01:02.183Z</time>
      </trkpt>
      <trkpt lat="48.204116" lon="7.807481">
        <ele>191.752935</ele>
        <time>2026-08-24T20:01:08.468Z</time>
      </trkpt>
      <trkpt lat="48.204267" lon="7.807234">
        <ele>192.279444</ele>
        <time>2026-08-24T20:01:16.035Z</time>
      </trkpt>
      <trkpt lat="48.204422" lon="7.807049">
        <ele>192.746262</ele>
        <time>2026-08-24T20:01:22.790Z</time>
      </trkpt>
      <trkpt lat="48.205123" lon="7.806452">
        <ele>194.646084</ele>
        <time>2026-08-24T20:01:48.247Z</time>
      </trkpt>
      <trkpt lat="48.205343" lon="7.806123">
        <ele>194.396234</ele>
        <time>2026-08-24T20:01:55.265Z</time>
      </trkpt>
      <trkpt lat="48.205520" lon="7.805752">
        <ele>194.089779</ele>
        <time>2026-08-24T20:02:00.941Z</time>
      </trkpt>
      <trkpt lat="48.206533" lon="7.803339">
        <ele>191.909754</ele>
        <time>2026-08-24T20:02:30.662Z</time>
      </trkpt>
      <trkpt lat="48.206581" lon="7.803384">
        <ele>191.831256</ele>
        <time>2026-08-24T20:02:31.352Z</time>
      </trkpt>
      <trkpt lat="48.206229" lon="7.804242">
        <ele>190.899982</ele>
        <time>2026-08-24T20:02:39.676Z</time>
      </trkpt>
      <trkpt lat="48.206229" lon="7.804242">
        <ele>190.899982</ele>
        <time>2026-08-24T20:02:39.680Z</time>
      </trkpt>
      <trkpt lat="48.206115" lon="7.804519">
        <ele>190.599064</ele>
        <time>2026-08-24T20:02:43.701Z</time>
      </trkpt>
      <trkpt lat="48.206229" lon="7.804242">
        <ele>190.270892</ele>
        <time>2026-08-24T20:02:47.722Z</time>
      </trkpt>
      <trkpt lat="48.206581" lon="7.803384">
        <ele>189.040833</ele>
        <time>2026-08-24T20:03:00.167Z</time>
      </trkpt>
      <trkpt lat="48.206581" lon="7.803384">
        <ele>189.040833</ele>
        <time>2026-08-24T20:03:00.172Z</time>
      </trkpt>
      <trkpt lat="48.206803" lon="7.802875">
        <ele>188.298175</ele>
        <time>2026-08-24T20:03:04.522Z</time>
      </trkpt>
      <trkpt lat="48.206899" lon="7.802637">
        <ele>187.958538</ele>
        <time>2026-08-24T20:03:06.562Z</time>
      </trkpt>
      <trkpt lat="48.207113" lon="7.801970">
        <ele>187.038503</ele>
        <time>2026-08-24T20:03:11.911Z</time>
      </trkpt>
      <trkpt lat="48.207180" lon="7.801617">
        <ele>186.371980</ele>
        <time>2026-08-24T20:03:14.440Z</time>
      </trkpt>
      <trkpt lat="48.207213" lon="7.801595">
        <ele>186.273584</ele>
        <time>2026-08-24T20:03:14.970Z</time>
      </trkpt>
      <trkpt lat="48.207350" lon="7.801587">
        <ele>185.899995</ele>
        <time>2026-08-24T20:03:16.975Z</time>
      </trkpt>
      <trkpt lat="48.207702" lon="7.801506">
        <ele>184.929629</ele>
        <time>2026-08-24T20:03:22.228Z</time>
      </trkpt>
      <trkpt lat="48.208179" lon="7.801424">
        <ele>183.621367</ele>
        <time>2026-08-24T20:03:29.406Z</time>
      </trkpt>
      <trkpt lat="48.208312" lon="7.801374">
        <ele>183.247759</ele>
        <time>2026-08-24T20:03:31.445Z</time>
      </trkpt>
      <trkpt lat="48.208372" lon="7.801282">
        <ele>183.014007</ele>
        <time>2026-08-24T20:03:32.316Z</time>
      </trkpt>
      <trkpt lat="48.208520" lon="7.801502">
        <ele>182.446350</ele>
        <time>2026-08-24T20:03:34.448Z</time>
      </trkpt>
      <trkpt lat="48.208601" lon="7.801575">
        <ele>182.188887</ele>
        <time>2026-08-24T20:03:35.417Z</time>
      </trkpt>
      <trkpt lat="48.208861" lon="7.801697">
        <ele>181.872131</ele>
        <time>2026-08-24T20:03:38.235Z</time>
      </trkpt>
      <trkpt lat="48.208973" lon="7.801728">
        <ele>181.740127</ele>
        <time>2026-08-24T20:03:39.459Z</time>
      </trkpt>
      <trkpt lat="48.209475" lon="7.801914">
        <ele>181.140810</ele>
        <time>2026-08-24T20:03:45.557Z</time>
      </trkpt>
      <trkpt lat="48.209805" lon="7.802137">
        <ele>180.721329</ele>
        <time>2026-08-24T20:03:50.274Z</time>
      </trkpt>
      <trkpt lat="48.210026" lon="7.802334">
        <ele>180.423392</ele>
        <time>2026-08-24T20:03:53.821Z</time>
      </trkpt>
      <trkpt lat="48.210362" lon="7.802676">
        <ele>180.117530</ele>
        <time>2026-08-24T20:04:01.809Z</time>
      </trkpt>
      <trkpt lat="48.210789" lon="7.803240">
        <ele>180.184185</ele>
        <time>2026-08-24T20:04:13.762Z</time>
      </trkpt>
      <trkpt lat="48.210947" lon="7.803532">
        <ele>180.213556</ele>
        <time>2026-08-24T20:04:19.435Z</time>
      </trkpt>
      <trkpt lat="48.211295" lon="7.804347">
        <ele>180.289138</ele>
        <time>2026-08-24T20:04:33.014Z</time>
      </trkpt>
      <trkpt lat="48.211646" lon="7.805095">
        <ele>180.373333</ele>
        <time>2026-08-24T20:04:44.896Z</time>
      </trkpt>
      <trkpt lat="48.211787" lon="7.805363">
        <ele>180.407172</ele>
        <time>2026-08-24T20:04:49.379Z</time>
      </trkpt>
      <trkpt lat="48.211908" lon="7.805595">
        <ele>180.436368</ele>
        <time>2026-08-24T20:04:53.268Z</time>
      </trkpt>
      <trkpt lat="48.212014" lon="7.805773">
        <ele>180.460025</ele>
        <time>2026-08-24T20:04:55.550Z</time>
      </trkpt>
      <trkpt lat="48.212196" lon="7.806080">
        <ele>180.500746</ele>
        <time>2026-08-24T20:04:59.728Z</time>
      </trkpt>
      <trkpt lat="48.212346" lon="7.806268">
        <ele>180.529810</ele>
        <time>2026-08-24T20:05:02.751Z</time>
      </trkpt>
      <trkpt lat="48.212533" lon="7.806438">
        <ele>180.562324</ele>
        <time>2026-08-24T20:05:06.182Z</time>
      </trkpt>
      <trkpt lat="48.212484" lon="7.806644">
        <ele>180.604360</ele>
        <time>2026-08-24T20:05:09.472Z</time>
      </trkpt>
      <trkpt lat="48.212533" lon="7.806438">
        <ele>180.757704</ele>
        <time>2026-08-24T20:05:12.938Z</time>
      </trkpt>
      <trkpt lat="48.212556" lon="7.806356">
        <ele>180.820076</ele>
        <time>2026-08-24T20:05:14.364Z</time>
      </trkpt>
      <trkpt lat="48.212665" lon="7.806404">
        <ele>180.939586</ele>
        <time>2026-08-24T20:05:17.261Z</time>
      </trkpt>
      <trkpt lat="48.212780" lon="7.806399">
        <ele>181.060624</ele>
        <time>2026-08-24T20:05:20.178Z</time>
      </trkpt>
      <trkpt lat="48.213252" lon="7.806282">
        <ele>181.563926</ele>
        <time>2026-08-24T20:05:32.585Z</time>
      </trkpt>
      <trkpt lat="48.213356" lon="7.806245">
        <ele>181.676373</ele>
        <time>2026-08-24T20:05:35.231Z</time>
      </trkpt>
      <trkpt lat="48.213660" lon="7.806232">
        <ele>181.996330</ele>
        <time>2026-08-24T20:05:42.864Z</time>
      </trkpt>
      <trkpt lat="48.213712" lon="7.806234">
        <ele>182.051055</ele>
        <time>2026-08-24T20:05:43.952Z</time>
      </trkpt>
      <trkpt lat="48.213870" lon="7.806240">
        <ele>182.217334</ele>
        <time>2026-08-24T20:05:47.001Z</time>
      </trkpt>
      <trkpt lat="48.214194" lon="7.806276">
        <ele>182.492884</ele>
        <time>2026-08-24T20:05:53.145Z</time>
      </trkpt>
      <trkpt lat="48.214246" lon="7.806281">
        <ele>182.505571</ele>
        <time>2026-08-24T20:05:54.101Z</time>
      </trkpt>
      <trkpt lat="48.214349" lon="7.806290">
        <ele>182.530692</ele>
        <time>2026-08-24T20:05:55.993Z</time>
      </trkpt>
      <trkpt lat="48.214332" lon="7.806376">
        <ele>182.545246</ele>
        <time>2026-08-24T20:05:57.375Z</time>
      </trkpt>
      <trkpt lat="48.214595" lon="7.806415">
        <ele>182.609594</ele>
        <time>2026-08-24T20:06:01.999Z</time>
      </trkpt>
      <trkpt lat="48.214960" lon="7.806492">
        <ele>182.699340</ele>
        <time>2026-08-24T20:06:07.908Z</time>
      </trkpt>
      <trkpt lat="48.215083" lon="7.806462">
        <ele>182.729681</ele>
        <time>2026-08-24T20:06:09.757Z</time>
      </trkpt>
      <trkpt lat="48.215124" lon="7.805610">
        <ele>182.868272</ele>
        <time>2026-08-24T20:06:17.873Z</time>
      </trkpt>
      <trkpt lat="48.215138" lon="7.805423">
        <ele>182.898802</ele>
        <time>2026-08-24T20:06:19.637Z</time>
      </trkpt>
      <trkpt lat="48.215203" lon="7.804433">
        <ele>182.752007</ele>
        <time>2026-08-24T20:06:28.415Z</time>
      </trkpt>
      <trkpt lat="48.215200" lon="7.804118">
        <ele>182.697630</ele>
        <time>2026-08-24T20:06:31.251Z</time>
      </trkpt>
      <trkpt lat="48.215141" lon="7.803588">
        <ele>182.604879</ele>
        <time>2026-08-24T20:06:36.265Z</time>
      </trkpt>
      <trkpt lat="48.215036" lon="7.803211">
        <ele>182.534349</ele>
        <time>2026-08-24T20:06:40.217Z</time>
      </trkpt>
      <trkpt lat="48.214945" lon="7.802986">
        <ele>182.488917</ele>
        <time>2026-08-24T20:06:42.742Z</time>
      </trkpt>
      <trkpt lat="48.214784" lon="7.802676">
        <ele>182.414609</ele>
        <time>2026-08-24T20:06:46.545Z</time>
      </trkpt>
      <trkpt lat="48.214410" lon="7.802119">
        <ele>182.241151</ele>
        <time>2026-08-24T20:06:54.025Z</time>
      </trkpt>
      <trkpt lat="48.214073" lon="7.801603">
        <ele>182.082658</ele>
        <time>2026-08-24T20:07:00.767Z</time>
      </trkpt>
      <trkpt lat="48.213740" lon="7.801028">
        <ele>181.915544</ele>
        <time>2026-08-24T20:07:07.611Z</time>
      </trkpt>
      <trkpt lat="48.213360" lon="7.800233">
        <ele>181.547850</ele>
        <time>2026-08-24T20:07:16.060Z</time>
      </trkpt>
      <trkpt lat="48.212784" lon="7.798747">
        <ele>180.790733</ele>
        <time>2026-08-24T20:07:30.847Z</time>
      </trkpt>
      <trkpt lat="48.212759" lon="7.798685">
        <ele>180.758817</ele>
        <time>2026-08-24T20:07:31.459Z</time>
      </trkpt>
      <trkpt lat="48.212564" lon="7.798247">
        <ele>180.443281</ele>
        <time>2026-08-24T20:07:35.852Z</time>
      </trkpt>
      <trkpt lat="48.211586" lon="7.796329">
        <ele>178.746455</ele>
        <time>2026-08-24T20:07:55.028Z</time>
      </trkpt>
      <trkpt lat="48.211412" lon="7.795881">
        <ele>178.646603</ele>
        <time>2026-08-24T20:07:59.360Z</time>
      </trkpt>
      <trkpt lat="48.211245" lon="7.795347">
        <ele>178.533013</ele>
        <time>2026-08-24T20:08:04.614Z</time>
      </trkpt>
      <trkpt lat="48.211160" lon="7.794990">
        <ele>178.460012</ele>
        <time>2026-08-24T20:08:08.266Z</time>
      </trkpt>
      <trkpt lat="48.211025" lon="7.794258">
        <ele>178.313756</ele>
        <time>2026-08-24T20:08:16.129Z</time>
      </trkpt>
      <trkpt lat="48.210948" lon="7.793465">
        <ele>178.218034</ele>
        <time>2026-08-24T20:08:24.326Z</time>
      </trkpt>
      <trkpt lat="48.211081" lon="7.793417">
        <ele>178.210417</ele>
        <time>2026-08-24T20:08:26.431Z</time>
      </trkpt>
      <trkpt lat="48.210988" lon="7.793107">
        <ele>178.197802</ele>
        <time>2026-08-24T20:08:31.047Z</time>
      </trkpt>
      <trkpt lat="48.210925" lon="7.792153">
        <ele>178.162230</ele>
        <time>2026-08-24T20:08:43.834Z</time>
      </trkpt>
      <trkpt lat="48.210947" lon="7.791728">
        <ele>178.146412</ele>
        <time>2026-08-24T20:08:49.169Z</time>
      </trkpt>
      <trkpt lat="48.211000" lon="7.791284">
        <ele>178.121849</ele>
        <time>2026-08-24T20:08:54.759Z</time>
      </trkpt>
      <trkpt lat="48.211076" lon="7.791167">
        <ele>178.094147</ele>
        <time>2026-08-24T20:08:56.903Z</time>
      </trkpt>
      <trkpt lat="48.211245" lon="7.790992">
        <ele>178.041905</ele>
        <time>2026-08-24T20:09:01.107Z</time>
      </trkpt>
      <trkpt lat="48.211225" lon="7.790879">
        <ele>178.022082</ele>
        <time>2026-08-24T20:09:02.770Z</time>
      </trkpt>
      <trkpt lat="48.211606" lon="7.790334">
        <ele>177.888160</ele>
        <time>2026-08-24T20:09:10.534Z</time>
      </trkpt>
      <trkpt lat="48.211988" lon="7.789759">
        <ele>177.750501</ele>
        <time>2026-08-24T20:09:17.741Z</time>
      </trkpt>
      <trkpt lat="48.212423" lon="7.789084">
        <ele>177.633432</ele>
        <time>2026-08-24T20:09:25.977Z</time>
      </trkpt>
      <trkpt lat="48.212883" lon="7.788459">
        <ele>177.555753</ele>
        <time>2026-08-24T20:09:34.811Z</time>
      </trkpt>
      <trkpt lat="48.213036" lon="7.788278">
        <ele>177.531365</ele>
        <time>2026-08-24T20:09:37.565Z</time>
      </trkpt>
      <trkpt lat="48.213463" lon="7.787749">
        <ele>177.462051</ele>
        <time>2026-08-24T20:09:45.839Z</time>
      </trkpt>
      <trkpt lat="48.213589" lon="7.787488">
        <ele>177.458827</ele>
        <time>2026-08-24T20:09:49.294Z</time>
      </trkpt>
      <trkpt lat="48.213681" lon="7.787241">
        <ele>177.475345</ele>
        <time>2026-08-24T20:09:52.522Z</time>
      </trkpt>
      <trkpt lat="48.213826" lon="7.786929">
        <ele>177.497550</ele>
        <time>2026-08-24T20:09:58.247Z</time>
      </trkpt>
      <trkpt lat="48.213895" lon="7.786600">
        <ele>177.517684</ele>
        <time>2026-08-24T20:10:03.261Z</time>
      </trkpt>
      <trkpt lat="48.213919" lon="7.786528">
        <ele>177.522384</ele>
        <time>2026-08-24T20:10:04.053Z</time>
      </trkpt>
      <trkpt lat="48.214213" lon="7.785575">
        <ele>177.583688</ele>
        <time>2026-08-24T20:10:14.108Z</time>
      </trkpt>
      <trkpt lat="48.214338" lon="7.785098">
        <ele>177.586101</ele>
        <time>2026-08-24T20:10:18.973Z</time>
      </trkpt>
      <trkpt lat="48.214770" lon="7.782997">
        <ele>177.206760</ele>
        <time>2026-08-24T20:10:39.516Z</time>
      </trkpt>
      <trkpt lat="48.214879" lon="7.782533">
        <ele>177.100783</ele>
        <time>2026-08-24T20:10:43.939Z</time>
      </trkpt>
      <trkpt lat="48.214925" lon="7.782330">
        <ele>177.022891</ele>
        <time>2026-08-24T20:10:45.847Z</time>
      </trkpt>
      <trkpt lat="48.215042" lon="7.781847">
        <ele>176.836194</ele>
        <time>2026-08-24T20:10:50.404Z</time>
      </trkpt>
      <trkpt lat="48.215118" lon="7.781572">
        <ele>176.728043</ele>
        <time>2026-08-24T20:10:53.056Z</time>
      </trkpt>
      <trkpt lat="48.215214" lon="7.781256">
        <ele>176.601880</ele>
        <time>2026-08-24T20:10:56.106Z</time>
      </trkpt>
      <trkpt lat="48.215302" lon="7.780981">
        <ele>176.491057</ele>
        <time>2026-08-24T20:10:58.734Z</time>
      </trkpt>
      <trkpt lat="48.215471" lon="7.780468">
        <ele>176.283167</ele>
        <time>2026-08-24T20:11:03.580Z</time>
      </trkpt>
      <trkpt lat="48.215434" lon="7.780433">
        <ele>176.259322</ele>
        <time>2026-08-24T20:11:04.110Z</time>
      </trkpt>
      <trkpt lat="48.215631" lon="7.779853">
        <ele>176.020929</ele>
        <time>2026-08-24T20:11:09.700Z</time>
      </trkpt>
      <trkpt lat="48.215609" lon="7.779783">
        <ele>175.992424</ele>
        <time>2026-08-24T20:11:10.365Z</time>
      </trkpt>
      <trkpt lat="48.215503" lon="7.779691">
        <ele>175.924744</ele>
        <time>2026-08-24T20:11:11.974Z</time>
      </trkpt>
      <trkpt lat="48.215503" lon="7.779628">
        <ele>175.901541</ele>
        <time>2026-08-24T20:11:14.892Z</time>
      </trkpt>
      <trkpt lat="48.215505" lon="7.779524">
        <ele>175.863222</ele>
        <time>2026-08-24T20:11:19.676Z</time>
      </trkpt>
      <trkpt lat="48.215505" lon="7.779461">
        <ele>175.840020</ele>
        <time>2026-08-24T20:11:22.594Z</time>
      </trkpt>
      <trkpt lat="48.215308" lon="7.779453">
        <ele>175.731094</ele>
        <time>2026-08-24T20:11:26.239Z</time>
      </trkpt>
      <trkpt lat="48.214978" lon="7.779383">
        <ele>175.546883</ele>
        <time>2026-08-24T20:11:32.383Z</time>
      </trkpt>
      <trkpt lat="48.214016" lon="7.778954">
        <ele>175.062435</ele>
        <time>2026-08-24T20:11:51.166Z</time>
      </trkpt>
      <trkpt lat="48.213313" lon="7.778680">
        <ele>174.823023</ele>
        <time>2026-08-24T20:12:04.779Z</time>
      </trkpt>
      <trkpt lat="48.213145" lon="7.778645">
        <ele>174.767116</ele>
        <time>2026-08-24T20:12:08.033Z</time>
      </trkpt>
      <trkpt lat="48.212923" lon="7.778651">
        <ele>174.693928</ele>
        <time>2026-08-24T20:12:12.331Z</time>
      </trkpt>
      <trkpt lat="48.212897" lon="7.778651">
        <ele>174.685357</ele>
        <time>2026-08-24T20:12:12.818Z</time>
      </trkpt>
      <trkpt lat="48.212879" lon="7.778647">
        <ele>174.679360</ele>
        <time>2026-08-24T20:12:13.183Z</time>
      </trkpt>
      <trkpt lat="48.212771" lon="7.778627">
        <ele>174.643490</ele>
        <time>2026-08-24T20:12:15.303Z</time>
      </trkpt>
      <trkpt lat="48.212741" lon="7.778623">
        <ele>174.633563</ele>
        <time>2026-08-24T20:12:15.882Z</time>
      </trkpt>
      <trkpt lat="48.212417" lon="7.778574">
        <ele>174.552892</ele>
        <time>2026-08-24T20:12:22.230Z</time>
      </trkpt>
      <trkpt lat="48.212270" lon="7.778505">
        <ele>174.530850</ele>
        <time>2026-08-24T20:12:25.245Z</time>
      </trkpt>
      <trkpt lat="48.211855" lon="7.778458">
        <ele>174.471291</ele>
        <time>2026-08-24T20:12:33.542Z</time>
      </trkpt>
      <trkpt lat="48.211141" lon="7.778417">
        <ele>174.369036</ele>
        <time>2026-08-24T20:12:47.746Z</time>
      </trkpt>
      <trkpt lat="48.211094" lon="7.778447">
        <ele>174.361727</ele>
        <time>2026-08-24T20:12:48.763Z</time>
      </trkpt>
      <trkpt lat="48.210996" lon="7.778464">
        <ele>174.347609</ele>
        <time>2026-08-24T20:12:50.692Z</time>
      </trkpt>
      <trkpt lat="48.210904" lon="7.778466">
        <ele>174.334442</ele>
        <time>2026-08-24T20:12:52.500Z</time>
      </trkpt>
      <trkpt lat="48.209047" lon="7.778337">
        <ele>173.843908</ele>
        <time>2026-08-24T20:13:28.089Z</time>
      </trkpt>
      <trkpt lat="48.208353" lon="7.778343">
        <ele>173.759582</ele>
        <time>2026-08-24T20:13:41.548Z</time>
      </trkpt>
      <trkpt lat="48.207425" lon="7.778543">
        <ele>173.661300</ele>
        <time>2026-08-24T20:14:00.244Z</time>
      </trkpt>
      <trkpt lat="48.205920" lon="7.778901">
        <ele>173.712661</ele>
        <time>2026-08-24T20:14:23.242Z</time>
      </trkpt>
      <trkpt lat="48.204753" lon="7.779164">
        <ele>173.816180</ele>
        <time>2026-08-24T20:14:41.213Z</time>
      </trkpt>
      <trkpt lat="48.204687" lon="7.779183">
        <ele>173.823544</ele>
        <time>2026-08-24T20:14:42.573Z</time>
      </trkpt>
      <trkpt lat="48.203431" lon="7.779473">
        <ele>174.178700</ele>
        <time>2026-08-24T20:15:01.185Z</time>
      </trkpt>
      <trkpt lat="48.202581" lon="7.779580">
        <ele>175.154943</ele>
        <time>2026-08-24T20:15:17.470Z</time>
      </trkpt>
      <trkpt lat="48.202010" lon="7.779551">
        <ele>175.808828</ele>
        <time>2026-08-24T20:15:30.903Z</time>
      </trkpt>
      <trkpt lat="48.201774" lon="7.779508">
        <ele>176.026838</ele>
        <time>2026-08-24T20:15:36.022Z</time>
      </trkpt>
      <trkpt lat="48.201760" lon="7.779591">
        <ele>176.049305</ele>
        <time>2026-08-24T20:15:37.452Z</time>
      </trkpt>
      <trkpt lat="48.201736" lon="7.779585">
        <ele>176.058885</ele>
        <time>2026-08-24T20:15:37.960Z</time>
      </trkpt>
      <trkpt lat="48.201531" lon="7.779529">
        <ele>176.140924</ele>
        <time>2026-08-24T20:15:42.116Z</time>
      </trkpt>
      <trkpt lat="48.201450" lon="7.779499">
        <ele>176.173773</ele>
        <time>2026-08-24T20:15:43.589Z</time>
      </trkpt>
      <trkpt lat="48.201231" lon="7.779416">
        <ele>176.262706</ele>
        <time>2026-08-24T20:15:47.614Z</time>
      </trkpt>
      <trkpt lat="48.200971" lon="7.779282">
        <ele>176.370945</ele>
        <time>2026-08-24T20:15:52.163Z</time>
      </trkpt>
      <trkpt lat="48.200512" lon="7.779045">
        <ele>176.562066</ele>
        <time>2026-08-24T20:15:59.243Z</time>
      </trkpt>
      <trkpt lat="48.200238" lon="7.778884">
        <ele>176.677924</ele>
        <time>2026-08-24T20:16:02.721Z</time>
      </trkpt>
      <trkpt lat="48.199877" lon="7.778645">
        <ele>176.956646</ele>
        <time>2026-08-24T20:16:08.004Z</time>
      </trkpt>
      <trkpt lat="48.199580" lon="7.778404">
        <ele>177.219095</ele>
        <time>2026-08-24T20:16:13.366Z</time>
      </trkpt>
      <trkpt lat="48.198754" lon="7.777562">
        <ele>177.995293</ele>
        <time>2026-08-24T20:16:32.922Z</time>
      </trkpt>
      <trkpt lat="48.198362" lon="7.777037">
        <ele>178.810957</ele>
        <time>2026-08-24T20:16:44.804Z</time>
      </trkpt>
      <trkpt lat="48.197918" lon="7.776376">
        <ele>179.959186</ele>
        <time>2026-08-24T20:16:59.496Z</time>
      </trkpt>
      <trkpt lat="48.197737" lon="7.776106">
        <ele>180.427736</ele>
        <time>2026-08-24T20:17:05.027Z</time>
      </trkpt>
      <trkpt lat="48.197467" lon="7.775730">
        <ele>181.103989</ele>
        <time>2026-08-24T20:17:14.169Z</time>
      </trkpt>
      <trkpt lat="48.196813" lon="7.774979">
        <ele>180.994444</ele>
        <time>2026-08-24T20:17:29.864Z</time>
      </trkpt>
      <trkpt lat="48.196578" lon="7.774741">
        <ele>180.817162</ele>
        <time>2026-08-24T20:17:33.301Z</time>
      </trkpt>
      <trkpt lat="48.196346" lon="7.774484">
        <ele>180.636844</ele>
        <time>2026-08-24T20:17:36.652Z</time>
      </trkpt>
      <trkpt lat="48.196285" lon="7.774365">
        <ele>180.574278</ele>
        <time>2026-08-24T20:17:37.780Z</time>
      </trkpt>
      <trkpt lat="48.196225" lon="7.774257">
        <ele>180.515682</ele>
        <time>2026-08-24T20:17:38.844Z</time>
      </trkpt>
      <trkpt lat="48.196219" lon="7.774128">
        <ele>180.461787</ele>
        <time>2026-08-24T20:17:39.801Z</time>
      </trkpt>
      <trkpt lat="48.196185" lon="7.774058">
        <ele>180.425688</ele>
        <time>2026-08-24T20:17:40.463Z</time>
      </trkpt>
      <trkpt lat="48.196101" lon="7.774009">
        <ele>180.369337</ele>
        <time>2026-08-24T20:17:41.443Z</time>
      </trkpt>
      <trkpt lat="48.196034" lon="7.774033">
        <ele>180.326267</ele>
        <time>2026-08-24T20:17:42.203Z</time>
      </trkpt>
      <trkpt lat="48.195942" lon="7.773989">
        <ele>180.245196</ele>
        <time>2026-08-24T20:17:43.271Z</time>
      </trkpt>
      <trkpt lat="48.195828" lon="7.773936">
        <ele>180.073455</ele>
        <time>2026-08-24T20:17:44.529Z</time>
      </trkpt>
      <trkpt lat="48.195714" lon="7.773786">
        <ele>179.855252</ele>
        <time>2026-08-24T20:17:46.030Z</time>
      </trkpt>
      <trkpt lat="48.195629" lon="7.773665">
        <ele>179.686635</ele>
        <time>2026-08-24T20:17:47.188Z</time>
      </trkpt>
      <trkpt lat="48.195478" lon="7.773469">
        <ele>179.399303</ele>
        <time>2026-08-24T20:17:49.193Z</time>
      </trkpt>
      <trkpt lat="48.195399" lon="7.773354">
        <ele>179.240901</ele>
        <time>2026-08-24T20:17:50.381Z</time>
      </trkpt>
      <trkpt lat="48.195346" lon="7.773279">
        <ele>179.136057</ele>
        <time>2026-08-24T20:17:51.180Z</time>
      </trkpt>
      <trkpt lat="48.195199" lon="7.773058">
        <ele>178.836585</ele>
        <time>2026-08-24T20:17:53.839Z</time>
      </trkpt>
      <trkpt lat="48.194812" lon="7.772492">
        <ele>178.058840</ele>
        <time>2026-08-24T20:18:00.798Z</time>
      </trkpt>
      <trkpt lat="48.194234" lon="7.771848">
        <ele>177.788902</ele>
        <time>2026-08-24T20:18:10.823Z</time>
      </trkpt>
      <trkpt lat="48.193985" lon="7.771533">
        <ele>177.855514</ele>
        <time>2026-08-24T20:18:15.938Z</time>
      </trkpt>
      <trkpt lat="48.193412" lon="7.770694">
        <ele>178.019265</ele>
        <time>2026-08-24T20:18:29.331Z</time>
      </trkpt>
      <trkpt lat="48.193276" lon="7.770497">
        <ele>178.057928</ele>
        <time>2026-08-24T20:18:32.598Z</time>
      </trkpt>
      <trkpt lat="48.193042" lon="7.770123">
        <ele>178.157154</ele>
        <time>2026-08-24T20:18:38.410Z</time>
      </trkpt>
      <trkpt lat="48.192896" lon="7.769907">
        <ele>178.217581</ele>
        <time>2026-08-24T20:18:41.870Z</time>
      </trkpt>
      <trkpt lat="48.192850" lon="7.769842">
        <ele>178.236203</ele>
        <time>2026-08-24T20:18:42.939Z</time>
      </trkpt>
      <trkpt lat="48.192816" lon="7.769793">
        <ele>178.250097</ele>
        <time>2026-08-24T20:18:43.744Z</time>
      </trkpt>
      <trkpt lat="48.192716" lon="7.769677">
        <ele>178.287348</ele>
        <time>2026-08-24T20:18:45.893Z</time>
      </trkpt>
      <trkpt lat="48.192495" lon="7.769408">
        <ele>178.371215</ele>
        <time>2026-08-24T20:18:50.743Z</time>
      </trkpt>
      <trkpt lat="48.192241" lon="7.769121">
        <ele>178.464922</ele>
        <time>2026-08-24T20:18:56.020Z</time>
      </trkpt>
      <trkpt lat="48.192050" lon="7.768919">
        <ele>178.533788</ele>
        <time>2026-08-24T20:18:59.580Z</time>
      </trkpt>
      <trkpt lat="48.191698" lon="7.768548">
        <ele>178.406585</ele>
        <time>2026-08-24T20:19:05.432Z</time>
      </trkpt>
      <trkpt lat="48.191158" lon="7.767966">
        <ele>177.882614</ele>
        <time>2026-08-24T20:19:13.976Z</time>
      </trkpt>
      <trkpt lat="48.191059" lon="7.767867">
        <ele>177.788855</ele>
        <time>2026-08-24T20:19:15.487Z</time>
      </trkpt>
      <trkpt lat="48.190859" lon="7.767660">
        <ele>177.597379</ele>
        <time>2026-08-24T20:19:18.502Z</time>
      </trkpt>
      <trkpt lat="48.190671" lon="7.767405">
        <ele>177.397649</ele>
        <time>2026-08-24T20:19:21.513Z</time>
      </trkpt>
      <trkpt lat="48.190518" lon="7.767104">
        <ele>177.198805</ele>
        <time>2026-08-24T20:19:24.471Z</time>
      </trkpt>
      <trkpt lat="48.190477" lon="7.767015">
        <ele>177.140116</ele>
        <time>2026-08-24T20:19:25.321Z</time>
      </trkpt>
      <trkpt lat="48.190387" lon="7.766817">
        <ele>177.006942</ele>
        <time>2026-08-24T20:19:27.204Z</time>
      </trkpt>
      <trkpt lat="48.190291" lon="7.766637">
        <ele>176.878842</ele>
        <time>2026-08-24T20:19:29.013Z</time>
      </trkpt>
      <trkpt lat="48.190208" lon="7.766503">
        <ele>176.777196</ele>
        <time>2026-08-24T20:19:30.456Z</time>
      </trkpt>
      <trkpt lat="48.190000" lon="7.766236">
        <ele>176.548990</ele>
        <time>2026-08-24T20:19:33.707Z</time>
      </trkpt>
      <trkpt lat="48.189832" lon="7.766093">
        <ele>176.387971</ele>
        <time>2026-08-24T20:19:36.031Z</time>
      </trkpt>
      <trkpt lat="48.189628" lon="7.765984">
        <ele>176.207454</ele>
        <time>2026-08-24T20:19:38.739Z</time>
      </trkpt>
      <trkpt lat="48.189126" lon="7.765842">
        <ele>175.781620</ele>
        <time>2026-08-24T20:19:45.454Z</time>
      </trkpt>
      <trkpt lat="48.189070" lon="7.765831">
        <ele>175.734541</ele>
        <time>2026-08-24T20:19:46.238Z</time>
      </trkpt>
      <trkpt lat="48.188774" lon="7.765798">
        <ele>175.680115</ele>
        <time>2026-08-24T20:19:50.541Z</time>
      </trkpt>
      <trkpt lat="48.188721" lon="7.765793">
        <ele>175.681375</ele>
        <time>2026-08-24T20:19:51.337Z</time>
      </trkpt>
      <trkpt lat="48.188601" lon="7.765783">
        <ele>175.684227</ele>
        <time>2026-08-24T20:19:53.168Z</time>
      </trkpt>
      <trkpt lat="48.188501" lon="7.765774">
        <ele>175.686604</ele>
        <time>2026-08-24T20:19:54.705Z</time>
      </trkpt>
      <trkpt lat="48.188257" lon="7.765741">
        <ele>175.692418</ele>
        <time>2026-08-24T20:19:58.552Z</time>
      </trkpt>
      <trkpt lat="48.188177" lon="7.765733">
        <ele>175.694321</ele>
        <time>2026-08-24T20:19:59.837Z</time>
      </trkpt>
      <trkpt lat="48.187799" lon="7.765709">
        <ele>175.703299</ele>
        <time>2026-08-24T20:20:05.896Z</time>
      </trkpt>
      <trkpt lat="48.187697" lon="7.765706">
        <ele>175.705720</ele>
        <time>2026-08-24T20:20:07.524Z</time>
      </trkpt>
      <trkpt lat="48.187583" lon="7.765701">
        <ele>175.708427</ele>
        <time>2026-08-24T20:20:09.341Z</time>
      </trkpt>
      <trkpt lat="48.187555" lon="7.765700">
        <ele>175.709092</ele>
        <time>2026-08-24T20:20:09.778Z</time>
      </trkpt>
      <trkpt lat="48.187386" lon="7.765687">
        <ele>175.713107</ele>
        <time>2026-08-24T20:20:12.356Z</time>
      </trkpt>
      <trkpt lat="48.187267" lon="7.765673">
        <ele>175.715940</ele>
        <time>2026-08-24T20:20:14.128Z</time>
      </trkpt>
      <trkpt lat="48.187112" lon="7.765647">
        <ele>175.695068</ele>
        <time>2026-08-24T20:20:16.388Z</time>
      </trkpt>
      <trkpt lat="48.187090" lon="7.765641">
        <ele>175.689631</ele>
        <time>2026-08-24T20:20:16.696Z</time>
      </trkpt>
      <trkpt lat="48.186802" lon="7.765570">
        <ele>175.618664</ele>
        <time>2026-08-24T20:20:20.792Z</time>
      </trkpt>
      <trkpt lat="48.186805" lon="7.765492">
        <ele>175.605999</ele>
        <time>2026-08-24T20:20:26.547Z</time>
      </trkpt>
      <trkpt lat="48.186030" lon="7.765292">
        <ele>175.414789</ele>
        <time>2026-08-24T20:20:37.203Z</time>
      </trkpt>
      <trkpt lat="48.185895" lon="7.765225">
        <ele>175.380214</ele>
        <time>2026-08-24T20:20:39.137Z</time>
      </trkpt>
      <trkpt lat="48.185842" lon="7.765180">
        <ele>175.365405</ele>
        <time>2026-08-24T20:20:39.962Z</time>
      </trkpt>
      <trkpt lat="48.185775" lon="7.765044">
        <ele>175.337992</ele>
        <time>2026-08-24T20:20:41.528Z</time>
      </trkpt>
      <trkpt lat="48.185732" lon="7.765027">
        <ele>175.327180</ele>
        <time>2026-08-24T20:20:42.140Z</time>
      </trkpt>
      <trkpt lat="48.185735" lon="7.764807">
        <ele>175.291508</ele>
        <time>2026-08-24T20:20:44.193Z</time>
      </trkpt>
      <trkpt lat="48.185831" lon="7.764504">
        <ele>175.269288</ele>
        <time>2026-08-24T20:20:47.324Z</time>
      </trkpt>
      <trkpt lat="48.186239" lon="7.763590">
        <ele>175.224371</ele>
        <time>2026-08-24T20:20:57.888Z</time>
      </trkpt>
      <trkpt lat="48.186622" lon="7.762752">
        <ele>175.182884</ele>
        <time>2026-08-24T20:21:08.297Z</time>
      </trkpt>
      <trkpt lat="48.187010" lon="7.761948">
        <ele>175.028998</ele>
        <time>2026-08-24T20:21:18.010Z</time>
      </trkpt>
      <trkpt lat="48.187308" lon="7.761296">
        <ele>174.864142</ele>
        <time>2026-08-24T20:21:25.358Z</time>
      </trkpt>
      <trkpt lat="48.187841" lon="7.760145">
        <ele>174.551776</ele>
        <time>2026-08-24T20:21:37.587Z</time>
      </trkpt>
      <trkpt lat="48.187924" lon="7.760026">
        <ele>174.495486</ele>
        <time>2026-08-24T20:21:39.090Z</time>
      </trkpt>
      <trkpt lat="48.187998" lon="7.759924">
        <ele>174.446215</ele>
        <time>2026-08-24T20:21:40.403Z</time>
      </trkpt>
      <trkpt lat="48.188099" lon="7.759909">
        <ele>174.396456</ele>
        <time>2026-08-24T20:21:41.724Z</time>
      </trkpt>
      <trkpt lat="48.188142" lon="7.759864">
        <ele>174.370751</ele>
        <time>2026-08-24T20:21:42.408Z</time>
      </trkpt>
      <trkpt lat="48.188185" lon="7.759726">
        <ele>174.320963</ele>
        <time>2026-08-24T20:21:43.733Z</time>
      </trkpt>
      <trkpt lat="48.188155" lon="7.759565">
        <ele>174.266324</ele>
        <time>2026-08-24T20:21:45.211Z</time>
      </trkpt>
      <trkpt lat="48.188188" lon="7.759419">
        <ele>174.215936</ele>
        <time>2026-08-24T20:21:46.569Z</time>
      </trkpt>
      <trkpt lat="48.188268" lon="7.759136">
        <ele>174.115466</ele>
        <time>2026-08-24T20:21:49.277Z</time>
      </trkpt>
      <trkpt lat="48.188566" lon="7.758431">
        <ele>173.842627</ele>
        <time>2026-08-24T20:21:56.670Z</time>
      </trkpt>
      <trkpt lat="48.188876" lon="7.757495">
        <ele>173.673087</ele>
        <time>2026-08-24T20:22:06.068Z</time>
      </trkpt>
      <trkpt lat="48.189118" lon="7.756541">
        <ele>173.595153</ele>
        <time>2026-08-24T20:22:15.768Z</time>
      </trkpt>
      <trkpt lat="48.189316" lon="7.755513">
        <ele>173.529200</ele>
        <time>2026-08-24T20:22:26.750Z</time>
      </trkpt>
      <trkpt lat="48.189466" lon="7.754350">
        <ele>173.672728</ele>
        <time>2026-08-24T20:22:39.259Z</time>
      </trkpt>
      <trkpt lat="48.189544" lon="7.753420">
        <ele>173.786300</ele>
        <time>2026-08-24T20:22:49.006Z</time>
      </trkpt>
      <trkpt lat="48.189556" lon="7.753011">
        <ele>173.835904</ele>
        <time>2026-08-24T20:22:53.193Z</time>
      </trkpt>
      <trkpt lat="48.189528" lon="7.751224">
        <ele>173.926256</ele>
        <time>2026-08-24T20:23:11.087Z</time>
      </trkpt>
      <trkpt lat="48.189461" lon="7.748433">
        <ele>174.143459</ele>
        <time>2026-08-24T20:23:39.386Z</time>
      </trkpt>
      <trkpt lat="48.189452" lon="7.747670">
        <ele>174.215881</ele>
        <time>2026-08-24T20:23:47.566Z</time>
      </trkpt>
      <trkpt lat="48.189470" lon="7.747085">
        <ele>174.201517</ele>
        <time>2026-08-24T20:23:53.784Z</time>
      </trkpt>
      <trkpt lat="48.189552" lon="7.746275">
        <ele>174.150844</ele>
        <time>2026-08-24T20:24:02.150Z</time>
      </trkpt>
      <trkpt lat="48.189711" lon="7.745437">
        <ele>174.096956</ele>
        <time>2026-08-24T20:24:10.462Z</time>
      </trkpt>
      <trkpt lat="48.189955" lon="7.744588">
        <ele>173.913384</ele>
        <time>2026-08-24T20:24:18.621Z</time>
      </trkpt>
      <trkpt lat="48.190229" lon="7.743905">
        <ele>173.586784</ele>
        <time>2026-08-24T20:24:25.372Z</time>
      </trkpt>
      <trkpt lat="48.190840" lon="7.742614">
        <ele>172.944079</ele>
        <time>2026-08-24T20:24:38.851Z</time>
      </trkpt>
      <trkpt lat="48.190909" lon="7.742469">
        <ele>172.894393</ele>
        <time>2026-08-24T20:24:40.433Z</time>
      </trkpt>
      <trkpt lat="48.191199" lon="7.741776">
        <ele>172.666192</ele>
        <time>2026-08-24T20:24:47.755Z</time>
      </trkpt>
      <trkpt lat="48.191439" lon="7.741084">
        <ele>172.448639</ele>
        <time>2026-08-24T20:24:54.873Z</time>
      </trkpt>
      <trkpt lat="48.191914" lon="7.739480">
        <ele>172.086397</ele>
        <time>2026-08-24T20:25:10.872Z</time>
      </trkpt>
      <trkpt lat="48.192279" lon="7.738354">
        <ele>171.918429</ele>
        <time>2026-08-24T20:25:22.599Z</time>
      </trkpt>
      <trkpt lat="48.192508" lon="7.737741">
        <ele>171.842567</ele>
        <time>2026-08-24T20:25:29.390Z</time>
      </trkpt>
      <trkpt lat="48.192906" lon="7.736802">
        <ele>171.844024</ele>
        <time>2026-08-24T20:25:40.649Z</time>
      </trkpt>
      <trkpt lat="48.193942" lon="7.734664">
        <ele>171.891710</ele>
        <time>2026-08-24T20:26:06.669Z</time>
      </trkpt>
      <trkpt lat="48.194489" lon="7.733391">
        <ele>171.949001</ele>
        <time>2026-08-24T20:26:22.304Z</time>
      </trkpt>
      <trkpt lat="48.194756" lon="7.732606">
        <ele>171.911841</ele>
        <time>2026-08-24T20:26:31.023Z</time>
      </trkpt>
      <trkpt lat="48.194937" lon="7.731937">
        <ele>171.881396</ele>
        <time>2026-08-24T20:26:37.746Z</time>
      </trkpt>
      <trkpt lat="48.195163" lon="7.730796">
        <ele>171.851350</ele>
        <time>2026-08-24T20:26:49.024Z</time>
      </trkpt>
      <trkpt lat="48.195304" lon="7.729770">
        <ele>172.007497</ele>
        <time>2026-08-24T20:26:59.472Z</time>
      </trkpt>
      <trkpt lat="48.195490" lon="7.728014">
        <ele>172.277062</ele>
        <time>2026-08-24T20:27:19.337Z</time>
      </trkpt>
      <trkpt lat="48.195608" lon="7.727024">
        <ele>172.446595</ele>
        <time>2026-08-24T20:27:30.231Z</time>
      </trkpt>
      <trkpt lat="48.195620" lon="7.726933">
        <ele>172.462232</ele>
        <time>2026-08-24T20:27:31.244Z</time>
      </trkpt>
      <trkpt lat="48.195657" lon="7.726651">
        <ele>172.510681</ele>
        <time>2026-08-24T20:27:34.244Z</time>
      </trkpt>
      <trkpt lat="48.195673" lon="7.726534">
        <ele>172.530814</ele>
        <time>2026-08-24T20:27:35.505Z</time>
      </trkpt>
      <trkpt lat="48.195806" lon="7.725611">
        <ele>172.689999</ele>
        <time>2026-08-24T20:27:45.129Z</time>
      </trkpt>
      <trkpt lat="48.195915" lon="7.724838">
        <ele>172.791436</ele>
        <time>2026-08-24T20:27:52.900Z</time>
      </trkpt>
      <trkpt lat="48.196126" lon="7.723624">
        <ele>172.951465</ele>
        <time>2026-08-24T20:28:05.752Z</time>
      </trkpt>
      <trkpt lat="48.196534" lon="7.721543">
        <ele>173.392383</ele>
        <time>2026-08-24T20:28:29.665Z</time>
      </trkpt>
      <trkpt lat="48.196534" lon="7.721543">
        <ele>173.392383</ele>
        <time>2026-08-24T20:28:29.671Z</time>
      </trkpt>
      <trkpt lat="48.196528" lon="7.721586">
        <ele>173.402798</ele>
        <time>2026-08-24T20:28:30.213Z</time>
      </trkpt>
      <trkpt lat="48.196528" lon="7.721543">
        <ele>173.412992</ele>
        <time>2026-08-24T20:28:30.745Z</time>
      </trkpt>
      <trkpt lat="48.196721" lon="7.720706">
        <ele>173.622958</ele>
        <time>2026-08-24T20:28:41.686Z</time>
      </trkpt>
      <trkpt lat="48.196871" lon="7.719998">
        <ele>173.492895</ele>
        <time>2026-08-24T20:28:50.863Z</time>
      </trkpt>
      <trkpt lat="48.196893" lon="7.719419">
        <ele>173.286769</ele>
        <time>2026-08-24T20:28:58.027Z</time>
      </trkpt>
      <trkpt lat="48.196828" lon="7.719054">
        <ele>173.152488</ele>
        <time>2026-08-24T20:29:02.694Z</time>
      </trkpt>
      <trkpt lat="48.196936" lon="7.718947">
        <ele>173.083477</ele>
        <time>2026-08-24T20:29:05.093Z</time>
      </trkpt>
      <trkpt lat="48.196944" lon="7.718960">
        <ele>173.077188</ele>
        <time>2026-08-24T20:29:05.314Z</time>
      </trkpt>
      <trkpt lat="48.197423" lon="7.718302">
        <ele>172.730880</ele>
        <time>2026-08-24T20:29:13.225Z</time>
      </trkpt>
      <trkpt lat="48.200935" lon="7.715341">
        <ele>170.867571</ele>
        <time>2026-08-24T20:30:07.024Z</time>
      </trkpt>
      <trkpt lat="48.201326" lon="7.715066">
        <ele>170.747497</ele>
        <time>2026-08-24T20:30:12.745Z</time>
      </trkpt>
      <trkpt lat="48.201868" lon="7.714746">
        <ele>170.585541</ele>
        <time>2026-08-24T20:30:20.823Z</time>
      </trkpt>
      <trkpt lat="48.202063" lon="7.714769">
        <ele>170.531153</ele>
        <time>2026-08-24T20:30:23.631Z</time>
      </trkpt>
      <trkpt lat="48.203231" lon="7.715147">
        <ele>170.530315</ele>
        <time>2026-08-24T20:30:42.332Z</time>
      </trkpt>
      <trkpt lat="48.204477" lon="7.715326">
        <ele>170.408779</ele>
        <time>2026-08-24T20:31:00.926Z</time>
      </trkpt>
      <trkpt lat="48.205485" lon="7.715686">
        <ele>170.051825</ele>
        <time>2026-08-24T20:31:14.472Z</time>
      </trkpt>
      <trkpt lat="48.205705" lon="7.715732">
        <ele>169.975304</ele>
        <time>2026-08-24T20:31:17.443Z</time>
      </trkpt>
      <trkpt lat="48.205771" lon="7.715737">
        <ele>169.952538</ele>
        <time>2026-08-24T20:31:18.331Z</time>
      </trkpt>
      <trkpt lat="48.206713" lon="7.715836">
        <ele>169.845161</ele>
        <time>2026-08-24T20:31:31.681Z</time>
      </trkpt>
      <trkpt lat="48.207120" lon="7.715862">
        <ele>169.799735</ele>
        <time>2026-08-24T20:31:37.878Z</time>
      </trkpt>
      <trkpt lat="48.207274" lon="7.715837">
        <ele>169.782462</ele>
        <time>2026-08-24T20:31:40.189Z</time>
      </trkpt>
      <trkpt lat="48.207419" lon="7.715709">
        <ele>169.763702</ele>
        <time>2026-08-24T20:31:42.653Z</time>
      </trkpt>
      <trkpt lat="48.207922" lon="7.714973">
        <ele>169.715752</ele>
        <time>2026-08-24T20:31:52.898Z</time>
      </trkpt>
      <trkpt lat="48.208063" lon="7.714848">
        <ele>169.706225</ele>
        <time>2026-08-24T20:31:55.284Z</time>
      </trkpt>
      <trkpt lat="48.208252" lon="7.714818">
        <ele>169.695169</ele>
        <time>2026-08-24T20:31:58.109Z</time>
      </trkpt>
      <trkpt lat="48.208642" lon="7.714848">
        <ele>169.672452</ele>
        <time>2026-08-24T20:32:03.745Z</time>
      </trkpt>
      <trkpt lat="48.211505" lon="7.715020">
        <ele>169.402417</ele>
        <time>2026-08-24T20:32:45.000Z</time>
      </trkpt>
      <trkpt lat="48.211888" lon="7.715049">
        <ele>169.361927</ele>
        <time>2026-08-24T20:32:50.725Z</time>
      </trkpt>
      <trkpt lat="48.212499" lon="7.715098">
        <ele>169.297322</ele>
        <time>2026-08-24T20:32:59.723Z</time>
      </trkpt>
      <trkpt lat="48.212697" lon="7.715082">
        <ele>169.276386</ele>
        <time>2026-08-24T20:33:02.605Z</time>
      </trkpt>
      <trkpt lat="48.213217" lon="7.714886">
        <ele>169.187000</ele>
        <time>2026-08-24T20:33:10.267Z</time>
      </trkpt>
      <trkpt lat="48.213589" lon="7.714666">
        <ele>169.119251</ele>
        <time>2026-08-24T20:33:15.805Z</time>
      </trkpt>
      <trkpt lat="48.214659" lon="7.713796">
        <ele>168.956459</ele>
        <time>2026-08-24T20:33:32.946Z</time>
      </trkpt>
      <trkpt lat="48.216627" lon="7.712198">
        <ele>168.845965</ele>
        <time>2026-08-24T20:34:06.364Z</time>
      </trkpt>
      <trkpt lat="48.216881" lon="7.711952">
        <ele>168.824761</ele>
        <time>2026-08-24T20:34:10.608Z</time>
      </trkpt>
      <trkpt lat="48.217062" lon="7.711810">
        <ele>168.810436</ele>
        <time>2026-08-24T20:34:13.475Z</time>
      </trkpt>
      <trkpt lat="48.217217" lon="7.711765">
        <ele>168.799362</ele>
        <time>2026-08-24T20:34:15.705Z</time>
      </trkpt>
      <trkpt lat="48.217505" lon="7.711769">
        <ele>168.779160</ele>
        <time>2026-08-24T20:34:19.758Z</time>
      </trkpt>
      <trkpt lat="48.218774" lon="7.711943">
        <ele>168.876114</ele>
        <time>2026-08-24T20:34:38.831Z</time>
      </trkpt>
      <trkpt lat="48.219113" lon="7.711939">
        <ele>168.905044</ele>
        <time>2026-08-24T20:34:44.167Z</time>
      </trkpt>
      <trkpt lat="48.219740" lon="7.711791">
        <ele>168.990180</ele>
        <time>2026-08-24T20:34:54.088Z</time>
      </trkpt>
      <trkpt lat="48.220616" lon="7.711430">
        <ele>169.143024</ele>
        <time>2026-08-24T20:35:08.029Z</time>
      </trkpt>
      <trkpt lat="48.221431" lon="7.711076">
        <ele>169.202822</ele>
        <time>2026-08-24T20:35:21.203Z</time>
      </trkpt>
      <trkpt lat="48.221683" lon="7.710947">
        <ele>169.181047</ele>
        <time>2026-08-24T20:35:25.507Z</time>
      </trkpt>
      <trkpt lat="48.221771" lon="7.710887">
        <ele>169.173143</ele>
        <time>2026-08-24T20:35:27.082Z</time>
      </trkpt>
      <trkpt lat="48.222164" lon="7.710593">
        <ele>169.137231</ele>
        <time>2026-08-24T20:35:33.612Z</time>
      </trkpt>
      <trkpt lat="48.222244" lon="7.710514">
        <ele>169.129399</ele>
        <time>2026-08-24T20:35:34.975Z</time>
      </trkpt>
      <trkpt lat="48.222303" lon="7.710397">
        <ele>169.121404</ele>
        <time>2026-08-24T20:35:36.413Z</time>
      </trkpt>
      <trkpt lat="48.222159" lon="7.710296">
        <ele>169.108405</ele>
        <time>2026-08-24T20:35:38.627Z</time>
      </trkpt>
      <trkpt lat="48.221961" lon="7.709965">
        <ele>169.084167</ele>
        <time>2026-08-24T20:35:42.517Z</time>
      </trkpt>
      <trkpt lat="48.221937" lon="7.709902">
        <ele>169.064864</ele>
        <time>2026-08-24T20:35:43.109Z</time>
      </trkpt>
      <trkpt lat="48.221834" lon="7.709663">
        <ele>168.959334</ele>
        <time>2026-08-24T20:35:45.511Z</time>
      </trkpt>
      <trkpt lat="48.221769" lon="7.709517">
        <ele>168.894231</ele>
        <time>2026-08-24T20:35:46.993Z</time>
      </trkpt>
      <trkpt lat="48.221670" lon="7.709266">
        <ele>168.786089</ele>
        <time>2026-08-24T20:35:49.505Z</time>
      </trkpt>
      <trkpt lat="48.221685" lon="7.709175">
        <ele>168.751333</ele>
        <time>2026-08-24T20:35:50.327Z</time>
      </trkpt>
      <trkpt lat="48.221664" lon="7.709123">
        <ele>168.728789</ele>
        <time>2026-08-24T20:35:50.845Z</time>
      </trkpt>
      <trkpt lat="48.221465" lon="7.708628">
        <ele>168.514446</ele>
        <time>2026-08-24T20:35:55.710Z</time>
      </trkpt>
      <trkpt lat="48.221438" lon="7.708659">
        <ele>168.495530</ele>
        <time>2026-08-24T20:35:56.136Z</time>
      </trkpt>
      <trkpt lat="48.221335" lon="7.708458">
        <ele>168.401516</ele>
        <time>2026-08-24T20:35:58.232Z</time>
      </trkpt>
      <trkpt lat="48.221105" lon="7.707919">
        <ele>168.164207</ele>
        <time>2026-08-24T20:36:03.839Z</time>
      </trkpt>
      <trkpt lat="48.219064" lon="7.702987">
        <ele>167.915687</ele>
        <time>2026-08-24T20:37:00.630Z</time>
      </trkpt>
      <trkpt lat="48.218978" lon="7.702779">
        <ele>167.949732</ele>
        <time>2026-08-24T20:37:02.998Z</time>
      </trkpt>
      <trkpt lat="48.218935" lon="7.702674">
        <ele>167.966874</ele>
        <time>2026-08-24T20:37:04.198Z</time>
      </trkpt>
      <trkpt lat="48.218542" lon="7.701726">
        <ele>168.122160</ele>
        <time>2026-08-24T20:37:15.694Z</time>
      </trkpt>
      <trkpt lat="48.218221" lon="7.700923">
        <ele>168.252401</ele>
        <time>2026-08-24T20:37:26.161Z</time>
      </trkpt>
      <trkpt lat="48.218187" lon="7.700835">
        <ele>168.264195</ele>
        <time>2026-08-24T20:37:27.308Z</time>
      </trkpt>
      <trkpt lat="48.217827" lon="7.699914">
        <ele>168.105053</ele>
        <time>2026-08-24T20:37:38.801Z</time>
      </trkpt>
      <trkpt lat="48.217808" lon="7.699862">
        <ele>168.096214</ele>
        <time>2026-08-24T20:37:39.409Z</time>
      </trkpt>
      <trkpt lat="48.216762" lon="7.697082">
        <ele>167.269635</ele>
        <time>2026-08-24T20:38:06.906Z</time>
      </trkpt>
      <trkpt lat="48.215705" lon="7.694161">
        <ele>166.053678</ele>
        <time>2026-08-24T20:38:36.599Z</time>
      </trkpt>
      <trkpt lat="48.215332" lon="7.693328">
        <ele>165.705293</ele>
        <time>2026-08-24T20:38:44.822Z</time>
      </trkpt>
      <trkpt lat="48.214951" lon="7.692687">
        <ele>165.420431</ele>
        <time>2026-08-24T20:38:51.938Z</time>
      </trkpt>
      <trkpt lat="48.213703" lon="7.691284">
        <ele>165.203865</ele>
        <time>2026-08-24T20:39:14.300Z</time>
      </trkpt>
      <trkpt lat="48.213463" lon="7.690849">
        <ele>165.315503</ele>
        <time>2026-08-24T20:39:20.643Z</time>
      </trkpt>
      <trkpt lat="48.213244" lon="7.690284">
        <ele>165.444710</ele>
        <time>2026-08-24T20:39:28.342Z</time>
      </trkpt>
      <trkpt lat="48.213113" lon="7.690005">
        <ele>165.512178</ele>
        <time>2026-08-24T20:39:32.454Z</time>
      </trkpt>
      <trkpt lat="48.212446" lon="7.688995">
        <ele>166.034465</ele>
        <time>2026-08-24T20:39:48.877Z</time>
      </trkpt>
      <trkpt lat="48.211928" lon="7.688257">
        <ele>166.439361</ele>
        <time>2026-08-24T20:40:00.787Z</time>
      </trkpt>
      <trkpt lat="48.211966" lon="7.688203">
        <ele>166.469028</ele>
        <time>2026-08-24T20:40:05.046Z</time>
      </trkpt>
      <trkpt lat="48.209547" lon="7.684763">
        <ele>167.894619</ele>
        <time>2026-08-24T20:41:00.106Z</time>
      </trkpt>
      <trkpt lat="48.209238" lon="7.683910">
        <ele>168.179762</ele>
        <time>2026-08-24T20:41:10.728Z</time>
      </trkpt>
      <trkpt lat="48.208956" lon="7.683358">
        <ele>168.402921</ele>
        <time>2026-08-24T20:41:18.165Z</time>
      </trkpt>
      <trkpt lat="48.208765" lon="7.683152">
        <ele>168.516167</ele>
        <time>2026-08-24T20:41:22.030Z</time>
      </trkpt>
      <trkpt lat="48.208529" lon="7.683075">
        <ele>168.632444</ele>
        <time>2026-08-24T20:41:26.139Z</time>
      </trkpt>
      <trkpt lat="48.208118" lon="7.683187">
        <ele>168.833557</ele>
        <time>2026-08-24T20:41:33.279Z</time>
      </trkpt>
      <trkpt lat="48.208016" lon="7.683154">
        <ele>168.883793</ele>
        <time>2026-08-24T20:41:35.113Z</time>
      </trkpt>
      <trkpt lat="48.207970" lon="7.683291">
        <ele>168.933501</ele>
        <time>2026-08-24T20:41:39.211Z</time>
      </trkpt>
      <trkpt lat="48.207710" lon="7.683477">
        <ele>169.088089</ele>
        <time>2026-08-24T20:41:50.709Z</time>
      </trkpt>
      <trkpt lat="48.207696" lon="7.683570">
        <ele>169.122191</ele>
        <time>2026-08-24T20:41:53.236Z</time>
      </trkpt>
      <trkpt lat="48.206941" lon="7.683697">
        <ele>169.529935</ele>
        <time>2026-08-24T20:42:06.680Z</time>
      </trkpt>
      <trkpt lat="48.206225" lon="7.683828">
        <ele>169.899424</ele>
        <time>2026-08-24T20:42:18.495Z</time>
      </trkpt>
      <trkpt lat="48.205627" lon="7.683960">
        <ele>169.974748</ele>
        <time>2026-08-24T20:42:27.666Z</time>
      </trkpt>
      <trkpt lat="48.205387" lon="7.683978">
        <ele>170.004694</ele>
        <time>2026-08-24T20:42:30.961Z</time>
      </trkpt>
      <trkpt lat="48.204957" lon="7.683911">
        <ele>170.058568</ele>
        <time>2026-08-24T20:42:37.169Z</time>
      </trkpt>
      <trkpt lat="48.204650" lon="7.683720">
        <ele>170.099984</ele>
        <time>2026-08-24T20:42:42.400Z</time>
      </trkpt>
      <trkpt lat="48.204539" lon="7.683604">
        <ele>170.116841</ele>
        <time>2026-08-24T20:42:44.618Z</time>
      </trkpt>
      <trkpt lat="48.204345" lon="7.683356">
        <ele>170.239511</ele>
        <time>2026-08-24T20:42:48.873Z</time>
      </trkpt>
      <trkpt lat="48.204023" lon="7.682823">
        <ele>170.478132</ele>
        <time>2026-08-24T20:42:56.822Z</time>
      </trkpt>
      <trkpt lat="48.203446" lon="7.681905">
        <ele>170.896691</ele>
        <time>2026-08-24T20:43:11.804Z</time>
      </trkpt>
      <trkpt lat="48.202446" lon="7.680404">
        <ele>171.412577</ele>
        <time>2026-08-24T20:43:34.568Z</time>
      </trkpt>
      <trkpt lat="48.201953" lon="7.679646">
        <ele>171.630500</ele>
        <time>2026-08-24T20:43:45.980Z</time>
      </trkpt>
      <trkpt lat="48.201668" lon="7.679202">
        <ele>171.671192</ele>
        <time>2026-08-24T20:43:52.430Z</time>
      </trkpt>
      <trkpt lat="48.201608" lon="7.679112">
        <ele>171.679595</ele>
        <time>2026-08-24T20:43:53.721Z</time>
      </trkpt>
      <trkpt lat="48.201475" lon="7.678900">
        <ele>171.698814</ele>
        <time>2026-08-24T20:43:56.720Z</time>
      </trkpt>
      <trkpt lat="48.200852" lon="7.677991">
        <ele>171.784884</ele>
        <time>2026-08-24T20:44:09.698Z</time>
      </trkpt>
      <trkpt lat="48.200706" lon="7.677641">
        <ele>171.819033</ele>
        <time>2026-08-24T20:44:13.636Z</time>
      </trkpt>
      <trkpt lat="48.200641" lon="7.677560">
        <ele>171.832154</ele>
        <time>2026-08-24T20:44:14.858Z</time>
      </trkpt>
      <trkpt lat="48.199920" lon="7.677673">
        <ele>171.944723</ele>
        <time>2026-08-24T20:44:25.860Z</time>
      </trkpt>
      <trkpt lat="48.199229" lon="7.677818">
        <ele>172.053068</ele>
        <time>2026-08-24T20:44:37.371Z</time>
      </trkpt>
      <trkpt lat="48.199193" lon="7.677825">
        <ele>172.058705</ele>
        <time>2026-08-24T20:44:37.953Z</time>
      </trkpt>
      <trkpt lat="48.198744" lon="7.677874">
        <ele>172.035801</ele>
        <time>2026-08-24T20:44:44.934Z</time>
      </trkpt>
      <trkpt lat="48.198331" lon="7.677809">
        <ele>171.978911</ele>
        <time>2026-08-24T20:44:51.001Z</time>
      </trkpt>
      <trkpt lat="48.197540" lon="7.677630">
        <ele>171.869322</ele>
        <time>2026-08-24T20:45:02.153Z</time>
      </trkpt>
      <trkpt lat="48.197240" lon="7.677539">
        <ele>171.821119</ele>
        <time>2026-08-24T20:45:06.205Z</time>
      </trkpt>
      <trkpt lat="48.196966" lon="7.677358">
        <ele>171.733377</ele>
        <time>2026-08-24T20:45:10.129Z</time>
      </trkpt>
      <trkpt lat="48.196432" lon="7.676923">
        <ele>171.555293</ele>
        <time>2026-08-24T20:45:18.316Z</time>
      </trkpt>
      <trkpt lat="48.196206" lon="7.676751">
        <ele>171.481023</ele>
        <time>2026-08-24T20:45:21.810Z</time>
      </trkpt>
      <trkpt lat="48.195944" lon="7.676597">
        <ele>171.398554</ele>
        <time>2026-08-24T20:45:25.833Z</time>
      </trkpt>
      <trkpt lat="48.195826" lon="7.676528">
        <ele>171.361437</ele>
        <time>2026-08-24T20:45:27.674Z</time>
      </trkpt>
      <trkpt lat="48.195702" lon="7.676666">
        <ele>171.316188</ele>
        <time>2026-08-24T20:45:29.918Z</time>
      </trkpt>
      <trkpt lat="48.195575" lon="7.676884">
        <ele>171.306230</ele>
        <time>2026-08-24T20:45:32.681Z</time>
      </trkpt>
      <trkpt lat="48.195043" lon="7.677780">
        <ele>171.308607</ele>
        <time>2026-08-24T20:45:44.372Z</time>
      </trkpt>
      <trkpt lat="48.194570" lon="7.678558">
        <ele>171.310693</ele>
        <time>2026-08-24T20:45:55.425Z</time>
      </trkpt>
      <trkpt lat="48.194176" lon="7.679144">
        <ele>171.257807</ele>
        <time>2026-08-24T20:46:03.521Z</time>
      </trkpt>
      <trkpt lat="48.193851" lon="7.679454">
        <ele>171.208387</ele>
        <time>2026-08-24T20:46:08.958Z</time>
      </trkpt>
      <trkpt lat="48.193643" lon="7.679577">
        <ele>171.179697</ele>
        <time>2026-08-24T20:46:12.144Z</time>
      </trkpt>
      <trkpt lat="48.193352" lon="7.679649">
        <ele>171.141851</ele>
        <time>2026-08-24T20:46:16.339Z</time>
      </trkpt>
      <trkpt lat="48.192783" lon="7.679595">
        <ele>171.077643</ele>
        <time>2026-08-24T20:46:24.286Z</time>
      </trkpt>
      <trkpt lat="48.191816" lon="7.679456">
        <ele>171.049085</ele>
        <time>2026-08-24T20:46:38.373Z</time>
      </trkpt>
      <trkpt lat="48.191538" lon="7.679443">
        <ele>171.040909</ele>
        <time>2026-08-24T20:46:42.587Z</time>
      </trkpt>
      <trkpt lat="48.191302" lon="7.679482">
        <ele>171.033929</ele>
        <time>2026-08-24T20:46:46.176Z</time>
      </trkpt>
      <trkpt lat="48.191102" lon="7.679569">
        <ele>171.027808</ele>
        <time>2026-08-24T20:46:49.303Z</time>
      </trkpt>
      <trkpt lat="48.190439" lon="7.680056">
        <ele>170.893090</ele>
        <time>2026-08-24T20:47:00.453Z</time>
      </trkpt>
      <trkpt lat="48.190158" lon="7.680229">
        <ele>170.836831</ele>
        <time>2026-08-24T20:47:04.880Z</time>
      </trkpt>
      <trkpt lat="48.189474" lon="7.680582">
        <ele>170.702856</ele>
        <time>2026-08-24T20:47:14.828Z</time>
      </trkpt>
      <trkpt lat="48.188763" lon="7.680999">
        <ele>170.358411</ele>
        <time>2026-08-24T20:47:24.609Z</time>
      </trkpt>
      <trkpt lat="48.187656" lon="7.681880">
        <ele>169.923056</ele>
        <time>2026-08-24T20:47:41.091Z</time>
      </trkpt>
      <trkpt lat="48.187126" lon="7.682314">
        <ele>170.173182</ele>
        <time>2026-08-24T20:47:51.062Z</time>
      </trkpt>
      <trkpt lat="48.186616" lon="7.682811">
        <ele>170.425110</ele>
        <time>2026-08-24T20:48:01.682Z</time>
      </trkpt>
      <trkpt lat="48.186121" lon="7.683366">
        <ele>170.694915</ele>
        <time>2026-08-24T20:48:12.830Z</time>
      </trkpt>
      <trkpt lat="48.185254" lon="7.684417">
        <ele>171.232461</ele>
        <time>2026-08-24T20:48:31.351Z</time>
      </trkpt>
      <trkpt lat="48.184870" lon="7.684857">
        <ele>171.464529</ele>
        <time>2026-08-24T20:48:39.374Z</time>
      </trkpt>
      <trkpt lat="48.184283" lon="7.685464">
        <ele>171.533436</ele>
        <time>2026-08-24T20:48:50.676Z</time>
      </trkpt>
      <trkpt lat="48.182848" lon="7.686884">
        <ele>171.616825</ele>
        <time>2026-08-24T20:49:15.920Z</time>
      </trkpt>
      <trkpt lat="48.182329" lon="7.687331">
        <ele>171.596788</ele>
        <time>2026-08-24T20:49:24.711Z</time>
      </trkpt>
      <trkpt lat="48.181874" lon="7.687666">
        <ele>171.579817</ele>
        <time>2026-08-24T20:49:32.129Z</time>
      </trkpt>
      <trkpt lat="48.181654" lon="7.687832">
        <ele>171.602455</ele>
        <time>2026-08-24T20:49:35.754Z</time>
      </trkpt>
      <trkpt lat="48.180092" lon="7.688969">
        <ele>171.841315</ele>
        <time>2026-08-24T20:50:02.652Z</time>
      </trkpt>
      <trkpt lat="48.179142" lon="7.689702">
        <ele>172.092118</ele>
        <time>2026-08-24T20:50:19.871Z</time>
      </trkpt>
      <trkpt lat="48.178776" lon="7.690022">
        <ele>172.191574</ele>
        <time>2026-08-24T20:50:26.672Z</time>
      </trkpt>
      <trkpt lat="48.177835" lon="7.690939">
        <ele>172.294471</ele>
        <time>2026-08-24T20:50:43.055Z</time>
      </trkpt>
      <trkpt lat="48.177807" lon="7.690963">
        <ele>172.296546</ele>
        <time>2026-08-24T20:50:43.516Z</time>
      </trkpt>
      <trkpt lat="48.177611" lon="7.691141">
        <ele>172.311293</ele>
        <time>2026-08-24T20:50:46.872Z</time>
      </trkpt>
      <trkpt lat="48.177160" lon="7.691436">
        <ele>172.342959</ele>
        <time>2026-08-24T20:50:54.399Z</time>
      </trkpt>
      <trkpt lat="48.176396" lon="7.691732">
        <ele>172.632316</ele>
        <time>2026-08-24T20:51:07.110Z</time>
      </trkpt>
      <trkpt lat="48.176323" lon="7.691758">
        <ele>172.663236</ele>
        <time>2026-08-24T20:51:08.422Z</time>
      </trkpt>
      <trkpt lat="48.175001" lon="7.692055">
        <ele>173.107360</ele>
        <time>2026-08-24T20:51:30.954Z</time>
      </trkpt>
      <trkpt lat="48.174681" lon="7.692204">
        <ele>173.125902</ele>
        <time>2026-08-24T20:51:36.075Z</time>
      </trkpt>
      <trkpt lat="48.174479" lon="7.692336">
        <ele>173.138096</ele>
        <time>2026-08-24T20:51:39.341Z</time>
      </trkpt>
      <trkpt lat="48.173957" lon="7.692789">
        <ele>173.171471</ele>
        <time>2026-08-24T20:51:48.010Z</time>
      </trkpt>
      <trkpt lat="48.173708" lon="7.692973">
        <ele>173.186832</ele>
        <time>2026-08-24T20:51:51.909Z</time>
      </trkpt>
      <trkpt lat="48.172714" lon="7.693573">
        <ele>173.164334</ele>
        <time>2026-08-24T20:52:07.343Z</time>
      </trkpt>
      <trkpt lat="48.172272" lon="7.693754">
        <ele>173.152518</ele>
        <time>2026-08-24T20:52:14.279Z</time>
      </trkpt>
      <trkpt lat="48.172090" lon="7.693813">
        <ele>173.147715</ele>
        <time>2026-08-24T20:52:17.109Z</time>
      </trkpt>
      <trkpt lat="48.170730" lon="7.694260">
        <ele>173.215345</ele>
        <time>2026-08-24T20:52:38.478Z</time>
      </trkpt>
      <trkpt lat="48.170369" lon="7.694387">
        <ele>173.236588</ele>
        <time>2026-08-24T20:52:43.882Z</time>
      </trkpt>
      <trkpt lat="48.169945" lon="7.694472">
        <ele>173.240468</ele>
        <time>2026-08-24T20:52:50.139Z</time>
      </trkpt>
      <trkpt lat="48.169367" lon="7.694518">
        <ele>173.225130</ele>
        <time>2026-08-24T20:52:58.670Z</time>
      </trkpt>
      <trkpt lat="48.169052" lon="7.694591">
        <ele>173.216683</ele>
        <time>2026-08-24T20:53:03.402Z</time>
      </trkpt>
      <trkpt lat="48.168205" lon="7.695161">
        <ele>173.188788</ele>
        <time>2026-08-24T20:53:16.893Z</time>
      </trkpt>
      <trkpt lat="48.167877" lon="7.695340">
        <ele>173.175337</ele>
        <time>2026-08-24T20:53:22.027Z</time>
      </trkpt>
      <trkpt lat="48.167701" lon="7.695425">
        <ele>173.168211</ele>
        <time>2026-08-24T20:53:24.778Z</time>
      </trkpt>
      <trkpt lat="48.167358" lon="7.695507">
        <ele>173.154826</ele>
        <time>2026-08-24T20:53:29.860Z</time>
      </trkpt>
      <trkpt lat="48.166631" lon="7.695578">
        <ele>173.152674</ele>
        <time>2026-08-24T20:53:40.357Z</time>
      </trkpt>
      <trkpt lat="48.166276" lon="7.695626">
        <ele>173.248072</ele>
        <time>2026-08-24T20:53:45.844Z</time>
      </trkpt>
      <trkpt lat="48.166058" lon="7.695688">
        <ele>173.307458</ele>
        <time>2026-08-24T20:53:49.429Z</time>
      </trkpt>
      <trkpt lat="48.165274" lon="7.696180">
        <ele>173.534927</ele>
        <time>2026-08-24T20:54:03.126Z</time>
      </trkpt>
      <trkpt lat="48.165105" lon="7.696280">
        <ele>173.583553</ele>
        <time>2026-08-24T20:54:06.110Z</time>
      </trkpt>
      <trkpt lat="48.164628" lon="7.696445">
        <ele>173.692094</ele>
        <time>2026-08-24T20:54:14.306Z</time>
      </trkpt>
      <trkpt lat="48.163958" lon="7.696541">
        <ele>173.832983</ele>
        <time>2026-08-24T20:54:25.300Z</time>
      </trkpt>
      <trkpt lat="48.163712" lon="7.696519">
        <ele>173.884570</ele>
        <time>2026-08-24T20:54:29.187Z</time>
      </trkpt>
      <trkpt lat="48.163433" lon="7.696472">
        <ele>173.943340</ele>
        <time>2026-08-24T20:54:33.541Z</time>
      </trkpt>
      <trkpt lat="48.162702" lon="7.696341">
        <ele>173.888219</ele>
        <time>2026-08-24T20:54:43.842Z</time>
      </trkpt>
      <trkpt lat="48.162027" lon="7.696211">
        <ele>173.758567</ele>
        <time>2026-08-24T20:54:53.239Z</time>
      </trkpt>
      <trkpt lat="48.161767" lon="7.696169">
        <ele>173.708747</ele>
        <time>2026-08-24T20:54:56.826Z</time>
      </trkpt>
      <trkpt lat="48.161709" lon="7.696099">
        <ele>173.694562</ele>
        <time>2026-08-24T20:54:57.938Z</time>
      </trkpt>
      <trkpt lat="48.161635" lon="7.696092">
        <ele>173.680436</ele>
        <time>2026-08-24T20:54:58.935Z</time>
      </trkpt>
      <trkpt lat="48.161598" lon="7.696115">
        <ele>173.672805</ele>
        <time>2026-08-24T20:54:59.546Z</time>
      </trkpt>
      <trkpt lat="48.161548" lon="7.696204">
        <ele>173.658018</ele>
        <time>2026-08-24T20:55:00.625Z</time>
      </trkpt>
      <trkpt lat="48.161430" lon="7.696149">
        <ele>173.643925</ele>
        <time>2026-08-24T20:55:03.071Z</time>
      </trkpt>
      <trkpt lat="48.160212" lon="7.695969">
        <ele>173.615282</ele>
        <time>2026-08-24T20:55:27.767Z</time>
      </trkpt>
      <trkpt lat="48.158934" lon="7.695804">
        <ele>173.888520</ele>
        <time>2026-08-24T20:55:53.909Z</time>
      </trkpt>
      <trkpt lat="48.157658" lon="7.695619">
        <ele>174.430912</ele>
        <time>2026-08-24T20:56:22.954Z</time>
      </trkpt>
      <trkpt lat="48.156402" lon="7.695427">
        <ele>175.227644</ele>
        <time>2026-08-24T20:56:52.810Z</time>
      </trkpt>
      <trkpt lat="48.155121" lon="7.695275">
        <ele>175.359662</ele>
        <time>2026-08-24T20:57:18.880Z</time>
      </trkpt>
      <trkpt lat="48.153888" lon="7.695106">
        <ele>175.338584</ele>
        <time>2026-08-24T20:57:42.822Z</time>
      </trkpt>
      <trkpt lat="48.153372" lon="7.695069">
        <ele>175.361179</ele>
        <time>2026-08-24T20:57:53.290Z</time>
      </trkpt>
      <trkpt lat="48.152999" lon="7.695037">
        <ele>175.377520</ele>
        <time>2026-08-24T20:58:01.074Z</time>
      </trkpt>
      <trkpt lat="48.152582" lon="7.694956">
        <ele>175.395912</ele>
        <time>2026-08-24T20:58:10.019Z</time>
      </trkpt>
      <trkpt lat="48.152289" lon="7.694922">
        <ele>175.474909</ele>
        <time>2026-08-24T20:58:16.100Z</time>
      </trkpt>
      <trkpt lat="48.151271" lon="7.694778">
        <ele>175.798945</ele>
        <time>2026-08-24T20:58:38.026Z</time>
      </trkpt>
      <trkpt lat="48.151211" lon="7.694763">
        <ele>175.818222</ele>
        <time>2026-08-24T20:58:39.359Z</time>
      </trkpt>
      <trkpt lat="48.151114" lon="7.694743">
        <ele>175.849250</ele>
        <time>2026-08-24T20:58:41.452Z</time>
      </trkpt>
      <trkpt lat="48.151013" lon="7.694726">
        <ele>175.881458</ele>
        <time>2026-08-24T20:58:43.652Z</time>
      </trkpt>
      <trkpt lat="48.150922" lon="7.694719">
        <ele>175.910334</ele>
        <time>2026-08-24T20:58:45.623Z</time>
      </trkpt>
      <trkpt lat="48.150576" lon="7.694691">
        <ele>175.990503</ele>
        <time>2026-08-24T20:58:53.141Z</time>
      </trkpt>
      <trkpt lat="48.150532" lon="7.694687">
        <ele>175.996508</ele>
        <time>2026-08-24T20:58:54.108Z</time>
      </trkpt>
      <trkpt lat="48.150255" lon="7.694662">
        <ele>176.034306</ele>
        <time>2026-08-24T20:59:00.243Z</time>
      </trkpt>
      <trkpt lat="48.149665" lon="7.694610">
        <ele>176.114809</ele>
        <time>2026-08-24T20:59:12.928Z</time>
      </trkpt>
      <trkpt lat="48.149387" lon="7.694581">
        <ele>176.152767</ele>
        <time>2026-08-24T20:59:18.408Z</time>
      </trkpt>
      <trkpt lat="48.148837" lon="7.694526">
        <ele>176.226052</ele>
        <time>2026-08-24T20:59:29.148Z</time>
      </trkpt>
      <trkpt lat="48.148286" lon="7.694463">
        <ele>176.292119</ele>
        <time>2026-08-24T20:59:39.929Z</time>
      </trkpt>
      <trkpt lat="48.147068" lon="7.694327">
        <ele>176.489023</ele>
        <time>2026-08-24T21:00:05.497Z</time>
      </trkpt>
      <trkpt lat="48.146636" lon="7.694279">
        <ele>176.805696</ele>
        <time>2026-08-24T21:00:15.840Z</time>
      </trkpt>
      <trkpt lat="48.145798" lon="7.694186">
        <ele>177.419980</ele>
        <time>2026-08-24T21:00:36.132Z</time>
      </trkpt>
      <trkpt lat="48.145345" lon="7.694123">
        <ele>177.746884</ele>
        <time>2026-08-24T21:00:44.153Z</time>
      </trkpt>
      <trkpt lat="48.145075" lon="7.694086">
        <ele>177.826614</ele>
        <time>2026-08-24T21:00:48.704Z</time>
      </trkpt>
      <trkpt lat="48.144876" lon="7.694072">
        <ele>177.885198</ele>
        <time>2026-08-24T21:00:51.939Z</time>
      </trkpt>
      <trkpt lat="48.144772" lon="7.694132">
        <ele>177.917968</ele>
        <time>2026-08-24T21:00:53.737Z</time>
      </trkpt>
      <trkpt lat="48.144723" lon="7.694425">
        <ele>177.977238</ele>
        <time>2026-08-24T21:00:56.883Z</time>
      </trkpt>
      <trkpt lat="48.144466" lon="7.697037">
        <ele>178.542209</ele>
        <time>2026-08-24T21:01:24.153Z</time>
      </trkpt>
      <trkpt lat="48.144417" lon="7.698867">
        <ele>179.239955</ele>
        <time>2026-08-24T21:01:44.259Z</time>
      </trkpt>
      <trkpt lat="48.144458" lon="7.699085">
        <ele>179.511062</ele>
        <time>2026-08-24T21:01:47.027Z</time>
      </trkpt>
      <trkpt lat="48.144267" lon="7.699278">
        <ele>179.924296</ele>
        <time>2026-08-24T21:01:51.357Z</time>
      </trkpt>
      <trkpt lat="48.144145" lon="7.699383">
        <ele>180.176669</ele>
        <time>2026-08-24T21:01:54.152Z</time>
      </trkpt>
      <trkpt lat="48.143349" lon="7.700023">
        <ele>181.797107</ele>
        <time>2026-08-24T21:02:14.308Z</time>
      </trkpt>
      <trkpt lat="48.143162" lon="7.700173">
        <ele>182.261394</ele>
        <time>2026-08-24T21:02:20.189Z</time>
      </trkpt>
      <trkpt lat="48.143019" lon="7.700237">
        <ele>183.103701</ele>
        <time>2026-08-24T21:02:24.493Z</time>
      </trkpt>
      <trkpt lat="48.142851" lon="7.700230">
        <ele>184.052251</ele>
        <time>2026-08-24T21:02:29.615Z</time>
      </trkpt>
      <trkpt lat="48.142632" lon="7.700151">
        <ele>185.323581</ele>
        <time>2026-08-24T21:02:37.230Z</time>
      </trkpt>
      <trkpt lat="48.142503" lon="7.700778">
        <ele>187.794616</ele>
        <time>2026-08-24T21:02:53.652Z</time>
      </trkpt>
      <trkpt lat="48.142404" lon="7.701239">
        <ele>189.618486</ele>
        <time>2026-08-24T21:03:07.634Z</time>
      </trkpt>
      <trkpt lat="48.141996" lon="7.701093">
        <ele>191.985956</ele>
        <time>2026-08-24T21:03:27.156Z</time>
      </trkpt>
      <trkpt lat="48.141766" lon="7.701039">
        <ele>192.931936</ele>
        <time>2026-08-24T21:03:37.768Z</time>
      </trkpt>
      <trkpt lat="48.141554" lon="7.700989">
        <ele>193.701855</ele>
        <time>2026-08-24T21:03:46.747Z</time>
      </trkpt>
      <trkpt lat="48.141495" lon="7.700981">
        <ele>193.914384</ele>
        <time>2026-08-24T21:03:49.055Z</time>
      </trkpt>
      <trkpt lat="48.141355" lon="7.700961">
        <ele>194.418916</ele>
        <time>2026-08-24T21:03:55.052Z</time>
      </trkpt>
      <trkpt lat="48.140850" lon="7.700858">
        <ele>196.247325</ele>
        <time>2026-08-24T21:04:12.897Z</time>
      </trkpt>
      <trkpt lat="48.140714" lon="7.700880">
        <ele>196.738064</ele>
        <time>2026-08-24T21:04:16.867Z</time>
      </trkpt>
      <trkpt lat="48.140333" lon="7.701061">
        <ele>198.171955</ele>
        <time>2026-08-24T21:04:27.104Z</time>
      </trkpt>
      <trkpt lat="48.140127" lon="7.701223">
        <ele>198.642043</ele>
        <time>2026-08-24T21:04:31.816Z</time>
      </trkpt>
      <trkpt lat="48.139619" lon="7.701637">
        <ele>197.850685</ele>
        <time>2026-08-24T21:04:41.694Z</time>
      </trkpt>
      <trkpt lat="48.139309" lon="7.701859">
        <ele>197.380493</ele>
        <time>2026-08-24T21:04:46.940Z</time>
      </trkpt>
      <trkpt lat="48.139133" lon="7.702076">
        <ele>197.068588</ele>
        <time>2026-08-24T21:04:50.367Z</time>
      </trkpt>
      <trkpt lat="48.139069" lon="7.702206">
        <ele>196.921055</ele>
        <time>2026-08-24T21:04:52.026Z</time>
      </trkpt>
      <trkpt lat="48.138998" lon="7.702379">
        <ele>196.735578</ele>
        <time>2026-08-24T21:04:54.177Z</time>
      </trkpt>
      <trkpt lat="48.138942" lon="7.702526">
        <ele>196.580997</ele>
        <time>2026-08-24T21:04:56.009Z</time>
      </trkpt>
      <trkpt lat="48.138664" lon="7.703312">
        <ele>196.317408</ele>
        <time>2026-08-24T21:05:06.150Z</time>
      </trkpt>
      <trkpt lat="48.138554" lon="7.703332">
        <ele>196.328108</ele>
        <time>2026-08-24T21:05:07.395Z</time>
      </trkpt>
      <trkpt lat="48.138401" lon="7.703294">
        <ele>196.343082</ele>
        <time>2026-08-24T21:05:09.101Z</time>
      </trkpt>
      <trkpt lat="48.138070" lon="7.703186">
        <ele>196.375791</ele>
        <time>2026-08-24T21:05:12.862Z</time>
      </trkpt>
      <trkpt lat="48.137893" lon="7.703139">
        <ele>196.393148</ele>
        <time>2026-08-24T21:05:15.147Z</time>
      </trkpt>
      <trkpt lat="48.137622" lon="7.703131">
        <ele>196.419320</ele>
        <time>2026-08-24T21:05:19.894Z</time>
      </trkpt>
      <trkpt lat="48.137173" lon="7.703332">
        <ele>197.018085</ele>
        <time>2026-08-24T21:05:33.443Z</time>
      </trkpt>
      <trkpt lat="48.137071" lon="7.703399">
        <ele>197.645151</ele>
        <time>2026-08-24T21:05:37.073Z</time>
      </trkpt>
      <trkpt lat="48.136775" lon="7.703653">
        <ele>199.565708</ele>
        <time>2026-08-24T21:05:48.745Z</time>
      </trkpt>
      <trkpt lat="48.136756" lon="7.703669">
        <ele>199.688424</ele>
        <time>2026-08-24T21:05:49.509Z</time>
      </trkpt>
      <trkpt lat="48.136654" lon="7.703754">
        <ele>200.345571</ele>
        <time>2026-08-24T21:05:53.575Z</time>
      </trkpt>
      <trkpt lat="48.136480" lon="7.703764">
        <ele>201.325997</ele>
        <time>2026-08-24T21:05:59.695Z</time>
      </trkpt>
      <trkpt lat="48.135863" lon="7.703347">
        <ele>205.137031</ele>
        <time>2026-08-24T21:06:28.821Z</time>
      </trkpt>
      <trkpt lat="48.135485" lon="7.703164">
        <ele>207.330491</ele>
        <time>2026-08-24T21:06:47.267Z</time>
      </trkpt>
      <trkpt lat="48.135325" lon="7.703141">
        <ele>208.186118</ele>
        <time>2026-08-24T21:06:54.044Z</time>
      </trkpt>
      <trkpt lat="48.134726" lon="7.703140">
        <ele>211.374735</ele>
        <time>2026-08-24T21:07:15.203Z</time>
      </trkpt>
      <trkpt lat="48.134439" lon="7.703032">
        <ele>212.949945</ele>
        <time>2026-08-24T21:07:24.655Z</time>
      </trkpt>
      <trkpt lat="48.134147" lon="7.702903">
        <ele>214.570481</ele>
        <time>2026-08-24T21:07:34.988Z</time>
      </trkpt>
      <trkpt lat="48.133487" lon="7.702804">
        <ele>217.576616</ele>
        <time>2026-08-24T21:07:56.797Z</time>
      </trkpt>
      <trkpt lat="48.132331" lon="7.702859">
        <ele>222.071967</ele>
        <time>2026-08-24T21:08:35.630Z</time>
      </trkpt>
      <trkpt lat="48.132267" lon="7.702877">
        <ele>222.325064</ele>
        <time>2026-08-24T21:08:37.427Z</time>
      </trkpt>
      <trkpt lat="48.131691" lon="7.703285">
        <ele>223.392475</ele>
        <time>2026-08-24T21:08:49.802Z</time>
      </trkpt>
      <trkpt lat="48.131489" lon="7.703546">
        <ele>223.545966</ele>
        <time>2026-08-24T21:08:53.590Z</time>
      </trkpt>
      <trkpt lat="48.131402" lon="7.703690">
        <ele>223.620565</ele>
        <time>2026-08-24T21:08:55.224Z</time>
      </trkpt>
      <trkpt lat="48.131242" lon="7.703962">
        <ele>223.759813</ele>
        <time>2026-08-24T21:08:58.078Z</time>
      </trkpt>
      <trkpt lat="48.131137" lon="7.704051">
        <ele>223.829233</ele>
        <time>2026-08-24T21:08:59.534Z</time>
      </trkpt>
      <trkpt lat="48.131002" lon="7.704164">
        <ele>223.918218</ele>
        <time>2026-08-24T21:09:01.409Z</time>
      </trkpt>
      <trkpt lat="48.130243" lon="7.704587">
        <ele>225.803463</ele>
        <time>2026-08-24T21:09:15.426Z</time>
      </trkpt>
      <trkpt lat="48.129476" lon="7.704976">
        <ele>229.550244</ele>
        <time>2026-08-24T21:09:45.194Z</time>
      </trkpt>
      <trkpt lat="48.128959" lon="7.705084">
        <ele>231.965578</ele>
        <time>2026-08-24T21:10:06.260Z</time>
      </trkpt>
      <trkpt lat="48.128877" lon="7.705119">
        <ele>232.360095</ele>
        <time>2026-08-24T21:10:09.633Z</time>
      </trkpt>
      <trkpt lat="48.128752" lon="7.705248">
        <ele>233.382882</ele>
        <time>2026-08-24T21:10:15.927Z</time>
      </trkpt>
      <trkpt lat="48.128399" lon="7.705783">
        <ele>237.042167</ele>
        <time>2026-08-24T21:10:37.071Z</time>
      </trkpt>
      <trkpt lat="48.128226" lon="7.705930">
        <ele>238.491592</ele>
        <time>2026-08-24T21:10:45.645Z</time>
      </trkpt>
      <trkpt lat="48.127387" lon="7.706328">
        <ele>244.905139</ele>
        <time>2026-08-24T21:11:24.795Z</time>
      </trkpt>
      <trkpt lat="48.127004" lon="7.706531">
        <ele>248.315003</ele>
        <time>2026-08-24T21:11:44.708Z</time>
      </trkpt>
      <trkpt lat="48.126821" lon="7.706687">
        <ele>250.155354</ele>
        <time>2026-08-24T21:11:55.441Z</time>
      </trkpt>
      <trkpt lat="48.126587" lon="7.706962">
        <ele>252.754871</ele>
        <time>2026-08-24T21:12:11.282Z</time>
      </trkpt>
      <trkpt lat="48.126408" lon="7.707266">
        <ele>255.119961</ele>
        <time>2026-08-24T21:12:25.907Z</time>
      </trkpt>
      <trkpt lat="48.126178" lon="7.707784">
        <ele>258.749708</ele>
        <time>2026-08-24T21:12:47.617Z</time>
      </trkpt>
      <trkpt lat="48.126136" lon="7.707880">
        <ele>259.419391</ele>
        <time>2026-08-24T21:12:51.618Z</time>
      </trkpt>
      <trkpt lat="48.125917" lon="7.708201">
        <ele>261.740930</ele>
        <time>2026-08-24T21:13:06.700Z</time>
      </trkpt>
      <trkpt lat="48.125747" lon="7.708373">
        <ele>262.696321</ele>
        <time>2026-08-24T21:13:16.076Z</time>
      </trkpt>
      <trkpt lat="48.125492" lon="7.708533">
        <ele>263.983895</ele>
        <time>2026-08-24T21:13:26.934Z</time>
      </trkpt>
      <trkpt lat="48.125253" lon="7.708592">
        <ele>265.112008</ele>
        <time>2026-08-24T21:13:34.922Z</time>
      </trkpt>
      <trkpt lat="48.125146" lon="7.708648">
        <ele>265.639876</ele>
        <time>2026-08-24T21:13:38.313Z</time>
      </trkpt>
      <trkpt lat="48.124946" lon="7.708838">
        <ele>266.742837</ele>
        <time>2026-08-24T21:13:44.844Z</time>
      </trkpt>
      <trkpt lat="48.124901" lon="7.708918">
        <ele>267.068072</ele>
        <time>2026-08-24T21:13:46.659Z</time>
      </trkpt>
      <trkpt lat="48.124886" lon="7.708977">
        <ele>267.264345</ele>
        <time>2026-08-24T21:13:47.778Z</time>
      </trkpt>
      <trkpt lat="48.124851" lon="7.709088">
        <ele>267.645987</ele>
        <time>2026-08-24T21:13:49.851Z</time>
      </trkpt>
      <trkpt lat="48.124755" lon="7.709496">
        <ele>268.990878</ele>
        <time>2026-08-24T21:13:58.605Z</time>
      </trkpt>
      <trkpt lat="48.124638" lon="7.709745">
        <ele>269.964253</ele>
        <time>2026-08-24T21:14:04.397Z</time>
      </trkpt>
      <trkpt lat="48.124432" lon="7.709947">
        <ele>271.246325</ele>
        <time>2026-08-24T21:14:11.361Z</time>
      </trkpt>
      <trkpt lat="48.123910" lon="7.710132">
        <ele>274.039578</ele>
        <time>2026-08-24T21:14:29.289Z</time>
      </trkpt>
      <trkpt lat="48.122757" lon="7.710157">
        <ele>279.954075</ele>
        <time>2026-08-24T21:15:26.490Z</time>
      </trkpt>
      <trkpt lat="48.122325" lon="7.710404">
        <ele>282.137355</ele>
        <time>2026-08-24T21:15:48.947Z</time>
      </trkpt>
      <trkpt lat="48.122102" lon="7.710671">
        <ele>283.485276</ele>
        <time>2026-08-24T21:16:01.542Z</time>
      </trkpt>
      <trkpt lat="48.121851" lon="7.711042">
        <ele>285.150200</ele>
        <time>2026-08-24T21:16:15.703Z</time>
      </trkpt>
      <trkpt lat="48.121551" lon="7.711565">
        <ele>287.323659</ele>
        <time>2026-08-24T21:16:30.546Z</time>
      </trkpt>
      <trkpt lat="48.121267" lon="7.712232">
        <ele>285.579746</ele>
        <time>2026-08-24T21:16:40.031Z</time>
      </trkpt>
      <trkpt lat="48.121057" lon="7.712512">
        <ele>284.404184</ele>
        <time>2026-08-24T21:16:44.021Z</time>
      </trkpt>
      <trkpt lat="48.120402" lon="7.713027">
        <ele>281.310973</ele>
        <time>2026-08-24T21:16:53.536Z</time>
      </trkpt>
      <trkpt lat="48.120300" lon="7.713116">
        <ele>280.817384</ele>
        <time>2026-08-24T21:16:55.027Z</time>
      </trkpt>
      <trkpt lat="48.120266" lon="7.713146">
        <ele>280.652384</ele>
        <time>2026-08-24T21:16:55.539Z</time>
      </trkpt>
      <trkpt lat="48.120233" lon="7.713199">
        <ele>280.450076</ele>
        <time>2026-08-24T21:16:56.145Z</time>
      </trkpt>
      <trkpt lat="48.120148" lon="7.713652">
        <ele>279.486195</ele>
        <time>2026-08-24T21:17:00.126Z</time>
      </trkpt>
      <trkpt lat="48.120037" lon="7.713620">
        <ele>279.194655</ele>
        <time>2026-08-24T21:17:01.581Z</time>
      </trkpt>
      <trkpt lat="48.119799" lon="7.713404">
        <ele>278.476942</ele>
        <time>2026-08-24T21:17:05.282Z</time>
      </trkpt>
      <trkpt lat="48.119240" lon="7.713085">
        <ele>276.934113</ele>
        <time>2026-08-24T21:17:14.293Z</time>
      </trkpt>
      <trkpt lat="48.118852" lon="7.712907">
        <ele>275.887519</ele>
        <time>2026-08-24T21:17:24.474Z</time>
      </trkpt>
      <trkpt lat="48.118522" lon="7.712880">
        <ele>275.292601</ele>
        <time>2026-08-24T21:17:34.431Z</time>
      </trkpt>
      <trkpt lat="48.118232" lon="7.712923">
        <ele>275.057218</ele>
        <time>2026-08-24T21:17:42.792Z</time>
      </trkpt>
      <trkpt lat="48.118014" lon="7.713004">
        <ele>274.875799</ele>
        <time>2026-08-24T21:17:48.498Z</time>
      </trkpt>
      <trkpt lat="48.117519" lon="7.713161">
        <ele>274.467115</ele>
        <time>2026-08-24T21:17:58.052Z</time>
      </trkpt>
      <trkpt lat="48.117468" lon="7.713178">
        <ele>274.424913</ele>
        <time>2026-08-24T21:17:58.916Z</time>
      </trkpt>
      <trkpt lat="48.117165" lon="7.713243">
        <ele>274.177678</ele>
        <time>2026-08-24T21:18:03.508Z</time>
      </trkpt>
      <trkpt lat="48.116810" lon="7.713223">
        <ele>273.649787</ele>
        <time>2026-08-24T21:18:08.476Z</time>
      </trkpt>
      <trkpt lat="48.116734" lon="7.713205">
        <ele>273.362349</ele>
        <time>2026-08-24T21:18:09.525Z</time>
      </trkpt>
      <trkpt lat="48.116586" lon="7.713032">
        <ele>272.661040</ele>
        <time>2026-08-24T21:18:12.080Z</time>
      </trkpt>
      <trkpt lat="48.116509" lon="7.712982">
        <ele>272.347526</ele>
        <time>2026-08-24T21:18:13.202Z</time>
      </trkpt>
      <trkpt lat="48.116214" lon="7.712875">
        <ele>271.213652</ele>
        <time>2026-08-24T21:18:17.275Z</time>
      </trkpt>
      <trkpt lat="48.115817" lon="7.712805">
        <ele>269.720350</ele>
        <time>2026-08-24T21:18:22.804Z</time>
      </trkpt>
      <trkpt lat="48.115635" lon="7.712815">
        <ele>269.040000</ele>
        <time>2026-08-24T21:18:25.426Z</time>
      </trkpt>
      <trkpt lat="48.115339" lon="7.712817">
        <ele>267.934229</ele>
        <time>2026-08-24T21:18:29.830Z</time>
      </trkpt>
      <trkpt lat="48.115043" lon="7.712966">
        <ele>266.796873</ele>
        <time>2026-08-24T21:18:34.689Z</time>
      </trkpt>
      <trkpt lat="48.114782" lon="7.713157">
        <ele>265.779026</ele>
        <time>2026-08-24T21:18:39.296Z</time>
      </trkpt>
      <trkpt lat="48.114525" lon="7.713400">
        <ele>264.714093</ele>
        <time>2026-08-24T21:18:43.996Z</time>
      </trkpt>
      <trkpt lat="48.114652" lon="7.713825">
        <ele>263.624811</ele>
        <time>2026-08-24T21:18:47.213Z</time>
      </trkpt>
      <trkpt lat="48.114676" lon="7.714082">
        <ele>263.017737</ele>
        <time>2026-08-24T21:18:48.937Z</time>
      </trkpt>
      <trkpt lat="48.114617" lon="7.714382">
        <ele>262.286108</ele>
        <time>2026-08-24T21:18:50.965Z</time>
      </trkpt>
      <trkpt lat="48.114539" lon="7.714586">
        <ele>261.736153</ele>
        <time>2026-08-24T21:18:52.456Z</time>
      </trkpt>
      <trkpt lat="48.114451" lon="7.714725">
        <ele>261.288028</ele>
        <time>2026-08-24T21:18:53.655Z</time>
      </trkpt>
      <trkpt lat="48.114269" lon="7.714898">
        <ele>260.236212</ele>
        <time>2026-08-24T21:18:55.650Z</time>
      </trkpt>
      <trkpt lat="48.113702" lon="7.715208">
        <ele>256.565078</ele>
        <time>2026-08-24T21:19:01.157Z</time>
      </trkpt>
      <trkpt lat="48.113337" lon="7.715721">
        <ele>253.520756</ele>
        <time>2026-08-24T21:19:05.710Z</time>
      </trkpt>
      <trkpt lat="48.113222" lon="7.715996">
        <ele>252.203078</ele>
        <time>2026-08-24T21:19:07.682Z</time>
      </trkpt>
      <trkpt lat="48.114184" lon="7.716907">
        <ele>245.641491</ele>
        <time>2026-08-24T21:19:18.092Z</time>
      </trkpt>
      <trkpt lat="48.114222" lon="7.716940">
        <ele>245.394774</ele>
        <time>2026-08-24T21:19:18.496Z</time>
      </trkpt>
      <trkpt lat="48.114826" lon="7.717433">
        <ele>241.531217</ele>
        <time>2026-08-24T21:19:24.874Z</time>
      </trkpt>
      <trkpt lat="48.115106" lon="7.717601">
        <ele>239.848579</ele>
        <time>2026-08-24T21:19:27.730Z</time>
      </trkpt>
      <trkpt lat="48.115319" lon="7.717817">
        <ele>238.698587</ele>
        <time>2026-08-24T21:19:30.195Z</time>
      </trkpt>
      <trkpt lat="48.115447" lon="7.718029">
        <ele>237.845425</ele>
        <time>2026-08-24T21:19:32.027Z</time>
      </trkpt>
      <trkpt lat="48.115697" lon="7.718574">
        <ele>235.871741</ele>
        <time>2026-08-24T21:19:36.311Z</time>
      </trkpt>
      <trkpt lat="48.116327" lon="7.719576">
        <ele>231.768301</ele>
        <time>2026-08-24T21:19:45.184Z</time>
      </trkpt>
      <trkpt lat="48.116829" lon="7.720553">
        <ele>228.287235</ele>
        <time>2026-08-24T21:19:52.978Z</time>
      </trkpt>
      <trkpt lat="48.117163" lon="7.721277">
        <ele>225.802391</ele>
        <time>2026-08-24T21:19:58.638Z</time>
      </trkpt>
      <trkpt lat="48.117364" lon="7.721827">
        <ele>224.058108</ele>
        <time>2026-08-24T21:20:02.881Z</time>
      </trkpt>
      <trkpt lat="48.117501" lon="7.722227">
        <ele>222.944216</ele>
        <time>2026-08-24T21:20:05.940Z</time>
      </trkpt>
      <trkpt lat="48.117740" lon="7.722975">
        <ele>220.889580</ele>
        <time>2026-08-24T21:20:11.496Z</time>
      </trkpt>
      <trkpt lat="48.117791" lon="7.723276">
        <ele>220.120155</ele>
        <time>2026-08-24T21:20:13.586Z</time>
      </trkpt>
      <trkpt lat="48.117896" lon="7.724247">
        <ele>217.682977</ele>
        <time>2026-08-24T21:20:19.987Z</time>
      </trkpt>
      <trkpt lat="48.117934" lon="7.724714">
        <ele>216.739250</ele>
        <time>2026-08-24T21:20:22.948Z</time>
      </trkpt>
      <trkpt lat="48.117962" lon="7.724963">
        <ele>216.245518</ele>
        <time>2026-08-24T21:20:24.544Z</time>
      </trkpt>
      <trkpt lat="48.118023" lon="7.725370">
        <ele>215.429896</ele>
        <time>2026-08-24T21:20:27.317Z</time>
      </trkpt>
      <trkpt lat="48.118107" lon="7.725716">
        <ele>214.710012</ele>
        <time>2026-08-24T21:20:29.981Z</time>
      </trkpt>
      <trkpt lat="48.118229" lon="7.726045">
        <ele>213.974138</ele>
        <time>2026-08-24T21:20:32.745Z</time>
      </trkpt>
      <trkpt lat="48.118370" lon="7.726361">
        <ele>213.230957</ele>
        <time>2026-08-24T21:20:35.513Z</time>
      </trkpt>
      <trkpt lat="48.118572" lon="7.726870">
        <ele>212.094023</ele>
        <time>2026-08-24T21:20:39.889Z</time>
      </trkpt>
      <trkpt lat="48.118814" lon="7.727549">
        <ele>210.726423</ele>
        <time>2026-08-24T21:20:45.649Z</time>
      </trkpt>
      <trkpt lat="48.118834" lon="7.727619">
        <ele>210.591136</ele>
        <time>2026-08-24T21:20:46.248Z</time>
      </trkpt>
      <trkpt lat="48.119049" lon="7.728503">
        <ele>208.919478</ele>
        <time>2026-08-24T21:20:52.789Z</time>
      </trkpt>
      <trkpt lat="48.119596" lon="7.729930">
        <ele>207.006233</ele>
        <time>2026-08-24T21:21:03.612Z</time>
      </trkpt>
      <trkpt lat="48.119678" lon="7.730197">
        <ele>206.831395</ele>
        <time>2026-08-24T21:21:05.896Z</time>
      </trkpt>
      <trkpt lat="48.119688" lon="7.730305">
        <ele>206.766532</ele>
        <time>2026-08-24T21:21:06.785Z</time>
      </trkpt>
      <trkpt lat="48.119655" lon="7.730487">
        <ele>206.654339</ele>
        <time>2026-08-24T21:21:08.449Z</time>
      </trkpt>
      <trkpt lat="48.119444" lon="7.730867">
        <ele>206.360304</ele>
        <time>2026-08-24T21:21:13.372Z</time>
      </trkpt>
      <trkpt lat="48.119143" lon="7.731335">
        <ele>205.973706</ele>
        <time>2026-08-24T21:21:21.826Z</time>
      </trkpt>
      <trkpt lat="48.119043" lon="7.731498">
        <ele>205.993773</ele>
        <time>2026-08-24T21:21:25.225Z</time>
      </trkpt>
      <trkpt lat="48.118916" lon="7.731802">
        <ele>206.242815</ele>
        <time>2026-08-24T21:21:31.575Z</time>
      </trkpt>
      <trkpt lat="48.118804" lon="7.732270">
        <ele>206.588070</ele>
        <time>2026-08-24T21:21:40.389Z</time>
      </trkpt>
      <trkpt lat="48.118759" lon="7.732627">
        <ele>206.840371</ele>
        <time>2026-08-24T21:21:45.845Z</time>
      </trkpt>
      <trkpt lat="48.118747" lon="7.732906">
        <ele>207.034525</ele>
        <time>2026-08-24T21:21:49.553Z</time>
      </trkpt>
      <trkpt lat="48.118774" lon="7.733059">
        <ele>207.144426</ele>
        <time>2026-08-24T21:21:51.450Z</time>
      </trkpt>
      <trkpt lat="48.118882" lon="7.733378">
        <ele>207.392816</ele>
        <time>2026-08-24T21:21:55.356Z</time>
      </trkpt>
      <trkpt lat="48.119020" lon="7.733567">
        <ele>207.587327</ele>
        <time>2026-08-24T21:21:58.163Z</time>
      </trkpt>
      <trkpt lat="48.119278" lon="7.733825">
        <ele>207.484467</ele>
        <time>2026-08-24T21:22:02.206Z</time>
      </trkpt>
      <trkpt lat="48.119568" lon="7.734215">
        <ele>206.531028</ele>
        <time>2026-08-24T21:22:06.568Z</time>
      </trkpt>
      <trkpt lat="48.119829" lon="7.734663">
        <ele>205.559923</ele>
        <time>2026-08-24T21:22:10.561Z</time>
      </trkpt>
      <trkpt lat="48.120203" lon="7.735145">
        <ele>204.352928</ele>
        <time>2026-08-24T21:22:15.629Z</time>
      </trkpt>
      <trkpt lat="48.120516" lon="7.735589">
        <ele>203.256320</ele>
        <time>2026-08-24T21:22:20.193Z</time>
      </trkpt>
      <trkpt lat="48.120664" lon="7.735896">
        <ele>202.330134</ele>
        <time>2026-08-24T21:22:22.726Z</time>
      </trkpt>
      <trkpt lat="48.120834" lon="7.736264">
        <ele>201.235588</ele>
        <time>2026-08-24T21:22:25.633Z</time>
      </trkpt>
      <trkpt lat="48.120922" lon="7.736489">
        <ele>200.597791</ele>
        <time>2026-08-24T21:22:27.328Z</time>
      </trkpt>
      <trkpt lat="48.120964" lon="7.736644">
        <ele>200.188653</ele>
        <time>2026-08-24T21:22:28.433Z</time>
      </trkpt>
      <trkpt lat="48.120972" lon="7.736765">
        <ele>199.891265</ele>
        <time>2026-08-24T21:22:29.233Z</time>
      </trkpt>
      <trkpt lat="48.120907" lon="7.737095">
        <ele>199.049752</ele>
        <time>2026-08-24T21:22:31.537Z</time>
      </trkpt>
      <trkpt lat="48.120792" lon="7.737811">
        <ele>197.248588</ele>
        <time>2026-08-24T21:22:36.401Z</time>
      </trkpt>
      <trkpt lat="48.120847" lon="7.737973">
        <ele>196.804071</ele>
        <time>2026-08-24T21:22:37.596Z</time>
      </trkpt>
      <trkpt lat="48.121169" lon="7.738634">
        <ele>194.836742</ele>
        <time>2026-08-24T21:22:42.881Z</time>
      </trkpt>
      <trkpt lat="48.121251" lon="7.738893">
        <ele>194.147636</ele>
        <time>2026-08-24T21:22:44.743Z</time>
      </trkpt>
      <trkpt lat="48.121243" lon="7.739236">
        <ele>193.322570</ele>
        <time>2026-08-24T21:22:47.002Z</time>
      </trkpt>
      <trkpt lat="48.121075" lon="7.739331">
        <ele>192.675906</ele>
        <time>2026-08-24T21:22:48.829Z</time>
      </trkpt>
      <trkpt lat="48.120978" lon="7.739445">
        <ele>192.231919</ele>
        <time>2026-08-24T21:22:50.053Z</time>
      </trkpt>
      <trkpt lat="48.120629" lon="7.739919">
        <ele>190.535452</ele>
        <time>2026-08-24T21:22:54.834Z</time>
      </trkpt>
      <trkpt lat="48.120538" lon="7.740002">
        <ele>190.186187</ele>
        <time>2026-08-24T21:22:55.945Z</time>
      </trkpt>
      <trkpt lat="48.120110" lon="7.740234">
        <ele>188.891001</ele>
        <time>2026-08-24T21:23:00.577Z</time>
      </trkpt>
      <trkpt lat="48.119964" lon="7.740358">
        <ele>188.413418</ele>
        <time>2026-08-24T21:23:02.233Z</time>
      </trkpt>
      <trkpt lat="48.119848" lon="7.740504">
        <ele>187.982284</ele>
        <time>2026-08-24T21:23:03.748Z</time>
      </trkpt>
      <trkpt lat="48.119750" lon="7.740663">
        <ele>187.571195</ele>
        <time>2026-08-24T21:23:05.203Z</time>
      </trkpt>
      <trkpt lat="48.119681" lon="7.740891">
        <ele>187.095653</ele>
        <time>2026-08-24T21:23:06.932Z</time>
      </trkpt>
      <trkpt lat="48.119676" lon="7.741119">
        <ele>186.662303</ele>
        <time>2026-08-24T21:23:08.526Z</time>
      </trkpt>
      <trkpt lat="48.119779" lon="7.741484">
        <ele>185.909536</ele>
        <time>2026-08-24T21:23:11.354Z</time>
      </trkpt>
      <trkpt lat="48.119887" lon="7.741711">
        <ele>185.380014</ele>
        <time>2026-08-24T21:23:13.380Z</time>
      </trkpt>
      <trkpt lat="48.120389" lon="7.742497">
        <ele>184.545889</ele>
        <time>2026-08-24T21:23:21.380Z</time>
      </trkpt>
      <trkpt lat="48.120509" lon="7.742776">
        <ele>184.327791</ele>
        <time>2026-08-24T21:23:24.259Z</time>
      </trkpt>
      <trkpt lat="48.120512" lon="7.742979">
        <ele>184.194360</ele>
        <time>2026-08-24T21:23:26.143Z</time>
      </trkpt>
      <trkpt lat="48.120485" lon="7.743125">
        <ele>184.094806</ele>
        <time>2026-08-24T21:23:27.548Z</time>
      </trkpt>
      <trkpt lat="48.120447" lon="7.743354">
        <ele>183.939743</ele>
        <time>2026-08-24T21:23:29.749Z</time>
      </trkpt>
      <trkpt lat="48.120430" lon="7.743449">
        <ele>183.875112</ele>
        <time>2026-08-24T21:23:30.690Z</time>
      </trkpt>
      <trkpt lat="48.120407" lon="7.743622">
        <ele>183.759195</ele>
        <time>2026-08-24T21:23:32.315Z</time>
      </trkpt>
      <trkpt lat="48.120394" lon="7.743713">
        <ele>183.698042</ele>
        <time>2026-08-24T21:23:33.159Z</time>
      </trkpt>
      <trkpt lat="48.120309" lon="7.744423">
        <ele>183.397057</ele>
        <time>2026-08-24T21:23:39.739Z</time>
      </trkpt>
      <trkpt lat="48.120298" lon="7.744515">
        <ele>183.387975</ele>
        <time>2026-08-24T21:23:40.611Z</time>
      </trkpt>
      <trkpt lat="48.120142" lon="7.745801">
        <ele>183.260967</ele>
        <time>2026-08-24T21:23:53.288Z</time>
      </trkpt>
      <trkpt lat="48.120098" lon="7.746095">
        <ele>183.231689</ele>
        <time>2026-08-24T21:23:56.091Z</time>
      </trkpt>
      <trkpt lat="48.120080" lon="7.746235">
        <ele>183.217835</ele>
        <time>2026-08-24T21:23:57.372Z</time>
      </trkpt>
      <trkpt lat="48.120060" lon="7.746393">
        <ele>183.202209</ele>
        <time>2026-08-24T21:23:58.859Z</time>
      </trkpt>
      <trkpt lat="48.120038" lon="7.746604">
        <ele>183.181457</ele>
        <time>2026-08-24T21:24:00.848Z</time>
      </trkpt>
      <trkpt lat="48.120031" lon="7.746645">
        <ele>183.177345</ele>
        <time>2026-08-24T21:24:01.252Z</time>
      </trkpt>
      <trkpt lat="48.120024" lon="7.746695">
        <ele>183.172380</ele>
        <time>2026-08-24T21:24:01.717Z</time>
      </trkpt>
      <trkpt lat="48.119983" lon="7.747044">
        <ele>183.167209</ele>
        <time>2026-08-24T21:24:05.128Z</time>
      </trkpt>
      <trkpt lat="48.119933" lon="7.747474">
        <ele>183.170214</ele>
        <time>2026-08-24T21:24:09.515Z</time>
      </trkpt>
      <trkpt lat="48.119879" lon="7.748009">
        <ele>183.173939</ele>
        <time>2026-08-24T21:24:15.208Z</time>
      </trkpt>
      <trkpt lat="48.119862" lon="7.748209">
        <ele>183.175327</ele>
        <time>2026-08-24T21:24:17.319Z</time>
      </trkpt>
      <trkpt lat="48.119796" lon="7.748745">
        <ele>183.179080</ele>
        <time>2026-08-24T21:24:22.956Z</time>
      </trkpt>
      <trkpt lat="48.119780" lon="7.748887">
        <ele>183.180071</ele>
        <time>2026-08-24T21:24:24.389Z</time>
      </trkpt>
      <trkpt lat="48.119713" lon="7.749654">
        <ele>183.101030</ele>
        <time>2026-08-24T21:24:31.939Z</time>
      </trkpt>
      <trkpt lat="48.119713" lon="7.749654">
        <ele>183.101030</ele>
        <time>2026-08-24T21:24:31.948Z</time>
      </trkpt>
      <trkpt lat="48.119661" lon="7.750416">
        <ele>182.823709</ele>
        <time>2026-08-24T21:24:41.424Z</time>
      </trkpt>
      <trkpt lat="48.119645" lon="7.750361">
        <ele>182.801988</ele>
        <time>2026-08-24T21:24:42.167Z</time>
      </trkpt>
      <trkpt lat="48.119645" lon="7.751069">
        <ele>182.545655</ele>
        <time>2026-08-24T21:24:50.926Z</time>
      </trkpt>
      <trkpt lat="48.119645" lon="7.751155">
        <ele>182.514519</ele>
        <time>2026-08-24T21:24:51.990Z</time>
      </trkpt>
      <trkpt lat="48.119602" lon="7.751155">
        <ele>182.491198</ele>
        <time>2026-08-24T21:24:52.787Z</time>
      </trkpt>
      <trkpt lat="48.119538" lon="7.751198">
        <ele>182.453157</ele>
        <time>2026-08-24T21:24:54.087Z</time>
      </trkpt>
      <trkpt lat="48.119516" lon="7.751241">
        <ele>182.433542</ele>
        <time>2026-08-24T21:24:54.757Z</time>
      </trkpt>
      <trkpt lat="48.119516" lon="7.751284">
        <ele>182.417974</ele>
        <time>2026-08-24T21:24:55.289Z</time>
      </trkpt>
      <trkpt lat="48.119259" lon="7.751198">
        <ele>182.275158</ele>
        <time>2026-08-24T21:25:00.170Z</time>
      </trkpt>
      <trkpt lat="48.119259" lon="7.751327">
        <ele>182.228453</ele>
        <time>2026-08-24T21:25:01.766Z</time>
      </trkpt>
      <trkpt lat="48.119302" lon="7.751391">
        <ele>182.197964</ele>
        <time>2026-08-24T21:25:02.889Z</time>
      </trkpt>
      <trkpt lat="48.119409" lon="7.751477">
        <ele>182.144412</ele>
        <time>2026-08-24T21:25:05.139Z</time>
      </trkpt>
      <trkpt lat="48.119516" lon="7.751606">
        <ele>182.083838</ele>
        <time>2026-08-24T21:25:07.685Z</time>
      </trkpt>
      <trkpt lat="48.119559" lon="7.751713">
        <ele>182.047068</ele>
        <time>2026-08-24T21:25:09.230Z</time>
      </trkpt>
      <trkpt lat="48.119559" lon="7.751766">
        <ele>182.031464</ele>
        <time>2026-08-24T21:25:09.886Z</time>
      </trkpt>
      <trkpt lat="48.119559" lon="7.751842">
        <ele>182.009089</ele>
        <time>2026-08-24T21:25:10.826Z</time>
      </trkpt>
      <trkpt lat="48.119559" lon="7.752099">
        <ele>181.933424</ele>
        <time>2026-08-24T21:25:14.006Z</time>
      </trkpt>
      <trkpt lat="48.119581" lon="7.752335">
        <ele>181.863269</ele>
        <time>2026-08-24T21:25:16.954Z</time>
      </trkpt>
      <trkpt lat="48.119645" lon="7.753043">
        <ele>181.652922</ele>
        <time>2026-08-24T21:25:25.793Z</time>
      </trkpt>
      <trkpt lat="48.119661" lon="7.753040">
        <ele>181.645810</ele>
        <time>2026-08-24T21:25:26.088Z</time>
      </trkpt>
      <trkpt lat="48.119694" lon="7.753403">
        <ele>181.537952</ele>
        <time>2026-08-24T21:25:29.693Z</time>
      </trkpt>
      <trkpt lat="48.119844" lon="7.754537">
        <ele>181.410974</ele>
        <time>2026-08-24T21:25:40.971Z</time>
      </trkpt>
      <trkpt lat="48.120096" lon="7.756514">
        <ele>181.400068</ele>
        <time>2026-08-24T21:26:01.092Z</time>
      </trkpt>
      <trkpt lat="48.120137" lon="7.757900">
        <ele>181.401651</ele>
        <time>2026-08-24T21:26:14.699Z</time>
      </trkpt>
      <trkpt lat="48.120119" lon="7.759047">
        <ele>181.402961</ele>
        <time>2026-08-24T21:26:25.925Z</time>
      </trkpt>
      <trkpt lat="48.120147" lon="7.759393">
        <ele>181.424945</ele>
        <time>2026-08-24T21:26:29.416Z</time>
      </trkpt>
      <trkpt lat="48.120145" lon="7.759533">
        <ele>181.437386</ele>
        <time>2026-08-24T21:26:30.857Z</time>
      </trkpt>
      <trkpt lat="48.120128" lon="7.760080">
        <ele>181.486034</ele>
        <time>2026-08-24T21:26:36.407Z</time>
      </trkpt>
      <trkpt lat="48.120116" lon="7.760250">
        <ele>181.501221</ele>
        <time>2026-08-24T21:26:38.184Z</time>
      </trkpt>
      <trkpt lat="48.120053" lon="7.760592">
        <ele>181.532741</ele>
        <time>2026-08-24T21:26:41.851Z</time>
      </trkpt>
      <trkpt lat="48.119993" lon="7.762226">
        <ele>181.676109</ele>
        <time>2026-08-24T21:26:58.947Z</time>
      </trkpt>
      <trkpt lat="48.119842" lon="7.766307">
        <ele>182.072818</ele>
        <time>2026-08-24T21:27:40.706Z</time>
      </trkpt>
      <trkpt lat="48.119717" lon="7.768398">
        <ele>182.297644</ele>
        <time>2026-08-24T21:28:03.024Z</time>
      </trkpt>
      <trkpt lat="48.112816" lon="7.768439">
        <ele>183.316042</ele>
        <time>2026-08-24T21:29:48.857Z</time>
      </trkpt>
      <trkpt lat="48.111503" lon="7.768447">
        <ele>183.525890</ele>
        <time>2026-08-24T21:30:09.148Z</time>
      </trkpt>
      <trkpt lat="48.110411" lon="7.768409">
        <ele>183.677062</ele>
        <time>2026-08-24T21:30:26.343Z</time>
      </trkpt>
      <trkpt lat="48.110411" lon="7.768409">
        <ele>183.677062</ele>
        <time>2026-08-24T21:30:26.349Z</time>
      </trkpt>
      <trkpt lat="48.110095" lon="7.768438">
        <ele>183.720878</ele>
        <time>2026-08-24T21:30:32.216Z</time>
      </trkpt>
      <trkpt lat="48.109904" lon="7.768427">
        <ele>183.747332</ele>
        <time>2026-08-24T21:30:35.759Z</time>
      </trkpt>
      <trkpt lat="48.110095" lon="7.768438">
        <ele>183.769548</ele>
        <time>2026-08-24T21:30:39.301Z</time>
      </trkpt>
      <trkpt lat="48.110095" lon="7.768438">
        <ele>183.769548</ele>
        <time>2026-08-24T21:30:39.308Z</time>
      </trkpt>
      <trkpt lat="48.110411" lon="7.768409">
        <ele>183.719337</ele>
        <time>2026-08-24T21:30:43.888Z</time>
      </trkpt>
      <trkpt lat="48.111503" lon="7.768447">
        <ele>183.546099</ele>
        <time>2026-08-24T21:30:59.202Z</time>
      </trkpt>
      <trkpt lat="48.112816" lon="7.768439">
        <ele>183.478756</ele>
        <time>2026-08-24T21:31:18.137Z</time>
      </trkpt>
      <trkpt lat="48.111503" lon="7.768447">
        <ele>183.523666</ele>
        <time>2026-08-24T21:31:38.163Z</time>
      </trkpt>
      <trkpt lat="48.110411" lon="7.768409">
        <ele>183.649518</ele>
        <time>2026-08-24T21:31:55.052Z</time>
      </trkpt>
      <trkpt lat="48.110095" lon="7.768438">
        <ele>183.685578</ele>
        <time>2026-08-24T21:31:59.850Z</time>
      </trkpt>
      <trkpt lat="48.109700" lon="7.768415">
        <ele>183.728468</ele>
        <time>2026-08-24T21:32:05.730Z</time>
      </trkpt>
      <trkpt lat="48.109217" lon="7.768207">
        <ele>183.782996</ele>
        <time>2026-08-24T21:32:13.173Z</time>
      </trkpt>
      <trkpt lat="48.108566" lon="7.768068">
        <ele>183.854344</ele>
        <time>2026-08-24T21:32:23.052Z</time>
      </trkpt>
      <trkpt lat="48.108492" lon="7.768167">
        <ele>183.865109</ele>
        <time>2026-08-24T21:32:24.630Z</time>
      </trkpt>
      <trkpt lat="48.108230" lon="7.768744">
        <ele>184.062500</ele>
        <time>2026-08-24T21:32:32.314Z</time>
      </trkpt>
      <trkpt lat="48.108165" lon="7.768838">
        <ele>184.106849</ele>
        <time>2026-08-24T21:32:33.838Z</time>
      </trkpt>
      <trkpt lat="48.108035" lon="7.768932">
        <ele>184.177701</ele>
        <time>2026-08-24T21:32:36.298Z</time>
      </trkpt>
      <trkpt lat="48.107628" lon="7.769293">
        <ele>184.409864</ele>
        <time>2026-08-24T21:32:44.444Z</time>
      </trkpt>
      <trkpt lat="48.107492" lon="7.769495">
        <ele>184.503874</ele>
        <time>2026-08-24T21:32:47.777Z</time>
      </trkpt>
      <trkpt lat="48.107505" lon="7.769688">
        <ele>184.567446</ele>
        <time>2026-08-24T21:32:49.988Z</time>
      </trkpt>
      <trkpt lat="48.107696" lon="7.770659">
        <ele>184.860741</ele>
        <time>2026-08-24T21:33:01.476Z</time>
      </trkpt>
      <trkpt lat="48.107728" lon="7.770881">
        <ele>184.915079</ele>
        <time>2026-08-24T21:33:03.977Z</time>
      </trkpt>
      <trkpt lat="48.107796" lon="7.771395">
        <ele>185.040446</ele>
        <time>2026-08-24T21:33:09.589Z</time>
      </trkpt>
      <trkpt lat="48.107883" lon="7.772401">
        <ele>185.283145</ele>
        <time>2026-08-24T21:33:20.311Z</time>
      </trkpt>
      <trkpt lat="48.107914" lon="7.773364">
        <ele>185.476328</ele>
        <time>2026-08-24T21:33:30.667Z</time>
      </trkpt>
      <trkpt lat="48.107918" lon="7.775474">
        <ele>185.813062</ele>
        <time>2026-08-24T21:33:53.195Z</time>
      </trkpt>
      <trkpt lat="48.107918" lon="7.775474">
        <ele>185.813062</ele>
        <time>2026-08-24T21:33:53.204Z</time>
      </trkpt>
      <trkpt lat="48.107886" lon="7.775466">
        <ele>185.820816</ele>
        <time>2026-08-24T21:33:53.805Z</time>
      </trkpt>
      <trkpt lat="48.107899" lon="7.775136">
        <ele>185.846871</ele>
        <time>2026-08-24T21:33:57.896Z</time>
      </trkpt>
      <trkpt lat="48.107886" lon="7.775466">
        <ele>185.866449</ele>
        <time>2026-08-24T21:34:01.987Z</time>
      </trkpt>
      <trkpt lat="48.107886" lon="7.775595">
        <ele>185.874089</ele>
        <time>2026-08-24T21:34:03.583Z</time>
      </trkpt>
      <trkpt lat="48.107901" lon="7.776011">
        <ele>185.898762</ele>
        <time>2026-08-24T21:34:08.739Z</time>
      </trkpt>
      <trkpt lat="48.107920" lon="7.776011">
        <ele>185.900448</ele>
        <time>2026-08-24T21:34:09.082Z</time>
      </trkpt>
      <trkpt lat="48.107920" lon="7.776192">
        <ele>185.911167</ele>
        <time>2026-08-24T21:34:10.858Z</time>
      </trkpt>
      <trkpt lat="48.107903" lon="7.777352">
        <ele>185.979884</ele>
        <time>2026-08-24T21:34:22.548Z</time>
      </trkpt>
      <trkpt lat="48.107986" lon="7.777664">
        <ele>186.073980</ele>
        <time>2026-08-24T21:34:26.108Z</time>
      </trkpt>
      <trkpt lat="48.108013" lon="7.777911">
        <ele>186.209302</ele>
        <time>2026-08-24T21:34:28.866Z</time>
      </trkpt>
      <trkpt lat="48.107799" lon="7.777959">
        <ele>186.384513</ele>
        <time>2026-08-24T21:34:32.597Z</time>
      </trkpt>
      <trkpt lat="48.107577" lon="7.777976">
        <ele>186.564504</ele>
        <time>2026-08-24T21:34:36.564Z</time>
      </trkpt>
      <trkpt lat="48.106688" lon="7.778060">
        <ele>187.285768</ele>
        <time>2026-08-24T21:34:53.261Z</time>
      </trkpt>
      <trkpt lat="48.106624" lon="7.778076">
        <ele>187.338307</ele>
        <time>2026-08-24T21:34:54.489Z</time>
      </trkpt>
      <trkpt lat="48.105457" lon="7.778395">
        <ele>189.096972</ele>
        <time>2026-08-24T21:35:17.347Z</time>
      </trkpt>
      <trkpt lat="48.105184" lon="7.778464">
        <ele>189.531193</ele>
        <time>2026-08-24T21:35:22.563Z</time>
      </trkpt>
      <trkpt lat="48.104518" lon="7.778551">
        <ele>190.971701</ele>
        <time>2026-08-24T21:35:39.377Z</time>
      </trkpt>
      <trkpt lat="48.104346" lon="7.778606">
        <ele>191.594423</ele>
        <time>2026-08-24T21:35:44.280Z</time>
      </trkpt>
      <trkpt lat="48.104150" lon="7.778693">
        <ele>192.318235</ele>
        <time>2026-08-24T21:35:50.283Z</time>
      </trkpt>
      <trkpt lat="48.103847" lon="7.778874">
        <ele>193.473260</ele>
        <time>2026-08-24T21:36:00.477Z</time>
      </trkpt>
      <trkpt lat="48.103751" lon="7.778906">
        <ele>193.821482</ele>
        <time>2026-08-24T21:36:03.677Z</time>
      </trkpt>
      <trkpt lat="48.103623" lon="7.778902">
        <ele>194.274785</ele>
        <time>2026-08-24T21:36:07.886Z</time>
      </trkpt>
      <trkpt lat="48.103253" lon="7.778782">
        <ele>195.615200</ele>
        <time>2026-08-24T21:36:22.609Z</time>
      </trkpt>
      <trkpt lat="48.102925" lon="7.778619">
        <ele>196.693162</ele>
        <time>2026-08-24T21:36:35.248Z</time>
      </trkpt>
      <trkpt lat="48.102737" lon="7.778507">
        <ele>196.894193</ele>
        <time>2026-08-24T21:36:41.194Z</time>
      </trkpt>
      <trkpt lat="48.102410" lon="7.778409">
        <ele>197.225534</ele>
        <time>2026-08-24T21:36:49.783Z</time>
      </trkpt>
      <trkpt lat="48.102144" lon="7.778407">
        <ele>197.489828</ele>
        <time>2026-08-24T21:36:55.870Z</time>
      </trkpt>
      <trkpt lat="48.102098" lon="7.778422">
        <ele>197.536603</ele>
        <time>2026-08-24T21:36:56.894Z</time>
      </trkpt>
      <trkpt lat="48.101986" lon="7.778545">
        <ele>197.674603</ele>
        <time>2026-08-24T21:36:59.749Z</time>
      </trkpt>
      <trkpt lat="48.101925" lon="7.778605">
        <ele>197.747116</ele>
        <time>2026-08-24T21:37:01.117Z</time>
      </trkpt>
      <trkpt lat="48.101809" lon="7.778645">
        <ele>197.865387</ele>
        <time>2026-08-24T21:37:03.417Z</time>
      </trkpt>
      <trkpt lat="48.101659" lon="7.778679">
        <ele>198.016121</ele>
        <time>2026-08-24T21:37:05.455Z</time>
      </trkpt>
      <trkpt lat="48.101037" lon="7.778659">
        <ele>198.644845</ele>
        <time>2026-08-24T21:37:13.920Z</time>
      </trkpt>
      <trkpt lat="48.100755" lon="7.778609">
        <ele>198.941148</ele>
        <time>2026-08-24T21:37:18.673Z</time>
      </trkpt>
      <trkpt lat="48.100540" lon="7.778571">
        <ele>199.167042</ele>
        <time>2026-08-24T21:37:23.178Z</time>
      </trkpt>
      <trkpt lat="48.100353" lon="7.778575">
        <ele>199.362183</ele>
        <time>2026-08-24T21:37:27.299Z</time>
      </trkpt>
      <trkpt lat="48.100015" lon="7.778684">
        <ele>199.722949</ele>
        <time>2026-08-24T21:37:34.922Z</time>
      </trkpt>
      <trkpt lat="48.099345" lon="7.779073">
        <ele>200.333317</ele>
        <time>2026-08-24T21:37:49.963Z</time>
      </trkpt>
      <trkpt lat="48.098494" lon="7.779874">
        <ele>200.534681</ele>
        <time>2026-08-24T21:38:07.080Z</time>
      </trkpt>
      <trkpt lat="48.098322" lon="7.779984">
        <ele>200.572149</ele>
        <time>2026-08-24T21:38:10.149Z</time>
      </trkpt>
      <trkpt lat="48.098090" lon="7.780072">
        <ele>200.620093</ele>
        <time>2026-08-24T21:38:13.463Z</time>
      </trkpt>
      <trkpt lat="48.097840" lon="7.780118">
        <ele>200.567087</ele>
        <time>2026-08-24T21:38:16.316Z</time>
      </trkpt>
      <trkpt lat="48.097274" lon="7.780070">
        <ele>199.511300</ele>
        <time>2026-08-24T21:38:22.551Z</time>
      </trkpt>
      <trkpt lat="48.097133" lon="7.780095">
        <ele>199.246872</ele>
        <time>2026-08-24T21:38:24.180Z</time>
      </trkpt>
      <trkpt lat="48.096969" lon="7.780174">
        <ele>198.926028</ele>
        <time>2026-08-24T21:38:26.137Z</time>
      </trkpt>
      <trkpt lat="48.096683" lon="7.780450">
        <ele>198.292346</ele>
        <time>2026-08-24T21:38:30.001Z</time>
      </trkpt>
      <trkpt lat="48.096534" lon="7.780756">
        <ele>197.821318</ele>
        <time>2026-08-24T21:38:32.783Z</time>
      </trkpt>
      <trkpt lat="48.096347" lon="7.781324">
        <ele>197.264168</ele>
        <time>2026-08-24T21:38:36.995Z</time>
      </trkpt>
      <trkpt lat="48.096153" lon="7.781757">
        <ele>197.155095</ele>
        <time>2026-08-24T21:38:40.658Z</time>
      </trkpt>
      <trkpt lat="48.095970" lon="7.781974">
        <ele>197.081978</ele>
        <time>2026-08-24T21:38:44.044Z</time>
      </trkpt>
      <trkpt lat="48.095374" lon="7.782351">
        <ele>196.879325</ele>
        <time>2026-08-24T21:38:55.677Z</time>
      </trkpt>
      <trkpt lat="48.095026" lon="7.782573">
        <ele>196.760844</ele>
        <time>2026-08-24T21:39:01.734Z</time>
      </trkpt>
      <trkpt lat="48.094798" lon="7.782764">
        <ele>196.945895</ele>
        <time>2026-08-24T21:39:06.603Z</time>
      </trkpt>
      <trkpt lat="48.094456" lon="7.783132">
        <ele>197.328693</ele>
        <time>2026-08-24T21:39:17.145Z</time>
      </trkpt>
      <trkpt lat="48.094216" lon="7.783409">
        <ele>197.604123</ele>
        <time>2026-08-24T21:39:25.347Z</time>
      </trkpt>
      <trkpt lat="48.094155" lon="7.783400">
        <ele>197.659835</ele>
        <time>2026-08-24T21:39:26.828Z</time>
      </trkpt>
      <trkpt lat="48.093473" lon="7.783391">
        <ele>198.279737</ele>
        <time>2026-08-24T21:39:36.391Z</time>
      </trkpt>
      <trkpt lat="48.092741" lon="7.783314">
        <ele>197.704861</ele>
        <time>2026-08-24T21:39:45.665Z</time>
      </trkpt>
      <trkpt lat="48.092436" lon="7.783316">
        <ele>197.372205</ele>
        <time>2026-08-24T21:39:48.991Z</time>
      </trkpt>
      <trkpt lat="48.092246" lon="7.783316">
        <ele>197.164978</ele>
        <time>2026-08-24T21:39:50.980Z</time>
      </trkpt>
      <trkpt lat="48.091977" lon="7.783287">
        <ele>196.870829</ele>
        <time>2026-08-24T21:39:53.833Z</time>
      </trkpt>
      <trkpt lat="48.091566" lon="7.783341">
        <ele>196.420842</ele>
        <time>2026-08-24T21:39:58.631Z</time>
      </trkpt>
      <trkpt lat="48.091518" lon="7.783381">
        <ele>196.592783</ele>
        <time>2026-08-24T21:39:59.454Z</time>
      </trkpt>
      <trkpt lat="48.091412" lon="7.783570">
        <ele>197.112710</ele>
        <time>2026-08-24T21:40:02.496Z</time>
      </trkpt>
      <trkpt lat="48.091110" lon="7.783599">
        <ele>198.067204</ele>
        <time>2026-08-24T21:40:09.747Z</time>
      </trkpt>
      <trkpt lat="48.091049" lon="7.783658">
        <ele>198.296263</ele>
        <time>2026-08-24T21:40:11.622Z</time>
      </trkpt>
      <trkpt lat="48.090828" lon="7.783684">
        <ele>198.995466</ele>
        <time>2026-08-24T21:40:17.310Z</time>
      </trkpt>
      <trkpt lat="48.090700" lon="7.783371">
        <ele>199.768663</ele>
        <time>2026-08-24T21:40:24.018Z</time>
      </trkpt>
      <trkpt lat="48.090503" lon="7.783069">
        <ele>200.657988</ele>
        <time>2026-08-24T21:40:32.906Z</time>
      </trkpt>
      <trkpt lat="48.090378" lon="7.782961">
        <ele>201.113196</ele>
        <time>2026-08-24T21:40:37.927Z</time>
      </trkpt>
      <trkpt lat="48.090139" lon="7.782919">
        <ele>201.872200</ele>
        <time>2026-08-24T21:40:47.193Z</time>
      </trkpt>
      <trkpt lat="48.089890" lon="7.782925">
        <ele>202.617588</ele>
        <time>2026-08-24T21:40:57.607Z</time>
      </trkpt>
      <trkpt lat="48.089746" lon="7.782900">
        <ele>203.042330</ele>
        <time>2026-08-24T21:41:03.959Z</time>
      </trkpt>
      <trkpt lat="48.089647" lon="7.782839">
        <ele>203.356004</ele>
        <time>2026-08-24T21:41:08.710Z</time>
      </trkpt>
      <trkpt lat="48.089508" lon="7.782658">
        <ele>203.895773</ele>
        <time>2026-08-24T21:41:15.902Z</time>
      </trkpt>
      <trkpt lat="48.089099" lon="7.782142">
        <ele>205.462909</ele>
        <time>2026-08-24T21:41:29.943Z</time>
      </trkpt>
      <trkpt lat="48.089009" lon="7.782087">
        <ele>205.747730</ele>
        <time>2026-08-24T21:41:31.967Z</time>
      </trkpt>
      <trkpt lat="48.088790" lon="7.781978">
        <ele>206.423925</ele>
        <time>2026-08-24T21:41:36.408Z</time>
      </trkpt>
      <trkpt lat="48.088704" lon="7.781977">
        <ele>206.675910</ele>
        <time>2026-08-24T21:41:37.982Z</time>
      </trkpt>
      <trkpt lat="48.088616" lon="7.782009">
        <ele>206.941244</ele>
        <time>2026-08-24T21:41:39.447Z</time>
      </trkpt>
      <trkpt lat="48.088514" lon="7.782108">
        <ele>207.297415</ele>
        <time>2026-08-24T21:41:41.149Z</time>
      </trkpt>
      <trkpt lat="48.088134" lon="7.782447">
        <ele>205.967790</ele>
        <time>2026-08-24T21:41:46.271Z</time>
      </trkpt>
      <trkpt lat="48.087972" lon="7.782572">
        <ele>205.361807</ele>
        <time>2026-08-24T21:41:48.131Z</time>
      </trkpt>
      <trkpt lat="48.087571" lon="7.782862">
        <ele>203.881066</ele>
        <time>2026-08-24T21:41:52.426Z</time>
      </trkpt>
      <trkpt lat="48.087082" lon="7.783235">
        <ele>202.056258</ele>
        <time>2026-08-24T21:41:57.668Z</time>
      </trkpt>
      <trkpt lat="48.086970" lon="7.783301">
        <ele>201.656048</ele>
        <time>2026-08-24T21:41:58.809Z</time>
      </trkpt>
      <trkpt lat="48.086913" lon="7.783332">
        <ele>201.454405</ele>
        <time>2026-08-24T21:41:59.376Z</time>
      </trkpt>
      <trkpt lat="48.086523" lon="7.783283">
        <ele>199.970011</ele>
        <time>2026-08-24T21:42:03.100Z</time>
      </trkpt>
      <trkpt lat="48.086465" lon="7.783270">
        <ele>199.745986</ele>
        <time>2026-08-24T21:42:03.657Z</time>
      </trkpt>
      <trkpt lat="48.086385" lon="7.783255">
        <ele>199.438005</ele>
        <time>2026-08-24T21:42:04.417Z</time>
      </trkpt>
      <trkpt lat="48.086152" lon="7.783215">
        <ele>198.542131</ele>
        <time>2026-08-24T21:42:06.654Z</time>
      </trkpt>
      <trkpt lat="48.086112" lon="7.783211">
        <ele>198.388994</ele>
        <time>2026-08-24T21:42:07.033Z</time>
      </trkpt>
      <trkpt lat="48.085052" lon="7.783300">
        <ele>194.476325</ele>
        <time>2026-08-24T21:42:17.620Z</time>
      </trkpt>
      <trkpt lat="48.084191" lon="7.783498">
        <ele>193.804434</ele>
        <time>2026-08-24T21:42:27.799Z</time>
      </trkpt>
      <trkpt lat="48.084054" lon="7.783557">
        <ele>193.694478</ele>
        <time>2026-08-24T21:42:29.690Z</time>
      </trkpt>
      <trkpt lat="48.083164" lon="7.784133">
        <ele>193.338179</ele>
        <time>2026-08-24T21:42:46.237Z</time>
      </trkpt>
      <trkpt lat="48.083108" lon="7.784174">
        <ele>193.395552</ele>
        <time>2026-08-24T21:42:47.344Z</time>
      </trkpt>
      <trkpt lat="48.082872" lon="7.784311">
        <ele>193.628512</ele>
        <time>2026-08-24T21:42:52.270Z</time>
      </trkpt>
      <trkpt lat="48.082697" lon="7.784352">
        <ele>193.791531</ele>
        <time>2026-08-24T21:42:55.816Z</time>
      </trkpt>
      <trkpt lat="48.082110" lon="7.784406">
        <ele>194.332786</ele>
        <time>2026-08-24T21:43:07.831Z</time>
      </trkpt>
      <trkpt lat="48.081606" lon="7.784411">
        <ele>194.782752</ele>
        <time>2026-08-24T21:43:16.977Z</time>
      </trkpt>
      <trkpt lat="48.081251" lon="7.784325">
        <ele>194.829057</ele>
        <time>2026-08-24T21:43:22.268Z</time>
      </trkpt>
      <trkpt lat="48.080250" lon="7.783834">
        <ele>194.964690</ele>
        <time>2026-08-24T21:43:37.710Z</time>
      </trkpt>
      <trkpt lat="48.080141" lon="7.783835">
        <ele>194.978725</ele>
        <time>2026-08-24T21:43:39.230Z</time>
      </trkpt>
      <trkpt lat="48.080099" lon="7.784122">
        <ele>195.003999</ele>
        <time>2026-08-24T21:43:42.219Z</time>
      </trkpt>
      <trkpt lat="48.080023" lon="7.784269">
        <ele>195.032027</ele>
        <time>2026-08-24T21:43:44.080Z</time>
      </trkpt>
      <trkpt lat="48.079467" lon="7.784496">
        <ele>195.219275</ele>
        <time>2026-08-24T21:43:53.639Z</time>
      </trkpt>
      <trkpt lat="48.079029" lon="7.784577">
        <ele>195.362666</ele>
        <time>2026-08-24T21:44:01.572Z</time>
      </trkpt>
      <trkpt lat="48.078491" lon="7.784760">
        <ele>195.541923</ele>
        <time>2026-08-24T21:44:10.409Z</time>
      </trkpt>
      <trkpt lat="48.078050" lon="7.785016">
        <ele>195.418782</ele>
        <time>2026-08-24T21:44:17.293Z</time>
      </trkpt>
      <trkpt lat="48.077772" lon="7.785216">
        <ele>195.239137</ele>
        <time>2026-08-24T21:44:21.491Z</time>
      </trkpt>
      <trkpt lat="48.077359" lon="7.785661">
        <ele>194.942753</ele>
        <time>2026-08-24T21:44:27.888Z</time>
      </trkpt>
      <trkpt lat="48.077101" lon="7.785988">
        <ele>194.745850</ele>
        <time>2026-08-24T21:44:31.995Z</time>
      </trkpt>
      <trkpt lat="48.077031" lon="7.786098">
        <ele>194.686737</ele>
        <time>2026-08-24T21:44:33.243Z</time>
      </trkpt>
      <trkpt lat="48.076897" lon="7.786434">
        <ele>194.540113</ele>
        <time>2026-08-24T21:44:36.395Z</time>
      </trkpt>
      <trkpt lat="48.076380" lon="7.788256">
        <ele>194.070760</ele>
        <time>2026-08-24T21:44:54.001Z</time>
      </trkpt>
      <trkpt lat="48.076246" lon="7.788637">
        <ele>193.968670</ele>
        <time>2026-08-24T21:44:58.372Z</time>
      </trkpt>
      <trkpt lat="48.075958" lon="7.789333">
        <ele>194.047198</ele>
        <time>2026-08-24T21:45:07.006Z</time>
      </trkpt>
      <trkpt lat="48.075878" lon="7.789486">
        <ele>194.093440</ele>
        <time>2026-08-24T21:45:09.083Z</time>
      </trkpt>
      <trkpt lat="48.075548" lon="7.790063">
        <ele>194.274215</ele>
        <time>2026-08-24T21:45:17.367Z</time>
      </trkpt>
      <trkpt lat="48.075384" lon="7.790290">
        <ele>194.353791</ele>
        <time>2026-08-24T21:45:20.880Z</time>
      </trkpt>
      <trkpt lat="48.074771" lon="7.791008">
        <ele>194.853381</ele>
        <time>2026-08-24T21:45:33.823Z</time>
      </trkpt>
      <trkpt lat="48.074597" lon="7.791319">
        <ele>195.219105</ele>
        <time>2026-08-24T21:45:38.858Z</time>
      </trkpt>
      <trkpt lat="48.074309" lon="7.791905">
        <ele>195.874988</ele>
        <time>2026-08-24T21:45:48.561Z</time>
      </trkpt>
      <trkpt lat="48.074127" lon="7.792289">
        <ele>196.299470</ele>
        <time>2026-08-24T21:45:55.311Z</time>
      </trkpt>
      <trkpt lat="48.074006" lon="7.792670">
        <ele>196.679818</ele>
        <time>2026-08-24T21:46:01.547Z</time>
      </trkpt>
      <trkpt lat="48.073686" lon="7.793902">
        <ele>198.011106</ele>
        <time>2026-08-24T21:46:21.941Z</time>
      </trkpt>
      <trkpt lat="48.073611" lon="7.794274">
        <ele>198.416169</ele>
        <time>2026-08-24T21:46:27.865Z</time>
      </trkpt>
      <trkpt lat="48.073442" lon="7.794790">
        <ele>199.015223</ele>
        <time>2026-08-24T21:46:36.044Z</time>
      </trkpt>
      <trkpt lat="48.073200" lon="7.795262">
        <ele>199.635429</ele>
        <time>2026-08-24T21:46:43.534Z</time>
      </trkpt>
      <trkpt lat="48.072947" lon="7.795643">
        <ele>199.841362</ele>
        <time>2026-08-24T21:46:49.814Z</time>
      </trkpt>
      <trkpt lat="48.072337" lon="7.796464">
        <ele>200.018240</ele>
        <time>2026-08-24T21:47:03.470Z</time>
      </trkpt>
      <trkpt lat="48.072320" lon="7.796490">
        <ele>200.023481</ele>
        <time>2026-08-24T21:47:03.814Z</time>
      </trkpt>
      <trkpt lat="48.072071" lon="7.796878">
        <ele>200.100983</ele>
        <time>2026-08-24T21:47:08.774Z</time>
      </trkpt>
      <trkpt lat="48.071503" lon="7.797382">
        <ele>199.978052</ele>
        <time>2026-08-24T21:47:17.671Z</time>
      </trkpt>
      <trkpt lat="48.071710" lon="7.797782">
        <ele>199.778462</ele>
        <time>2026-08-24T21:47:22.215Z</time>
      </trkpt>
      <trkpt lat="48.072467" lon="7.799263">
        <ele>199.086646</ele>
        <time>2026-08-24T21:47:37.968Z</time>
      </trkpt>
      <trkpt lat="48.072583" lon="7.799596">
        <ele>199.034409</ele>
        <time>2026-08-24T21:47:41.238Z</time>
      </trkpt>
      <trkpt lat="48.072014" lon="7.800209">
        <ele>198.888462</ele>
        <time>2026-08-24T21:47:50.945Z</time>
      </trkpt>
      <trkpt lat="48.071871" lon="7.800372">
        <ele>198.851042</ele>
        <time>2026-08-24T21:47:53.599Z</time>
      </trkpt>
      <trkpt lat="48.071586" lon="7.800736">
        <ele>198.773045</ele>
        <time>2026-08-24T21:47:59.425Z</time>
      </trkpt>
      <trkpt lat="48.071406" lon="7.801077">
        <ele>198.736059</ele>
        <time>2026-08-24T21:48:03.981Z</time>
      </trkpt>
      <trkpt lat="48.071307" lon="7.801271">
        <ele>198.736059</ele>
        <time>2026-08-24T21:48:06.534Z</time>
      </trkpt>
      <trkpt lat="48.071215" lon="7.801379">
        <ele>198.736059</ele>
        <time>2026-08-24T21:48:08.365Z</time>
      </trkpt>
      <trkpt lat="48.071251" lon="7.801463">
        <ele>198.736059</ele>
        <time>2026-08-24T21:48:09.409Z</time>
      </trkpt>
      <trkpt lat="48.071283" lon="7.801536">
        <ele>198.736059</ele>
        <time>2026-08-24T21:48:10.337Z</time>
      </trkpt>
      <trkpt lat="48.071295" lon="7.801564">
        <ele>198.736059</ele>
        <time>2026-08-24T21:48:10.696Z</time>
      </trkpt>
      <trkpt lat="48.071447" lon="7.801935">
        <ele>198.736059</ele>
        <time>2026-08-24T21:48:15.463Z</time>
      </trkpt>
      <trkpt lat="48.071558" lon="7.802244">
        <ele>198.736059</ele>
        <time>2026-08-24T21:48:19.449Z</time>
      </trkpt>
      <trkpt lat="48.071625" lon="7.802545">
        <ele>198.736059</ele>
        <time>2026-08-24T21:48:23.036Z</time>
      </trkpt>
      <trkpt lat="48.071638" lon="7.802613">
        <ele>198.736059</ele>
        <time>2026-08-24T21:48:23.827Z</time>
      </trkpt>
      <trkpt lat="48.071703" lon="7.803260">
        <ele>198.736059</ele>
        <time>2026-08-24T21:48:31.016Z</time>
      </trkpt>
      <trkpt lat="48.071722" lon="7.803610">
        <ele>198.736059</ele>
        <time>2026-08-24T21:48:34.791Z</time>
      </trkpt>
      <trkpt lat="48.071754" lon="7.803929">
        <ele>198.736059</ele>
        <time>2026-08-24T21:48:38.204Z</time>
      </trkpt>
      <trkpt lat="48.071771" lon="7.804183">
        <ele>198.736059</ele>
        <time>2026-08-24T21:48:40.924Z</time>
      </trkpt>
    </trkseg>
  </trk>
</gpx>